     2              OBSERVATION DATA    G (GPS)             RINEX VERSION / TYPE
ASRINEXO V2.9.9 LH AIUB 01-FEB- 1 17:14                     PGM / RUN BY / DATE
BERN ASHTECH Z-12                                           COMMENT
BIT 2 OF LLI (+4) FLAGS DATA COLLECTED UNDER "AS" CONDITION COMMENT
USNB                                                        MARKER NAME
                                                            OBSERVER / AGENCY
? ASHTECH Z-XII3 1D15                                       REC # / TYPE / VERS
? CHOKE RING                                                ANT # / TYPE
  1112168.3300 -4842863.2500  3985506.0300                  APPROX POSITION XYZ
        0.0000        0.0000        0.0000                  ANTENNA: DELTA H/E/N
     1     1                                                WAVELENGTH FACT L1/2
     5    C1    L1    L2    P1    P2                        # / TYPES OF OBSERV
  2000     6    29     0     0   30.000000                  TIME OF FIRST OBS
                                                            END OF HEADER
 00  6 29  0  0 30.0000000  0  9 11 25 05 21 23 29 09 15 30
  24141492.654    -3563504.064 7  -2767891.48545  24141491.750    24141502.9274
  22692209.057   -14069435.022 8 -10950238.47446  22692210.160    22692220.3674
  22347149.508   -14175076.524 8 -11028815.57146  22347152.417    22347163.5594
  20111518.077   -26148225.168 9 -20366422.06348  20111520.767    20111528.8094
  22156594.833   -15176724.249 8 -11815412.64846  22156594.572    22156604.2464
  20526680.295   -22806531.747 9 -17747759.55448  20526681.732    20526689.5964
  24405135.113     -914805.155 7   -440091.79045  24405134.583    24405146.7094
  21772165.388   -13911535.833 8 -10814925.81847  21772168.480    21772178.4274
  22282010.269   -12480345.398 8  -9703566.42946  22282015.417    22282025.3344
 00  6 29  0  1  0.0000000  0  9 11 25 05 21 23 29 09 15 30
  24133124.656    -3607429.359 7  -2802118.94145  24133133.197    24133145.4594
  22676535.609   -14151801.804 8 -11014420.26346  22676536.562    22676546.3724
  22347374.265   -14173902.906 8 -11027901.04646  22347376.401    22347386.0734
  20111778.589   -26146849.260 9 -20365349.92748  20111782.556    20111790.5924
  22171341.189   -15099222.352 8 -11755021.62446  22171342.969    22171352.9404
  20525242.054   -22814080.628 9 -17753641.78148  20525245.547    20525252.8614
  24425775.454     -806323.475 7   -355560.72845  24425778.466    24425791.0684
  21782858.913   -13855343.442 8 -10771139.58847  21782861.408    21782871.3694
  22269175.209   -12547803.462 8  -9756131.04846  22269178.896    22269187.6464
 00  6 29  0  1 30.0000000  0  9 11 25 05 21 23 29 09 15 30
  24124872.272    -3650865.636 7  -2835965.31745  24124869.176    24124878.5364
  22660908.705   -14233902.032 8 -11078394.36646  22660912.817    22660921.8834
  22347704.464   -14172158.264 8 -11026541.56446  22347708.475    22347717.8254
  20112144.554   -26144932.829 9 -20363856.60648  20112147.398    20112155.3444
  22186156.663   -15021372.324 8 -11694359.33946  22186157.370    22186167.6924
  20523845.411   -22821421.547 9 -17759361.95548  20523848.434    20523855.9234
  24446431.816     -697793.649 7   -270992.15245  24446430.622    24446443.8364
  21793647.254   -13798647.645 8 -10726961.08647  21793650.446    21793660.2424
  22256414.910   -12614856.202 8  -9808379.85746  22256418.395    22256427.8614
 00  6 29  0  2  0.0000000  0  9 11 25 05 21 23 29 09 15 30
  24116685.950    -3693812.084 7  -2869430.05345  24116695.941    24116706.9364
  22645336.238   -14315734.212 8 -11142159.60946  22645340.908    22645349.5984
  22348144.672   -14169842.124 8 -11024736.76946  22348149.149    22348158.8204
  20112611.459   -26142474.001 9 -20361940.63348  20112615.393    20112623.1854
  22201033.437   -14943175.302 8 -11633426.67946  22201037.978    22201048.3604
  20522488.150   -22828554.296 9 -17764919.92948  20522491.281    20522498.7004
  24467088.083     -589217.900 7   -186387.78345  24467092.585    24467104.2514
  21804531.096   -13741450.884 8 -10682392.20447  21804534.884    21804544.2544
  22243731.895   -12681500.567 8  -9860310.44047  22243736.663    22243745.8414
 00  6 29  0  2 30.0000000  0  9 11 25 05 21 23 29 09 15 30
  24108608.542    -3736267.499 7  -2902512.14445  24108614.975    24108627.1694
  22629821.686   -14397297.624 8 -11205715.42746  22629821.115    22629828.7584
  22348694.674   -14166954.198 8 -11022486.41346  22348698.712    22348708.4614
  20113183.942   -26139472.594 9 -20359601.87048  20113186.388    20113194.2094
  22215982.076   -14864632.281 8 -11572224.40946  22215983.756    22215994.4744
  20521168.956   -22835478.658 9 -17770315.51948  20521173.245    20521181.0934
  24487755.729     -480598.329 7   -101749.25445  24487762.600    24487774.4614
  21815510.432   -13683755.615 8 -10637434.89147  21815513.712    21815523.4874
  22231128.918   -12747734.065 8  -9911920.87346  22231132.255    22231141.9144
 00  6 29  0  3  0.0000000  0  9 11 25 05 21 23 29 09 15 30
  24100631.651    -3778230.689 8  -2935210.67845  24100632.000    24100641.8874
  22614343.205   -14478590.984 8 -11269060.80246  22614349.876    22614359.6964
  22349353.834   -14163494.277 8 -11019790.37646  22349356.984    22349366.7274
  20113859.501   -26135926.977 9 -20356839.05148  20113861.022    20113869.0164
  22230994.941   -14785744.443 8 -11510753.43846  22230996.157    22231006.5654
  20519891.169   -22842194.408 9 -17775548.55248  20519895.521    20519902.9864
  24508444.717     -371936.826 7    -17078.06145  24508440.394    24508452.6744
  21826582.455   -13625564.753 8 -10592091.39147  21826587.055    21826596.3814
  22218597.043   -12813553.545 8  -9963208.68946  22218606.781    22218616.9514
 00  6 29  0  3 30.0000000  0  9 11 25 05 21 23 29 09 15 30
  24092735.330    -3819700.459 7  -2967524.74145  24092740.018    24092747.7504
  22598926.745   -14559613.861 8 -11332195.40246  22598931.783    22598941.2744
  22350122.964   -14159462.005 8 -11016648.33146  22350124.544    22350134.0714
  20114637.158   -26131836.499 9 -20353651.66348  20114639.452    20114647.5424
  22246070.913   -14706512.738 8 -11449014.53846  22246073.278    22246083.2354
  20518653.626   -22848701.433 9 -17780618.94848  20518657.378    20518664.5794
  24529115.976     -263235.212 7     67624.39045  24529124.200    24529138.6974
  21837751.496   -13566880.898 8 -10546363.73947  21837754.237    21837763.7854
  22206158.483   -12878956.512 8 -10014171.96846  22206161.513    22206170.5374
 00  6 29  0  4  0.0000000  0  9 11 25 05 21 23 29 09 15 30
  24084940.874    -3860675.834 8  -2999453.60145  24084943.539    24084952.4154
  22583561.494   -14640364.253 8 -11395117.69346  22583565.769    22583574.4954
  22350997.262   -14154857.204 8 -11013060.15946  22351000.638    22351010.2644
  20115518.306   -26127199.970 9 -20350038.78048  20115521.835    20115529.8354
  22261211.803   -14626938.680 8 -11387008.85146  22261215.666    22261226.0364
  20517455.901   -22854999.578 9 -17785526.57748  20517458.749    20517466.1754
  24549812.154     -154495.748 7    152356.33845  24549817.665    24549829.6204
  21849012.369   -13507706.406 8 -10500253.77547  21849015.139    21849024.5194
  22193791.412   -12943940.431 8 -10064808.70646  22193795.294    22193803.9714
 00  6 29  0  4 30.0000000  0  9 11 25 05 21 23 29 09 15 30
  24077230.598    -3901155.796 7  -3030996.33045  24077240.051    24077249.9884
  22568248.570   -14720841.580 8 -11457827.19446  22568251.398    22568260.3764
  22351986.265   -14149679.596 8 -11009025.65846  22351985.347    22351995.2864
  20116504.609   -26122016.425 9 -20345999.65048  20116508.089    20116516.1814
  22276418.388   -14547023.217 8 -11324737.14646  22276422.931    22276432.4254
  20516297.563   -22861088.611 9 -17790271.26748  20516300.281    20516307.6574
  24570506.996      -45720.496 7    237116.16945  24570516.745    24570530.6434
  21860363.984   -13448044.065 8 -10453763.67147  21860368.017    21860377.8754
  22181509.007   -13008502.195 8 -10115116.50547  22181509.504    22181518.7894
 00  6 29  0  5  0.0000000  0  9 11 25 05 21 23 29 09 15 30
  24069630.675    -3941139.274 8  -3062152.22345  24069630.071    24069640.4354
  22552986.701   -14801045.021 8 -11520323.29646  22552988.934    22552997.9754
  22353076.686   -14143928.900 8 -11004544.56546  22353080.171    22353090.4664
  20117595.419   -26116285.742 9 -20341534.18348  20117598.445    20117606.8414
  22291689.915   -14466767.682 8 -11262200.44046  22291695.159    22291705.6034
  20515177.990   -22866968.144 9 -17794852.71248  20515181.303    20515188.8394
  24591223.973       63088.526 7    321902.30845  24591222.728    24591235.8324
  21871809.567   -13387896.630 8 -10406895.57847  21871813.630    21871823.0734
  22169299.676   -13072639.287 8 -10165093.38047  22169304.544    22169313.7724
 00  6 29  0  5 30.0000000  0  9 11 25 05 21 23 29 09 15 30
  24062107.524    -3980625.032 7  -3092920.29145  24062116.236    24062127.2664
  22537773.354   -14880973.341 8 -11582605.00346  22537778.781    22537788.3994
  22354282.870   -14137604.936 8 -10999616.79846  22354283.014    22354293.1754
  20118791.016   -26110006.442 9 -20336641.22548  20118793.501    20118801.7374
  22307027.513   -14386173.295 8 -11199399.69446  22307031.796    22307042.7184
  20514099.018   -22872638.185 9 -17799270.91648  20514102.297    20514109.5464
  24611929.602      171929.492 7    406713.33645  24611933.592    24611947.2894
  21883350.317   -13327266.842 8 -10359651.62747  21883350.965    21883361.1784
  22157181.224   -13136348.851 8 -10214737.10447  22157181.861    22157191.3164
 00  6 29  0  6  0.0000000  0  9 11 25 05 21 23 29 09 15 30
  24054697.799    -4019612.076 8  -3123299.75445  24054698.594    24054707.3804
  22522621.576   -14960625.337 8 -11644671.40946  22522621.708    22522630.5524
  22355593.483   -14130707.636 8 -10994242.26446  22355596.737    22355605.3644
  20120088.995   -26103177.361 9 -20331319.86548  20120093.064    20120101.3334
  22322433.964   -14305241.303 8 -11136335.89846  22322432.632    22322443.6994
  20513058.733   -22878098.396 9 -17803525.62248  20513063.173    20513070.6794
  24632647.764      280800.245 7    491547.61245  24632652.804    24632664.4124
  21894977.329   -13266157.582 8 -10312034.06847  21894979.752    21894989.8404
  22145135.755   -13199628.320 8 -10264045.69847  22145139.798    22145149.1244
 00  6 29  0  6 30.0000000  0  9 11 25 05 21 23 29 09 15 30
  24047374.478    -4058099.624 7  -3153290.00445  24047372.405    24047383.1514
  22507510.690   -15040000.396 8 -11706522.01746  22507516.727    22507525.2994
  22357013.519   -14123236.876 8 -10988420.88646  22357017.324    22357026.6124
  20121493.436   -26095797.940 9 -20325569.66848  20121497.270    20121505.5684
  22337894.087   -14223973.056 8 -11073010.07146  22337898.071    22337907.9544
  20512060.952   -22883348.529 9 -17807616.63048  20512064.172    20512071.6694
  24653361.639      389698.952 7    576403.63245  24653375.721    24653388.6694
  21906696.859   -13204571.392 8 -10264044.88847  21906699.795    21906709.6074
  22133174.862   -13262474.803 8 -10313016.90847  22133179.826    22133189.1574
 00  6 29  0  7  0.0000000  0  8 11 25 05 21 23 29 15 30
  24040138.759    -4096086.663 7  -3182890.20745  24040144.957    24040155.8784
  22492462.564   -15119097.303 8 -11768155.87246  22492465.630    22492474.2184
  22358547.124   -14115192.379 8 -10982152.42946  22358548.203    22358557.0264
  20123003.945   -26087867.775 9 -20319390.31948  20123006.372    20123014.6604
  22353423.649   -14142369.585 8 -11009423.03446  22353426.760    22353437.2564
  20511102.514   -22888388.419 9 -17811543.81548  20511105.243    20511112.5534
  21918505.968   -13142510.964 8 -10215686.16347  21918509.602    21918519.0874
  22121297.609   -13324885.736 8 -10361648.71547  22121303.728    22121312.9914
 00  6 29  0  7 30.0000000  0  8 11 25 05 21 23 29 15 30
  24033013.782    -4133572.123 8  -3212099.59245  24033011.800    24033022.8674
  22477463.640   -15197915.193 8 -11829572.30947  22477466.917    22477475.9014
  22360187.602   -14106574.188 8 -10975436.94546  22360188.785    22360197.2974
  20124617.385   -26079385.622 9 -20312780.85148  20124620.196    20124628.5984
  22369020.510   -14060432.322 8 -10945575.89746  22369018.681    22369029.0874
  20510182.763   -22893217.749 9 -17815306.92948  20510186.090    20510193.6114
  21930404.814   -13079979.212 8 -10166960.16847  21930408.497    21930418.2834
  22109510.399   -13386858.270 8 -10409938.91547  22109510.372    22109520.0834
 00  6 29  0  8  0.0000000  0  8 11 25 05 21 23 29 15 30
  24025966.000    -4170555.301 8  -3240917.56445  24025972.810    24025983.2134
  22462517.778   -15276452.686 8 -11890770.27347  22462521.624    22462530.1384
  22361936.382   -14097382.217 8 -10968274.35746  22361938.181    22361947.3574
  20126336.790   -26070350.870 9 -20305740.78848  20126339.453    20126347.7984
  22384672.513   -13978162.401 8 -10881469.54746  22384673.639    22384684.0104
  20509302.917   -22897836.472 9 -17818905.92948  20509307.001    20509314.6974
  21942394.709   -13016978.713 8 -10117868.91747  21942397.367    21942406.7744
  22097798.150   -13448389.903 8 -10457885.56047  22097801.532    22097810.8154
 00  6 29  0  8 30.0000000  0  8 11 25 05 21 23 29 15 30
  24019025.389    -4207035.120 7  -3269343.34345  24019030.716    24019042.3234
  22447624.828   -15354709.159 8 -11951749.25346  22447629.222    22447638.3134
  22363790.104   -14087616.602 8 -10960664.77446  22363795.449    22363806.4934
  20128161.112   -26060762.767 9 -20298269.54348  20128164.040    20128172.6614
  22400389.949   -13895561.047 8 -10817104.93546  22400392.891    22400403.5014
  20508464.515   -22902244.082 9 -17822340.43048  20508468.380    20508475.8864
  21954471.956   -12953512.295 8 -10068414.60347  21954474.658    21954484.4284
  22086171.615   -13509478.330 8 -10505486.85247  22086176.861    22086185.5694
 00  6 29  0  9  0.0000000  0  8 11 25 05 21 23 29 15 30
  24012182.362    -4243010.741 8  -3297376.22045  24012187.065    24012196.7764
  22432787.456   -15432683.736 8 -12012508.57047  22432791.688    22432800.2654
  22365755.307   -14077277.182 8 -10952608.06846  22365762.395    22365773.5344
  20130090.761   -26050620.633 9 -20290366.58948  20130093.847    20130102.7574
  22416174.900   -13812629.704 8 -10752483.17846  22416173.946    22416184.8364
  20507666.518   -22906440.676 9 -17825610.49948  20507669.992    20507677.2884
  21966638.083   -12889582.774 8 -10018599.45347  21966640.393    21966650.1454
  22074633.022   -13570120.553 8 -10552740.44347  22074636.635    22074645.4414
 00  6 29  0  9 30.0000000  0  8 11 25 05 21 23 29 15 30
  24005433.771    -4278481.307 8  -3325015.59445  24005437.198    24005447.3684
  22418007.086   -15510375.450 8 -12073047.47747  22418007.407    22418015.9194
  22367838.142   -14066364.042 8 -10944104.31646  22367839.866    22367850.4854
  20132127.325   -26039923.589 9 -20282031.23548  20132129.664    20132138.0014
  22432017.379   -13729369.626 8 -10687605.28746  22432018.249    22432028.3704
  20506907.064   -22910425.688 9 -17828715.70548  20506911.536    20506918.8104
  21978890.151   -12825193.311 8  -9968425.89747  21978893.751    21978903.3794
  22063179.369   -13630313.957 8 -10599644.30847  22063182.178    22063191.0764
 00  6 29  0 10  0.0000000  0  8 11 25 05 21 23 29 15 30
  23998777.694    -4313446.023 8  -3352260.73545  23998782.189    23998793.7224
  22403274.063   -15587783.624 8 -12133365.46347  22403276.875    22403285.0554
  22370024.093   -14054877.205 8 -10935153.53346  22370025.891    22370035.2224
  20134268.545   -26028671.207 9 -20273263.15148  20134271.022    20134279.3694
  22447916.920   -13645781.977 8 -10622472.13746  22447924.046    22447934.8944
  20506191.998   -22914198.877 9 -17831655.85348  20506193.514    20506200.8674
  21991229.550   -12760346.613 8  -9917896.05547  21991233.035    21991243.2254
  22051807.571   -13690056.186 8 -10646196.60547  22051813.765    22051822.9744
 00  6 29  0 10 30.0000000  0  8 11 25 05 21 23 29 15 30
  23992221.412    -4347903.978 7  -3379111.04545  23992225.371    23992235.5854
  22388598.382   -15664907.059 8 -12193461.55047  22388600.400    22388608.8394
  22372315.490   -14042816.807 8 -10925755.80546  22372320.574    22372330.7884
  20136513.850   -26016862.751 9 -20264061.76648  20136518.246    20136526.5164
  22463890.854   -13561868.265 8 -10557084.91146  22463893.002    22463903.6894
  20505512.266   -22917760.122 9 -17834430.84948  20505516.166    20505523.1794
  22003655.827   -12695045.541 8  -9867012.15547  22003659.259    22003669.4374
  22040531.005   -13749344.650 9 -10692395.31347  22040531.961    22040540.5504
 00  6 29  0 11  0.0000000  0  8 11 25 05 21 23 29 15 30
  23985761.284    -4381854.387 8  -3405565.86845  23985765.717    23985774.6624
  22373974.857   -15741744.179 8 -12253334.53147  22373978.604    22373988.3274
  22374720.078   -14030182.991 8 -10915911.27346  22374724.194    22374734.8824
  20138868.250   -26004497.569 9 -20254426.56348  20138871.111    20138879.3674
  22479922.525   -13477629.816 8 -10491444.65146  22479923.209    22479934.0664
  20504875.174   -22921109.112 9 -17837040.45348  20504878.854    20504886.0494
  22016169.554   -12629292.920 8  -9815776.40247  22016171.489    22016181.5214
  22029334.379   -13808176.455 8 -10738238.18947  22029336.031    22029344.4404
 00  6 29  0 11 30.0000000  0  8 11 25 05 21 23 29 15 30
  23979403.884    -4415296.496 8  -3431624.62645  23979401.190    23979411.4564
  22359410.368   -15818294.861 8 -12312984.32947  22359411.880    22359420.8594
  22377238.615   -14016975.917 8 -10905620.03246  22377238.396    22377248.4054
  20141327.088   -25991574.534 9 -20244356.67648  20141330.028    20141338.3864
  22496008.515   -13393067.831 8 -10425552.28646  22496014.370    22496025.4174
  20504278.626   -22924245.565 9 -17839484.43848  20504281.714    20504289.2954
  22028765.968   -12563091.600 8  -9764191.00347  22028769.739    22028779.5974
  22018226.744   -13866549.179 9 -10783723.34547  22018228.159    22018236.5564
 00  6 29  0 12  0.0000000  0  8 11 25 05 21 23 29 15 30
  23973126.662    -4448229.607 7  -3457286.77745  23973132.741    23973143.6184
  22344895.258   -15894558.356 8 -12372410.34447  22344899.631    22344908.5084
  22379859.897   -14003195.462 8 -10894882.01046  22379860.793    22379870.6344
  20143892.455   -25978093.821 9 -20233852.22748  20143895.414    20143903.5374
  22512163.954   -13308183.672 8 -10359408.87746  22512167.379    22512177.6224
  20503723.145   -22927169.160 9 -17841762.57248  20503725.523    20503732.8504
  22041450.575   -12496444.480 8  -9712258.23247  22041452.424    22041462.0124
  22007205.159   -13924460.431 9 -10828848.90947  22007208.138    22007216.5644
 00  6 29  0 12 30.0000000  0  8 11 25 05 21 23 29 15 30
  23966965.542    -4480652.792 8  -3482551.55245  23966964.228    23966975.0404
  22330439.911   -15970533.289 8 -12431611.50047  22330441.205    22330450.4094
  22382587.638   -13988841.961 8 -10883697.45446  22382591.812    22382602.0024
  20146563.573   -25964054.539 9 -20222912.53448  20146567.132    20146575.1014
  22528381.807   -13222978.965 8 -10293015.68946  22528381.897    22528391.8794
  20503207.841   -22929879.635 9 -17843874.62248  20503210.150    20503217.0624
  22054215.226   -12429354.602 8  -9659980.44047  22054219.357    22054228.3844
  21996274.145   -13981907.633 9 -10873612.87247  21996276.311    21996285.3994
 00  6 29  0 13  0.0000000  0  8 11 25 05 21 23 29 15 30
  23960889.808    -4512565.445 8  -3507418.50945  23960891.262    23960902.0944
  22316032.341   -16046218.732 8 -12490587.08047  22316038.375    22316047.9174
  22385428.115   -13973915.517 8 -10872066.46446  22385432.863    22385442.3434
  20149343.008   -25949456.170 9 -20211537.19048  20149345.040    20149353.2034
  22544650.868   -13137454.912 8 -10226373.66746  22544656.281    22544666.8134
  20502731.163   -22932376.927 9 -17845820.55848  20502734.342    20502741.9394
  22067067.938   -12361824.862 8  -9607359.91446  22067069.263    22067079.1264
  21985430.321   -14038888.239 9 -10918013.25047  21985432.885    21985442.0114
 00  6 29  0 13 30.0000000  0  8 11 25 05 21 23 29 15 30
  23954912.394    -4543966.757 8  -3531887.02945  23954915.268    23954924.8634
  22301690.971   -16121614.257 8 -12549336.73747  22301691.734    22301700.4864
  22388380.230   -13958416.474 8 -10859989.27646  22388381.927    22388391.4514
  20152225.099   -25934297.940 9 -20199725.58748  20152229.412    20152237.7684
  22560987.021   -13051613.059 8 -10159483.99146  22560991.672    22561002.0034
  20502297.451   -22934660.574 9 -17847600.01548  20502299.730    20502307.3634
  22079999.448   -12293858.007 8  -9554398.77747  22080002.830    22080013.1544
  21974672.740   -14095399.804 8 -10962048.15947  21974679.162    21974687.9364
 00  6 29  0 14  0.0000000  0  8 11 25 05 21 23 29 15 30
  23949034.233    -4574856.242 8  -3555956.74645  23949037.005    23949048.0814
  22287395.026   -16196718.602 8 -12607859.52147  22287399.918    22287408.2284
  22391436.305   -13942344.936 8 -10847465.99046  22391440.314    22391449.7004
  20155218.466   -25918579.677 9 -20187477.59748  20155220.903    20155228.9354
  22577376.433   -12965454.669 8 -10092347.68446  22577386.221    22577398.0934
  20501903.281   -22936730.321 9 -17849212.80748  20501906.078    20501913.3314
  22093016.501   -12225457.122 8  -9501099.44147  22093018.995    22093029.4144
  21964011.606   -14151439.942 8 -11005715.71847  21964014.886    21964023.7934
 00  6 29  0 14 30.0000000  0  8 11 25 05 21 23 29 15 30
  23943261.222    -4605233.143 8  -3579627.01645  23943258.143    23943268.3714
  22273160.648   -16271530.982 8 -12666154.80147  22273163.172    22273172.7674
  22394603.679   -13925701.069 8 -10834496.73246  22394607.538    22394617.6464
  20158316.705   -25902300.799 9 -20174792.76048  20158319.012    20158326.7224
  22593843.897   -12878981.182 8 -10024965.84146  22593842.152    22593853.5534
  20501549.123   -22938585.779 9 -17850658.61248  20501552.871    20501560.1824
  22106113.476   -12156625.034 8  -9447464.08846  22106117.251    22106127.6484
  21953438.902   -14207006.138 8 -11049013.94747  21953440.535    21953449.3834
 00  6 29  0 15  0.0000000  0  8 11 25 05 21 23 29 15 30
  23937567.368    -4635096.711 8  -3602897.31745  23937574.636    23937583.7904
  22258979.830   -16346050.953 8 -12724222.21947  22258982.362    22258992.2574
  22397879.193   -13908485.349 8 -10821081.89146  22397883.360    22397893.4074
  20161520.369   -25885460.291 9 -20161670.29048  20161523.477    20161531.4064
  22610355.767   -12792194.175 8  -9957339.67346  22610358.176    22610368.3214
  20501237.702   -22940226.677 9 -17851937.22348  20501240.610    20501247.8514
  22119296.596   -12087364.670 8  -9393495.01446  22119297.446    22119307.5144
  21942952.322   -14262095.814 8 -11091940.88847  21942957.223    21942966.0004
 00  6 29  0 15 30.0000000  0  8 11 25 05 21 23 29 15 30
  23931989.548    -4664446.379 8  -3625767.18645  23931990.296    23931999.0584
  22244851.432   -16420277.701 8 -12782061.15447  22244857.813    22244867.0194
  22401263.221   -13890698.115 8 -10807221.69846  22401267.712    22401277.8684
  20164832.620   -25868058.285 9 -20148110.28648  20164834.690    20164842.7474
  22626930.435   -12705095.001 8  -9889470.30046  22626931.852    22626942.1794
  20500966.862   -22941652.798 9 -17853048.48848  20500969.382    20500976.8134
  22132555.380   -12017679.230 8  -9339194.72146  22132558.401    22132567.8474
  21932560.566   -14316706.540 8 -11134494.64247  21932565.427    21932572.8084
 00  6 29  0 16  0.0000000  0  8 11 25 05 21 23 29 15 30
  23926503.559    -4693281.571 8  -3648236.14645  23926501.036    23926512.5934
  22230789.381   -16494209.587 8 -12839670.34947  22230788.981    22230797.7804
  22404760.788   -13872339.747 8 -10792916.48046  22404761.847    22404771.7214
  20168249.244   -25850094.545 9 -20134112.57148  20168253.027    20168261.4374
  22643562.689   -12617685.074 8  -9821358.76146  22643566.011    22643576.1314
  20500733.939   -22942863.955 9 -17853992.24048  20500738.712    20500746.2944
  22145895.739   -11947571.738 8  -9284565.54246  22145899.151    22145909.1384
  21922262.000   -14370836.149 9 -11176673.48447  21922264.721    21922272.4174
 00  6 29  0 16 30.0000000  0  8 11 25 05 21 23 29 15 30
  23921107.025    -4721601.802 8  -3670303.89145  23921113.166    23921123.5524
  22216770.064   -16567846.069 8 -12897049.33947  22216775.526    22216784.9784
  22408360.045   -13853410.466 8 -10778166.38646  22408363.459    22408372.8174
  20171775.767   -25831568.424 9 -20119676.63848  20171778.698    20171786.7834
  22660258.752   -12529965.971 8  -9753006.31246  22660257.761    22660269.0284
  20500546.615   -22943859.605 9 -17854768.06848  20500549.337    20500556.7334
  22159319.539   -11877045.219 8  -9229609.85446  22159320.756    22159329.8204
  21912055.720   -14424482.351 8 -11218475.64947  21912056.246    21912064.4674
 00  6 29  0 17  0.0000000  0  8 11 25 05 21 23 29 15 30
  23915822.944    -4749406.298 8  -3691969.74945  23915822.033    23915832.1604
  22202817.668   -16641186.426 8 -12954197.59347  22202820.030    22202828.5864
  22412074.708   -13833910.726 8 -10762971.77446  22412074.092    22412084.2714
  20175409.531   -25812479.512 9 -20104802.16248  20175411.318    20175419.3124
  22677003.147   -12441939.149 8  -9684414.08946  22677008.991    22677020.0214
  20500397.746   -22944639.652 9 -17855375.89848  20500400.746    20500408.2124
  22172819.329   -11806102.544 8  -9174329.87946  22172820.536    22172829.8504
  21901939.252   -14477642.275 9 -11259898.89347  21901940.439    21901948.8414
 00  6 29  0 17 30.0000000  0  8 11 25 05 21 23 29 15 30
  23910626.693    -4776694.781 8  -3713233.47045  23910629.112    23910639.0884
  22188916.555   -16714229.992 8 -13011114.58747  22188920.565    22188928.7384
  22415891.422   -13813840.811 8 -10747332.89446  22415893.498    22415903.3244
  20179146.469   -25792827.516 9 -20089488.91748  20179150.712    20179158.8504
  22693821.312   -12353606.102 8  -9615583.25246  22693818.852    22693829.4424
  20500288.356   -22945203.628 9 -17855815.35548  20500293.133    20500300.9914
  22186398.610   -11734746.533 8  -9118727.83746  22186398.616    22186408.8414
  21891914.572   -14530313.868 9 -11300941.62247  21891917.401    21891925.3524
 00  6 29  0 18  0.0000000  0  8 11 25 05 21 23 29 15 30
  23905540.271    -4803466.652 8  -3734094.68145  23905534.777    23905544.5124
  22175074.758   -16786976.285 8 -13067799.94547  22175077.499    22175085.7224
  22419816.866   -13793201.330 8 -10731250.15946  22419820.880    22419830.9004
  20182994.795   -25772611.966 9 -20073736.54548  20182997.638    20183005.9144
  22710677.230   -12264968.258 8  -9546514.88646  22710685.761    22710697.1554
  20500222.462   -22945551.249 9 -17856086.22648  20500226.752    20500235.0744
  22200052.534   -11662980.510 8  -9062806.30346  22200055.295    22200065.5254
  21881984.132   -14582494.774 9 -11341601.99047  21881987.644    21881995.7404
 00  6 29  0 18 30.0000000  0  8 11 25 05 21 23 29 15 30
  23900532.894    -4829721.486 8  -3754552.98245  23900538.369    23900548.8524
  22161287.821   -16859424.273 8 -13124252.84647  22161290.191    22161299.5784
  22423853.829   -13771992.625 8 -10714723.90646  22423857.092    22423867.7504
  20186948.122   -25751832.532 9 -20057544.78448  20186951.700    20186960.1104
  22727607.147   -12176027.092 8  -9477210.19246  22727610.066    22727620.9524
  20500198.456   -22945682.247 9 -17856188.30648  20500202.155    20500209.8674
  22213783.760   -11590807.591 8  -9006567.72246  22213789.275    22213799.6434
  21872146.851   -14634182.489 9 -11381878.06547  21872152.033    21872160.2324
 00  6 29  0 19  0.0000000  0  8 11 25 05 21 23 29 15 30
  23895635.155    -4855458.763 8  -3774608.01745  23895640.791    23895649.0884
  22147560.334   -16931572.906 8 -13180472.48847  22147561.063    22147570.1694
  22427997.622   -13750215.246 8 -10697754.50846  22428001.452    22428011.1394
  20191010.948   -25730489.188 9 -20040913.60948  20191013.257    20191021.7464
  22744589.108   -12086784.023 8  -9407670.22546  22744593.081    22744604.6884
  20500216.394   -22945596.175 9 -17856121.24048  20500218.586    20500226.3804
  22227597.074   -11518230.713 8  -8950014.35346  22227600.713    22227610.2544
  21862407.069   -14685375.135 9 -11421768.36147  21862410.110    21862418.3074
 00  6 29  0 19 30.0000000  0  8 11 25 05 21 23 29 15 30
  23890841.145    -4880678.084 8  -3794259.41445  23890841.171    23890851.2814
  22133887.135   -17003421.240 8 -13236458.13047  22133888.760    22133897.9114
  22432252.414   -13727869.484 8 -10680342.22246  22432254.084    22432263.7234
  20195177.252   -25708581.563 9 -20023842.73948  20195181.992    20195190.7304
  22761629.270   -11997240.757 8  -9337896.36846  22761632.366    22761643.4914
  20500270.726   -22945292.875 9 -17855884.89148  20500276.246    20500284.1074
  22241486.315   -11445252.920 8  -8893148.58646  22241488.288    22241498.0184
  21852760.161   -14736070.128 9 -11461270.86847  21852762.720    21852771.6924
 00  6 29  0 20  0.0000000  0  8 11 25 05 21 23 29 15 30
  23886137.604    -4905379.120 8  -3813506.94245  23886141.161    23886152.2184
  22120269.583   -17074968.989 8 -13292209.55447  22120274.035    22120282.2244
  22436612.210   -13704956.223 8 -10662487.73446  22436613.913    22436623.4724
  20199455.847   -25686109.746 9 -20006332.23648  20199458.291    20199466.5744
  22778728.006   -11907398.898 8  -9267889.84746  22778729.132    22778740.1264
  20500373.160   -22944771.920 9 -17855478.95048  20500375.354    20500383.1144
  22255443.433   -11371877.310 8  -8835972.83846  22255450.637    22255460.8074
  21843208.238   -14786265.313 9 -11500383.93347  21843211.250    21843219.9694
 00  6 29  0 20 30.0000000  0  8 11 25 05 21 23 29 15 30
  23881539.811    -4929561.234 8  -3832350.11645  23881539.588    23881549.8044
  22106711.961   -17146215.196 8 -13347726.01247  22106715.874    22106724.7124
  22441081.952   -13681475.868 8 -10644191.36346  22441081.253    22441091.6754
  20203837.751   -25663073.092 9 -19988381.59948  20203841.801    20203850.4924
  22795881.837   -11817259.911 8  -9197651.78846  22795882.720    22795892.7894
  20500512.490   -22944032.967 9 -17854903.14148  20500515.947    20500523.7154
  22269486.871   -11298106.940 8  -8778489.49246  22269488.908    22269498.7384
  21833752.105   -14835958.327 9 -11539105.70047  21833754.813    21833762.9204
 00  6 29  0 21  0.0000000  0  8 11 25 05 21 23 29 15 30
  23877032.537    -4953224.151 8  -3850788.78945  23877036.465    23877046.7424
  22093211.593   -17217159.477 8 -13403007.21247  22093215.609    22093224.2484
  22445654.660   -13657428.808 8 -10625453.39246  22445657.062    22445667.6184
  20208328.854   -25639471.327 9 -19969990.61948  20208332.997    20208341.7184
  22813084.974   -11726825.314 8  -9127183.37546  22813091.570    22813101.5634
  20500696.099   -22943075.726 9 -17854157.23848  20500698.458    20500705.9714
  22283597.925   -11223945.093 8  -8720701.08546  22283601.452    22283611.1804
  21824391.299   -14885147.073 9 -11577434.53247  21824394.177    21824402.7764
 00  6 29  0 21 30.0000000  0  8 11 25 05 21 23 29 15 30
  23872629.724    -4976367.310 8  -3868822.41045  23872632.413    23872642.8974
  22079771.238   -17287801.070 8 -13458052.53447  22079772.273    22079781.3564
  22450336.012   -13632815.766 8 -10606274.40346  22450341.385    22450351.3624
  20212927.896   -25615304.308 9 -19951159.17948  20212931.917    20212940.5394
  22830353.051   -11636096.598 8  -9056485.76146  22830356.827    22830366.9734
  20500917.792   -22941899.771 9 -17853240.91048  20500921.848    20500929.6934
  22297786.392   -11149394.701 8  -8662609.91446  22297787.921    22297797.6964
  21815128.920   -14933829.279 9 -11615368.65447  21815129.990    21815138.6294
 00  6 29  0 22  0.0000000  0  8 11 25 05 21 23 29 15 30
  23868324.674    -4998990.610 8  -3886450.89445  23868327.917    23868337.2634
  22066382.051   -17358138.657 8 -13512860.96747  22066388.033    22066396.8514
  22455126.808   -13607637.592 8 -10586655.03546  22455132.167    22455142.8444
  20217635.495   -25590572.262 9 -19931887.46648  20217638.279    20217647.0174
  22847680.411   -11545075.585 8  -8985560.41446  22847677.518    22847688.0374
  20501185.172   -22940504.865 9 -17852153.97148  20501187.069    20501195.0804
  22312040.429   -11074459.104 8  -8604218.59146  22312047.200    22312058.1044
  21805955.837   -14982002.598 9 -11652906.22847  21805962.681    21805971.7034
 00  6 29  0 22 30.0000000  0  8 11 25 05 21 23 29 15 30
  23864117.297    -5021093.628 8  -3903673.96345  23864121.399    23864131.4524
  22053060.226   -17428172.103 9 -13567432.41247  22053061.607    22053069.3654
  22460029.733   -13581894.757 8 -10566595.68246  22460031.685    22460041.4514
  20222449.154   -25565274.663 9 -19912175.05448  20222452.358    20222461.0664
  22865048.390   -11453763.616 8  -8914408.33646  22865053.471    22865063.3094
  20501489.999   -22938890.682 9 -17850896.16948  20501494.427    20501502.1494
  22326378.597   -10999141.579 8  -8545529.66646  22326379.744    22326390.8124
  21796888.716   -15029664.839 9 -11690045.56347  21796893.298    21796901.9954
 00  6 29  0 23  0.0000000  0  8 11 25 05 21 23 29 15 30
  23860007.686    -5042676.150 7  -3920491.45645  23860013.593    23860024.5764
  22039788.815   -17497900.473 9 -13621766.15247  22039792.964    22039800.4084
  22465035.236   -13555588.020 8 -10546096.92046  22465037.989    22465047.5154
  20227371.910   -25539411.870 9 -19892022.23148  20227374.110    20227382.7604
  22882482.616   -11362162.263 8  -8843030.75946  22882485.166    22882495.8984
  20501839.313   -22937056.777 9 -17849467.15548  20501843.178    20501851.3044
  22340782.554   -10923444.921 8  -8486545.32046  22340784.687    22340794.9394
  21787917.344   -15076813.884 9 -11726785.01147  21787921.375    21787929.0944
 00  6 29  0 23 30.0000000  0  8 11 25 05 21 23 29 15 30
  23856000.690    -5063737.770 7  -3936903.08445  23856005.246    23856016.5324
  22026578.885   -17567322.814 9 -13675861.42347  22026581.734    22026589.9704
  22470148.235   -13528718.129 8 -10525159.33646  22470150.565    22470160.8854
  20232400.190   -25512983.326 9 -19871428.56248  20232403.372    20232411.7174
  22899971.181   -11270273.259 8  -8771429.03746  22899970.177    22899981.7134
  20502230.202   -22935002.696 9 -17847866.56948  20502234.177    20502242.1894
  22355254.103   -10847372.296 8  -8427268.00546  22355261.221    22355271.5354
  21779045.381   -15123447.727 9 -11763123.01847  21779047.168    21779055.1324
 00  6 29  0 24  0.0000000  0  8 11 25 05 21 23 29 15 30
  23852092.431    -5084278.300 8  -3952908.66145  23852098.299    23852106.0484
  22013424.859   -17636438.929 9 -13729718.06347  22013429.069    22013437.7584
  22475369.211   -13501285.833 8 -10503783.51146  22475371.191    22475381.2634
  20237537.006   -25485989.220 9 -19850394.20348  20237540.221    20237548.5764
  22917502.012   -11178098.273 8  -8699604.47646  22917511.245    22917522.4274
  20502664.298   -22932728.201 9 -17846094.23848  20502667.148    20502674.8504
  22369807.288   -10770927.022 8  -8367700.31846  22369808.055    22369818.4754
  21770271.033   -15169564.242 9 -11799057.90147  21770271.733    21770279.7314
 00  6 29  0 24 30.0000000  0  8 11 25 05 21 23 29 15 30
  23848291.868    -5104297.706 8  -3968508.12145  23848288.278    23848297.8844
  22000333.287   -17705248.067 8 -13783335.50847  22000335.053    22000343.7074
  22480697.432   -13473291.753 8 -10481969.93646  22480698.050    22480708.1944
  20242782.097   -25458429.196 9 -19828918.86848  20242784.538    20242793.0174
  22935108.828   -11085638.875 8  -8627558.31046  22935105.770    22935117.0854
  20503138.376   -22930232.920 9 -17844149.85848  20503141.900    20503149.6204
  22384419.627   -10694112.214 8  -8307844.68646  22384424.993    22384434.9304
  21761590.551   -15215161.229 9 -11834587.95747  21761594.304    21761602.6404
 00  6 29  0 25  0.0000000  0  8 11 25 05 21 23 29 15 30
  23844568.811    -5123795.634 8  -3983701.26945  23844578.643    23844587.9164
  21987297.483   -17773749.587 9 -13836713.24047  21987299.491    21987308.0334
  22486130.277   -13444736.618 8 -10459719.18646  22486131.756    22486142.0954
  20248132.882   -25430303.522 9 -19807002.76248  20248136.640    20248145.0454
  22952755.398   -10992896.821 8  -8555291.90346  22952753.397    22952766.6404
  20503655.670   -22927516.477 9 -17842033.14648  20503658.745    20503666.6194
  22399110.858   -10616931.060 8  -8247703.58346  22399112.303    22399122.5244
  21753013.012   -15260236.750 9 -11869711.68847  21753016.787    21753024.5384
 00  6 29  0 25 30.0000000  0  8 11 25 05 21 23 29 15 30
  23840966.839    -5142771.851 8  -3998487.85945  23840967.770    23840976.4354
  21974319.670   -17841942.749 8 -13889850.71147  21974323.004    21974330.5254
  22491670.437   -13415621.109 8 -10437031.78246  22491672.433    22491682.3664
  20253594.963   -25401612.212 9 -19784645.90248  20253596.730    20253604.9234
  22970450.177   -10899873.673 8  -8482806.47746  22970455.950    22970467.6824
  20504214.715   -22924578.520 9 -17839743.82648  20504217.972    20504225.8234
  22413864.881   -10539386.666 8  -8187279.42946  22413869.138    22413878.9904
  21744536.257   -15304788.557 9 -11904427.32047  21744538.773    21744546.7754
 00  6 29  0 26  0.0000000  0  8 11 25 05 21 23 29 15 30
  23837448.433    -5161226.310 8  -4012867.88345  23837454.926    23837465.7194
  21961401.628   -17909826.929 8 -13942747.41347  21961404.577    21961412.9994
  22497313.494   -13385946.219 8 -10413908.49646  22497319.707    22497328.8374
  20259161.344   -25372355.178 9 -19761848.22048  20259163.995    20259172.0684
  22988213.616   -10806571.012 8  -8410103.21546  22988211.415    22988221.9864
  20504816.100   -22921418.687 9 -17837281.61348  20504819.529    20504827.2404
  22428693.219   -10461482.297 8  -8126574.78146  22428694.211    22428703.6504
  21736157.992   -15348814.818 9 -11938733.43947  21736160.766    21736169.2274
 00  6 29  0 26 30.0000000  0  8 11 25 05 21 23 29 15 30
  23834042.632    -5179158.764 8  -4026841.18045  23834042.340    23834051.6064
  21948542.438   -17977401.464 8 -13995402.82147  21948545.733    21948554.3164
  22503070.599   -13355712.973 8 -10390350.10746  22503073.321    22503081.5074
  20264836.178   -25342532.701 9 -19738609.93348  20264838.834    20264847.2164
  23006013.360   -10712990.510 8  -8337183.44446  23006018.569    23006029.5294
  20505460.582   -22918036.785 9 -17834646.36048  20505462.941    20505470.8734
  22443583.716   -10383220.958 8  -8065591.99346  22443586.028    22443596.9184
  21727879.666   -15392313.339 9 -11972628.34947  21727883.144    21727891.3704
 00  6 29  0 27  0.0000000  0  8 11 25 05 21 23 29 15 30
  23830724.200    -5196569.234 8  -4040407.73645  23830729.143    23830739.1964
  21935745.027   -18044666.155 9 -14047816.79947  21935746.052    21935754.0784
  22508931.348   -13324921.948 8 -10366357.11046  22508931.811    22508940.9924
  20270618.970   -25312144.435 9 -19714930.78048  20270621.488    20270629.8754
  23023872.579   -10619133.789 8  -8264048.45046  23023879.008    23023890.7144
  20506145.097   -22914432.052 9 -17831837.46848  20506148.615    20506156.7694
  22458543.878   -10304605.977 8  -8004333.62946  22458545.655    22458556.5104
  21719701.045   -15435282.195 9 -12006110.52147  21719706.685    21719715.1604
 00  6 29  0 27 30.0000000  0  8 11 25 05 21 23 29 15 30
  23827520.337    -5213457.480 8  -4053567.40245  23827515.164    23827525.7024
  21923001.068   -18111619.673 9 -14099988.31947  21923005.013    21923012.7554
  22514892.002   -13293574.175 8 -10341930.25446  22514897.399    22514906.7494
  20276509.709   -25281190.773 9 -19690811.05248  20276511.708    20276520.3504
  23041792.016   -10525002.666 8  -8190699.65046  23041791.570    23041802.4284
  20506873.677   -22910604.472 9 -17828854.93848  20506877.164    20506884.8294
  22473568.875   -10225640.488 8  -7942802.14546  22473572.598    22473583.5794
  21711632.068   -15477719.293 9 -12039178.33747  21711631.501    21711639.5264
 00  6 29  0 28  0.0000000  0  8 11 25 05 21 23 29 15 30
  23824394.936    -5229823.387 8  -4066320.02445  23824400.514    23824411.4804
  21910320.817   -18178261.380 9 -14151916.85747  21910323.555    21910331.3784
  22520965.853   -13261670.409 8 -10317070.19346  22520969.083    22520978.5604
  20282507.366   -25249671.741 9 -19666250.78048  20282509.886    20282518.2374
  23059755.455   -10430598.890 8  -8117138.37046  23059755.945    23059767.4264
  20507645.576   -22906553.292 9 -17825698.17248  20507647.967    20507655.7124
  22488663.226   -10146327.911 8  -7881000.20046  22488665.835    22488675.7784
  21703652.172   -15519622.852 9 -12071830.41747  21703657.140    21703665.4424
 00  6 29  0 28 30.0000000  0  8 11 25 05 21 23 29 15 30
  23821384.983    -5245667.096 7  -4078665.72545  23821386.295    23821396.8454
  21897699.059   -18244591.225 9 -14203602.38747  21897701.030    21897709.1264
  22527143.340   -13229211.666 8 -10291777.65846  22527145.153    22527154.7754
  20288612.530   -25217588.069 9 -19641250.52748  20288614.983    20288623.4154
  23077765.372   -10335924.207 8  -8043366.01046  23077772.348    23077783.8304
  20508458.360   -22902278.345 9 -17822367.04348  20508461.603    20508469.5034
  22503823.345   -10066671.559 8  -7818930.38946  22503824.344    22503834.7464
  21695782.622   -15560991.042 9 -12104065.32747  21695784.751    21695792.8754
 00  6 29  0 29  0.0000000  0  8 11 25 05 21 23 29 15 30
  23818466.281    -5260988.624 7  -4090604.53945  23818469.590    23818481.4104
  21885135.845   -18310608.583 9 -14255044.42547  21885138.106    21885146.4724
  22533423.273   -13196198.962 8 -10266053.47146  22533427.091    22533437.0674
  20294825.795   -25184939.410 9 -19615810.03048  20294827.907    20294836.4494
  23095845.465   -10240980.257 8  -7969383.84346  23095839.829    23095851.3194
  20509314.021   -22897779.311 9 -17818861.30748  20509317.643    20509325.5794
  22519041.294    -9986674.533 8  -7756595.09946  22519046.411    22519056.8954
  21688014.082   -15601821.735 9 -12135881.40647  21688015.069    21688023.2054
 00  6 29  0 29 30.0000000  0  8 11 25 05 21 23 29 15 30
  23815655.156    -5275787.885 8  -4102136.44245  23815653.820    23815664.4004
  21872630.159   -18376312.751 9 -14306242.41547  21872634.457    21872643.4074
  22539812.392   -13162633.070 8 -10239898.23646  22539814.143    22539824.4494
  20301144.596   -25151726.064 9 -19589929.51348  20301148.245    20301156.8354
  23113951.865   -10145768.748 8  -7895193.18546  23113957.879    23113969.0554
  20510213.167   -22893055.686 9 -17815180.55548  20510216.419    20510224.3564
  22534330.981    -9906340.045 8  -7693996.89446  22534333.106    22534344.4224
  21680348.101   -15642112.900 9 -12167277.06847  21680347.539    21680355.8204
 00  6 29  0 30  0.0000000  0  8 11 25 05 21 23 29 15 30
  23812931.831    -5290064.838 8  -4113261.35245  23812937.374    23812947.8864
  21860186.795   -18441702.999 9 -14357195.78047  21860191.659    21860200.2184
  22546303.388   -13128515.137 8 -10213312.82846  22546307.044    22546316.9844
  20307573.330   -25117948.238 9 -19563609.14348  20307576.015    20307584.6594
  23132128.155   -10050291.407 8  -7820795.38446  23132127.335    23132138.3614
  20511155.310   -22888107.016 9 -17811324.44348  20511158.568    20511166.1444
  22549683.005    -9825671.265 8  -7631138.16346  22549685.464    22549695.2644
  21672781.725   -15681862.910 9 -12198251.06047  21672783.531    21672791.9214
 00  6 29  0 30 30.0000000  0  8 11 25 05 21 23 29 15 30
  23810321.047    -5303819.698 8  -4123979.41645  23810320.695    23810330.1504
  21847806.510   -18506779.065 9 -14407904.34247  21847808.226    21847816.7054
  22552905.147   -13093846.327 8 -10186298.18346  22552904.662    22552913.8624
  20314108.081   -25083606.164 9 -19536849.10248  20314111.378    20314119.6734
  23150342.474    -9954550.025 8  -7746191.82246  23150345.741    23150357.1244
  20512138.404   -22882933.104 9 -17807292.82348  20512142.935    20512150.7554
  22565096.813    -9744671.444 8  -7568021.48246  22565098.522    22565109.1544
  21665317.553   -15721069.621 9 -12228801.69647  21665322.473    21665331.3624
 00  6 29  0 31  0.0000000  0  8 11 25 05 21 23 29 15 30
  23807800.702    -5317052.287 8  -4134290.52545  23807802.033    23807811.6924
  21835480.467   -18571540.326 9 -14458367.60047  21835484.911    21835492.4874
  22559603.110   -13058627.693 8 -10158855.09246  22559606.295    22559615.0134
  20320751.088   -25048700.104 9 -19509649.59148  20320753.613    20320761.8394
  23168609.268    -9858546.116 8  -7671383.68146  23168615.206    23168626.1564
  20513167.956   -22877533.287 9 -17803085.16148  20513170.430    20513178.3534
  22580571.337    -9663343.950 8  -7504649.47446  22580574.347    22580585.5674
  21657964.144   -15759731.549 9 -12258927.83047  21657965.354    21657974.1124
 00  6 29  0 31 30.0000000  0  8 11 25 05 21 23 29 15 30
  23805382.743    -5329762.950 8  -4144194.93045  23805383.873    23805393.5244
  21823217.434   -18635986.113 9 -14508585.04547  21823220.555    21823228.8644
  22566409.535   -13022860.059 8 -10130984.21046  22566412.262    22566421.1614
  20327499.619   -25013230.247 9 -19482010.75348  20327503.076    20327511.3814
  23186930.693    -9762281.500 8  -7596372.40845  23186933.916    23186945.7224
  20514238.533   -22871907.359 9 -17798701.31948  20514241.108    20514248.6294
  22596111.664    -9581692.007 8  -7441024.66846  22596112.265    22596122.6674
  21650709.860   -15797846.685 9 -12288627.89747  21650712.383    21650721.2404
 00  6 29  0 32  0.0000000  0  8 11 25 05 21 23 29 15 30
  23803063.386    -5341951.641 8  -4153692.62545  23803063.850    23803073.6404
  21811015.756   -18700115.841 9 -14558556.20047  21811017.420    21811025.7564
  22573320.343   -12986544.659 8 -10102686.50746  22573323.040    22573332.5974
  20334356.455   -24977197.234 9 -19453933.09047  20334360.008    20334368.2684
  23205301.599    -9665758.158 8  -7521159.52145  23205301.361    23205312.4674
  20515350.896   -22866054.821 9 -17794140.89448  20515354.728    20515362.1804
  22611708.213    -9499719.112 8  -7377149.75946  22611711.016    22611721.8624
  21643560.371   -15835413.489 9 -12317900.69247  21643563.952    21643572.1234
 00  6 29  0 32 30.0000000  0  8 11 25 05 21 23 29 15 30
  23800846.037    -5353618.451 8  -4162783.64645  23800842.959    23800853.1704
  21798871.991   -18763929.209 9 -14608280.84347  21798874.053    21798882.2904
  22580334.081   -12949682.449 8 -10073962.72246  22580337.950    22580346.5584
  20341322.168   -24940600.972 9 -19425416.53847  20341324.247    20341332.3904
  23223713.471    -9568977.700 8  -7445746.31545  23223718.413    23223729.9654
  20516508.120   -22859975.314 9 -17789403.60448  20516511.933    20516519.0574
  22627367.590    -9417428.250 8  -7313027.08346  22627371.186    22627381.1514
  21636514.563   -15872429.886 9 -12346744.59247  21636519.837    21636528.0244
 00  6 29  0 33  0.0000000  0  8 11 25 05 21 23 29 15 30
  23798717.255    -5364763.616 7  -4171468.24245  23798721.905    23798732.4584
  21786787.959   -18827425.551 9 -14657758.45047  21786791.286    21786799.1484
  22587455.313   -12912274.724 8 -10044813.84946  22587455.891    22587465.2874
  20348394.140   -24903442.298 9 -19396461.74347  20348395.429    20348403.3654
  23242185.432    -9471941.890 8  -7370134.11645  23242184.113    23242194.4154
  20517708.889   -22853668.466 9 -17784489.16848  20517711.845    20517719.2424
  22643089.686    -9334822.607 8  -7248659.11646  22643091.241    22643100.3134
  21629579.415   -15908894.074 9 -12375158.21247  21629580.980    21629589.0204
 00  6 29  0 33 30.0000000  0  8 11 25 05 21 23 29 15 30
  23796696.869    -5375387.270 7  -4179746.44745  23796700.928    23796711.6124
  21774764.270   -18890604.365 9 -14706988.64047  21774768.187    21774776.3654
  22594675.691   -12874322.577 8 -10015240.76746  22594678.261    22594688.2774
  20355569.983   -24865721.424 9 -19367068.87247  20355573.005    20355581.4644
  23260693.859    -9374652.600 8  -7294324.40746  23260697.222    23260709.3734
  20518952.475   -22847133.622 9 -17779397.07848  20518955.520    20518962.7604
  22658867.064    -9251905.746 8  -7184048.64446  22658869.247    22658879.3624
  21622745.501   -15944804.700 9 -12403140.48547  21622747.521    21622755.0474
 00  6 29  0 34  0.0000000  0  8 11 25 05 21 23 29 15 30
  23794782.274    -5385489.641 8  -4187618.44745  23794780.192    23794788.7064
  21762803.580   -18953465.470 9 -14755971.26547  21762806.112    21762814.0254
  22601998.436   -12835827.073 8  -9985244.29046  22602002.731    22602013.0734
  20362856.075   -24827438.726 9 -19337238.21447  20362858.030    20362866.5704
  23279255.679    -9277111.693 8  -7218318.64345  23279258.566    23279270.5124
  20520239.540   -22840370.591 9 -17774127.17348  20520242.628    20520249.8654
  22674698.767    -9168681.003 8  -7119198.28546  22674705.997    22674717.0034
  21616014.813   -15980159.791 9 -12430689.87247  21616019.349    21616027.1984
 00  6 29  0 34 30.0000000  0  8 11 25 05 21 23 29 15 30
  23792950.363    -5395070.782 8  -4195084.30245  23792956.479    23792965.5784
  21750901.299   -19016008.341 9 -14804705.91647  21750904.426    21750912.6254
  22609426.989   -12796789.303 8  -9954825.24346  22609431.826    22609442.0354
  20370247.111   -24788594.344 9 -19306969.87947  20370250.108    20370258.3974
  23297866.078    -9179321.034 8  -7142118.25345  23297867.376    23297878.6664
  20521569.100   -22833378.929 9 -17768679.10948  20521572.717    20521580.3504
  22690603.884    -9085151.800 8  -7054110.67846  22690601.214    22690612.1974
  21609393.388   -16014957.741 9 -12457805.12347  21609397.673    21609405.4654
 00  6 29  0 35  0.0000000  0  8 11 25 05 21 23 29 15 30
  23791233.293    -5404131.177 8  -4202144.37645  23791232.800    23791240.8684
  21739061.219   -19078232.328 9 -14853192.08847  21739063.560    21739072.2324
  22616960.233   -12757210.625 8  -9923984.73746  22616963.980    22616973.4374
  20377746.525   -24749189.337 9 -19276264.69647  20377748.991    20377757.1554
  23316519.759    -9081282.304 8  -7065724.55245  23316524.465    23316534.5704
  20522943.947   -22826158.140 9 -17763052.51448  20522947.007    20522954.0464
  22706547.931    -9001321.033 8  -6988788.07146  22706553.993    22706564.9154
  21602880.376   -16049196.826 9 -12484484.89547  21602882.132    21602889.9794
 00  6 29  0 35 30.0000000  0  8 11 25 05 21 23 29 15 30
  23789599.083    -5412671.100 8  -4208798.86045  23789607.015    23789615.7704
  21727279.680   -19140137.152 9 -14901429.55247  21727284.032    21727292.1044
  22624597.943   -12717092.357 8  -9892723.75146  22624598.145    22624607.1474
  20385350.775   -24709223.857 9 -19245122.77747  20385353.828    20385362.4514
  23335224.964    -8982997.263 8  -6989138.92945  23335227.040    23335239.3304
  20524361.312   -22818707.916 9 -17757247.13648  20524364.744    20524371.9254
  22722560.054    -8917191.913 8  -6923232.98146  22722563.624    22722573.8704
  21596467.796   -16082875.388 9 -12510727.90247  21596472.812    21596480.8324
 00  6 29  0 36  0.0000000  0  8 11 25 05 21 23 29 15 30
  23788079.980    -5420690.626 8  -4215047.89945  23788080.391    23788090.2454
  21715560.428   -19201722.089 9 -14949417.77347  21715565.036    21715572.4544
  22632331.996   -12676435.636 8  -9861043.21046  22632334.948    22632344.7184
  20393062.631   -24668698.755 9 -19213544.79847  20393065.366    20393074.1294
  23353979.582    -8884467.835 8  -6912362.87445  23353976.600    23353987.7904
  20525823.142   -22811027.814 9 -17751262.63148  20525826.299    20525833.4164
  22738627.720    -8832767.836 8  -6857448.07346  22738628.653    22738639.2574
  21590168.274   -16115991.903 9 -12536532.94247  21590170.817    21590179.0314
 00  6 29  0 36 30.0000000  0  8 11 25 05 21 23 29 15 30
  23786647.198    -5428190.317 8  -4220891.82345  23786653.774    23786664.2874
  21703902.610   -19262986.944 9 -14997156.56247  21703906.242    21703914.3934
  22640168.633   -12635241.571 8  -9828943.95946  22640173.265    22640183.0594
  20400879.464   -24627614.043 9 -19181530.75747  20400883.586    20400892.3694
  23372767.951    -8785695.862 8  -6835397.84345  23372772.812    23372784.9444
  20527329.023   -22803117.100 9 -17745098.43748  20527331.747    20527338.5884
  22754742.695    -8748052.297 8  -6791436.04646  22754749.037    22754760.4594
  21583973.480   -16148544.969 9 -12561898.93247  21583976.329    21583984.6294
 00  6 29  0 37  0.0000000  0  8 11 25 05 21 23 29 15 30
  23785321.307    -5435170.316 8  -4226330.79345  23785325.774    23785334.9024
  21692306.253   -19323931.033 9 -15044645.40947  21692308.797    21692317.2184
  22648112.192   -12593511.773 8  -9796427.24346  22648114.891    22648124.6244
  20408805.949   -24585970.457 9 -19149081.22747  20408808.366    20408816.6644
  23391612.050    -8686683.148 8  -6758245.23545  23391612.853    23391626.6624
  20528877.479   -22794975.648 9 -17738754.44448  20528880.734    20528888.2444
  22770921.890    -8663048.538 8  -6725199.43846  22770925.361    22770935.8474
  21577885.394   -16180532.638 9 -12586824.35947  21577889.296    21577897.5244
 00  6 29  0 37 30.0000000  0  8 11 25 05 21 23 29 15 30
  23784094.680    -5441631.164 7  -4231365.21745  23784094.927    23784104.8544
  21680768.971   -19384554.045 9 -15091884.04947  21680772.270    21680781.1264
  22656155.898   -12551247.477 8  -9763494.03946  22656156.936    22656166.7554
  20416834.665   -24543768.477 9 -19116196.58447  20416838.801    20416847.4284
  23410484.857    -8587431.645 7  -6680906.52845  23410499.805    23410513.6034
  20530471.389   -22786602.966 9 -17732230.26448  20530473.952    20530481.6504
  22787150.262    -8577759.929 8  -6658740.85846  22787155.783    22787165.3244
  21571906.462   -16211953.686 9 -12611308.25847  21571909.528    21571918.4124
 00  6 29  0 38  0.0000000  0  8 11 25 05 21 23 29 15 30
  23782960.779    -5447573.007 7  -4235995.26245  23782964.449    23782973.9294
  21669292.536   -19444855.763 9 -15138872.34147  21669297.554    21669305.7674
  22664297.070   -12508449.806 8  -9730145.24046  22664301.478    22664309.9964
  20424972.064   -24501008.984 9 -19082877.51347  20424975.753    20424984.4034
  23429437.068    -8487943.147 8  -6603383.20945  23429432.660    23429446.2154
  20532107.014   -22777998.512 9 -17725525.49548  20532111.421    20532118.9594
  22803435.131    -8492189.733 8  -6592062.85146  22803438.259    22803448.9644
  21566035.858   -16242806.547 9 -12635349.41447  21566038.983    21566047.2764
 00  6 29  0 38 30.0000000  0  8 11 25 05 21 23 29 15 30
  23781926.465    -5452996.430 8  -4240221.33645  23781932.771    23781942.9654
  21657880.450   -19504835.224 9 -15185609.54747  21657883.575    21657891.2204
  22672543.385   -12465120.128 8  -9696381.88846  22672546.723    22672555.9854
  20433214.867   -24457692.508 9 -19049124.43347  20433218.606    20433227.0254
  23448402.913    -8388219.505 8  -6525676.60345  23448409.832    23448422.0284
  20533789.937   -22769161.977 9 -17718639.88048  20533792.966    20533800.3884
  22819774.008    -8406341.202 8  -6525167.98546  22819774.949    22819785.8624
  21560275.917   -16273089.531 9 -12658946.51947  21560276.521    21560283.9094
 00  6 29  0 39  0.0000000  0  8 11 25 05 21 23 29 15 30
  23780990.316    -5457901.801 7  -4244043.71345  23780998.408    23781008.4404
  21646529.975   -19564492.398 9 -15232095.61247  21646531.356    21646539.4114
  22680890.676   -12421260.171 8  -9662205.32146  22680893.669    22680902.1244
  20441566.352   -24413819.856 9 -19014937.97547  20441567.494    20441575.6894
  23467419.255    -8288262.575 7  -6447788.22445  23467431.706    23467444.4114
  20535516.362   -22760092.718 9 -17711572.92448  20535518.871    20535526.3664
  22836157.736    -8320217.866 8  -6458058.97546  22836163.977    22836175.3934
  21554616.955   -16302801.469 9 -12682098.65547  21554622.387    21554630.6384
 00  6 29  0 39 30.0000000  0  8 11 25 05 21 23 29 15 30
  23780163.099    -5462289.579 8  -4247462.75145  23780165.480    23780173.7264
  21635238.268   -19623826.975 9 -15278330.30247  21635240.080    21635248.1104
  22689338.509   -12376871.142 8  -9627616.48046  22689340.217    22689350.6844
  20450019.085   -24369391.430 9 -18980318.44447  20450021.894    20450030.3144
  23486502.789    -8188074.344 8  -6369719.62345  23486495.900    23486508.7544
  20537286.444   -22750790.481 9 -17704324.42948  20537289.017    20537296.1794
  22852607.828    -8233822.845 8  -6390738.26546  22852604.778    22852616.0864
  21549071.885   -16331940.575 9 -12704804.41647  21549077.207    21549085.5804
 00  6 29  0 40  0.0000000  0  8 11 25 05 21 23 29 15 30
  23779429.731    -5466160.452 8  -4250479.02445  23779427.706    23779437.1454
  21624007.825   -19682838.760 9 -15324313.45847  21624011.038    21624018.9294
  22697884.183   -12331954.344 8  -9592616.42546  22697887.421    22697897.7884
  20458579.066   -24324407.533 9 -18945266.07047  20458581.910    20458590.2584
  23505599.424    -8087656.657 8  -6291472.21945  23505605.162    23505617.7224
  20539100.573   -22741254.876 9 -17696894.08248  20539103.710    20539110.7784
  22869090.804    -8147159.488 8  -6323208.46346  22869095.915    22869107.2574
  21543637.309   -16360505.711 9 -12727062.93047  21543641.613    21543649.5594
 00  6 29  0 40 30.0000000  0  8 11 25 05 21 23 29 15 30
  23778785.109    -5469514.620 8  -4253092.66045  23778788.784    23778799.1654
  21612840.461   -19741526.880 9 -15370044.40947  21612842.930    21612850.8714
  22706535.519   -12286511.223 8  -9557206.19346  22706535.254    22706544.9964
  20467243.225   -24278869.506 9 -18909781.90647  20467247.446    20467256.2464
  23524755.913    -7987011.277 7  -6213047.39845  23524758.075    23524770.2674
  20540960.439   -22731485.275 9 -17689281.40948  20540962.975    20540969.8934
  22885630.696    -8060231.211 8  -6255472.23246  22885637.468    22885649.0274
  21538311.389   -16388495.572 9 -12748873.18147  21538315.520    21538323.3154
 00  6 29  0 41  0.0000000  0  8 11 25 05 21 23 29 15 30
  23778244.218    -5472352.437 8  -4255303.93545  23778249.830    23778260.0564
  21601734.248   -19799891.222 9 -15415523.07547  21601736.328    21601744.0784
  22715282.116   -12240543.226 8  -9521387.01246  22715282.510    22715293.5104
  20476014.281   -24232777.986 9 -18873866.45747  20476018.470    20476026.8824
  23543940.289    -7886140.300 7  -6134446.77845  23543953.380    23543965.8614
  20542863.183   -22721481.307 9 -17681486.10948  20542866.655    20542873.4694
  22902230.521    -7973041.376 8  -6187532.22046  22902229.869    22902240.1654
  21533094.792   -16415908.632 9 -12770233.97947  21533098.961    21533106.6954
 00  6 29  0 41 30.0000000  0  8 11 25 05 21 23 29 15 30
  23777806.264    -5474674.564 7  -4257113.37845  23777807.466    23777817.8774
  21590688.640   -19857931.438 9 -15460749.16547  21590691.635    21590699.6654
  22724128.177   -12194052.007 8  -9485160.11646  22724129.983    22724140.2654
  20484891.330   -24186133.365 9 -18837520.01747  20484894.829    20484903.2864
  23563192.752    -7785045.646 7  -6055671.94045  23563190.229    23563203.8634
  20544811.417   -22711242.604 9 -17673507.89448  20544814.851    20544821.9074
  22918869.560    -7885593.412 8  -6119391.01446  22918870.859    22918881.3864
  21527989.121   -16442743.389 9 -12791144.14247  21527992.469    21528000.6164
 00  6 29  0 42  0.0000000  0  8 11 25 05 21 23 29 15 30
  23777462.817    -5476481.781 8  -4258521.60545  23777463.970    23777473.7224
  21579703.773   -19915647.223 9 -15505722.44947  21579708.405    21579716.7744
  22733075.475   -12147038.963 8  -9448526.59446  22733075.980    22733086.1034
  20493872.859   -24138937.082 9 -18800743.71447  20493875.999    20493884.3384
  23582476.101    -7683729.281 7  -5976724.29345  23582470.905    23582482.5214
  20546805.720   -22700768.464 9 -17665346.22848  20546807.991    20546815.1354
  22935556.615    -7797890.602 8  -6051051.24346  22935559.988    22935570.4294
  21522990.593   -16468998.621 9 -12811602.73847  21522995.503    21523004.2464
 00  6 29  0 42 30.0000000  0  8 11 25 05 21 23 29 15 30
  23777218.571    -5477774.658 8  -4259529.03445  23777217.688    23777227.5814
  21568782.973   -19973038.680 9 -15550443.01747  21568787.210    21568795.3504
  22742117.446   -12099505.643 8  -9411487.67846  22742120.688    22742131.0764
  20502959.614   -24091189.231 9 -18763537.62647  20502962.096    20502970.3904
  23601784.363    -7582193.115 7  -5897605.38045  23601792.792    23601805.1064
  20548842.626   -22690058.670 9 -17657000.93548  20548845.774    20548853.0164
  22952287.811    -7709936.301 8  -5982515.51946  22952295.286    22952308.4714
  21518107.907   -16494672.987 9 -12831608.70247  21518109.775    21518118.2164
 00  6 29  0 43  0.0000000  0  8 11 25 05 21 23 29 15 30
  23777063.323    -5478553.792 8  -4260136.14345  23777070.058    23777078.8024
  21557925.063   -20030104.856 9 -15594910.11147  21557927.980    21557935.5694
  22751261.040   -12051453.426 8  -9374044.42546  22751264.949    22751274.1044
  20512150.171   -24042891.121 9 -18725902.75447  20512153.158    20512161.3674
  23621151.432    -7480439.084 7  -5818316.71945  23621155.379    23621168.3514
  20550925.489   -22679112.639 9 -17648471.56348  20550928.655    20550936.0384
  22969078.484    -7621733.774 8  -5913786.40146  22969081.607    22969093.2314
  21513333.352   -16519765.262 9 -12851161.09647  21513335.422    21513343.1674
 00  6 29  0 43 30.0000000  0  8 11 25 05 21 23 29 15 30
  23777014.915    -5478819.872 7  -4260343.47645  23777018.418    23777026.6554
  21547125.731   -20086845.834 9 -15639123.80947  21547130.420    21547138.4654
  22760504.242   -12002883.956 8  -9336198.10846  22760507.880    22760516.9254
  20521444.784   -23994043.389 9 -18687839.60747  20521448.418    20521456.8214
  23640552.814    -7378469.215 7  -5738859.86145  23640559.869    23640572.8864
  20553053.902   -22667929.883 9 -17639757.73148  20553056.541    20553064.1464
  22985907.992    -7533286.442 8  -5844866.48046  22985913.200    22985923.9454
  21508667.907   -16544274.237 9 -12870258.96747  21508671.860    21508679.1504
 00  6 29  0 44  0.0000000  0  8 11 25 05 21 23 29 15 30
  23777061.620    -5478573.531 8  -4260151.50445  23777066.378    23777075.9974
  21536391.786   -20143261.187 9 -15683083.77347  21536395.227    21536402.9364
  22769844.958   -11953798.901 8  -9297950.03746  22769848.107    22769857.2014
  20530844.512   -23944646.734 9 -18649348.72747  20530848.268    20530856.6764
  23660015.984    -7276285.342 7  -5659236.23645  23660004.808    23660018.6874
  20555227.594   -22656509.892 9 -17630859.03648  20555229.702    20555237.1114
  23002788.091    -7444597.737 8  -5775758.49746  23002790.538    23002800.6324
  21504112.916   -16568198.580 9 -12888901.28747  21504118.293    21504126.0624
 00  6 29  0 44 30.0000000  0  8 11 25 05 21 23 29 15 30
  23777207.014    -5477815.355 8  -4259560.70245  23777209.728    23777219.0044
  21525720.084   -20199350.597 9 -15726789.76347  21525721.532    21525729.5844
  22779285.219   -11904199.802 8  -9259301.40646  22779286.122    22779296.2304
  20540350.893   -23894702.574 9 -18610431.21647  20540352.339    20540360.6554
  23679488.569    -7173889.461 7  -5579447.38145  23679490.188    23679502.9934
  20557444.519   -22644852.462 9 -17621775.31748  20557447.837    20557455.2674
  23019708.799    -7355670.837 8  -5706464.90046  23019711.849    23019723.0144
  21499674.259   -16591537.225 9 -12907087.20947  21499677.100    21499685.5194
 00  6 29  0 45  0.0000000  0  8 11 25 05 21 23 29 15 30
  23777442.436    -5476545.834 7  -4258571.47245  23777451.619    23777461.4834
  21515108.187   -20255113.944 9 -15770241.67547  21515110.062    21515117.9764
  22788816.271   -11854088.203 8  -9220253.47346  22788821.983    22788833.0744
  20549957.903   -23844211.849 9 -18571087.81347  20549960.220    20549968.9174
  23699016.111    -7071283.166 7  -5499494.61345  23699016.210    23699029.2784
  20559709.137   -22632956.821 9 -17612505.98348  20559711.473    20559719.1834
  23036675.523    -7266509.092 8  -5636988.33146  23036679.071    23036690.2824
  21495345.231   -16614289.079 9 -12924815.89247  21495347.861    21495356.2214
 00  6 29  0 45 30.0000000  0  8 11 25 05 21 23 29 15 30
  23777787.801    -5474765.743 7  -4257184.40145  23777789.859    23777799.9184
  21504556.436   -20310550.581 9 -15813439.01047  21504560.637    21504568.6454
  22798453.669   -11803465.656 8  -9180807.36646  22798456.481    22798464.8614
  20559669.420   -23793175.140 9 -18531318.97647  20559672.194    20559680.8914
  23718569.961    -6968468.904 7  -5419379.78445  23718581.188    23718594.6474
  20562018.449   -22620822.826 9 -17603050.92248  20562020.613    20562028.0474
  23053690.565    -7177115.878 8  -5567331.37446  23053690.317    23053701.7754
  21491126.556   -16636452.813 9 -12942086.30247  21491130.244    21491138.5894
 00  6 29  0 46  0.0000000  0  8 11 25 05 21 23 29 15 30
  23778225.736    -5472475.912 8  -4255400.12245  23778226.386    23778237.3384
  21494072.348   -20365660.604 9 -15856381.84147  21494073.815    21494081.5124
  22808182.262   -11752333.685 8  -9140964.29746  22808186.684    22808195.3724
  20569485.573   -23741593.549 9 -18491125.55447  20569487.992    20569496.5674
  23738188.500    -6865448.601 7  -5339104.41245  23738185.922    23738198.5074
  20564371.639   -22608449.768 9 -17593409.58148  20564375.215    20564382.5874
  23070739.624    -7087494.640 8  -5497496.72846  23070744.091    23070755.7534
  21487023.091   -16658027.439 9 -12958897.67347  21487024.187    21487033.2444
 00  6 29  0 46 30.0000000  0  8 11 25 05 21 23 29 15 30
  23778754.107    -5469677.248 8  -4253219.33745  23778758.780    23778767.2234
  21483643.450   -20420443.494 9 -15899069.75347  21483648.446    21483656.9644
  22818012.419   -11700694.002 8  -9100725.62846  22818013.052    22818022.7634
  20579405.449   -23689467.956 9 -18450508.24147  20579407.507    20579416.1094
  23757826.990    -6762224.055 7  -5258669.88345  23757828.377    23757841.8414
  20566772.636   -22595837.190 9 -17583581.59848  20566775.342    20566782.7964
  23087837.946    -6997648.365 8  -5427486.74246  23087840.707    23087853.1174
  21483027.431   -16679011.752 9 -12975249.04847  21483031.343    21483039.3844
 00  6 29  0 47  0.0000000  0  8 11 25 05 21 23 29 15 30
  23779388.394    -5466370.369 8  -4250642.55245  23779388.635    23779397.7714
  21473282.040   -20474899.103 9 -15941502.64247  21473285.850    21473294.3774
  22827934.316   -11648548.245 8  -9060092.60246  22827935.581    22827945.7504
  20589429.063   -23636799.489 9 -18409467.89647  20589430.245    20589438.2654
  23777509.851    -6658797.264 7  -5178077.80845  23777510.435    23777522.8084
  20569218.414   -22582984.543 9 -17573566.55248  20569221.227    20569228.5824
  23104979.663    -6907580.719 8  -5357304.26346  23104981.571    23104991.1594
  21479149.976   -16699404.618 9 -12991139.56247  21479151.363    21479159.2214
 00  6 29  0 47 30.0000000  0  8 11 25 05 21 23 29 15 30
  23780112.974    -5462555.917 8  -4247670.25345  23780113.679    23780121.9964
  21462983.928   -20529027.341 9 -15983680.43647  21462985.778    21462993.8644
  22837950.257   -11595898.043 8  -9019066.48846  22837954.908    22837965.6604
  20599552.487   -23583589.257 9 -18368005.39847  20599555.316    20599563.8434
  23797229.529    -6555170.322 7  -5097329.71945  23797230.023    23797242.5124
  20571710.807   -22569891.534 9 -17563364.20948  20571712.847    20571719.9814
  23122162.795    -6817295.123 8  -5286951.97346  23122162.351    23122173.6994
  21475380.095   -16719204.818 9 -13006568.26547  21475383.085    21475390.8774
 00  6 29  0 48  0.0000000  0  8 11 25 05 21 23 29 15 30
  23780931.514    -5458234.904 8  -4244303.24645  23780935.692    23780945.3044
  21452745.210   -20582827.797 9 -16025602.83047  21452748.093    21452756.0534
  22848068.318   -11542745.334 8  -8977648.83046  22848070.102    22848080.1554
  20609779.861   -23529838.137 9 -18326121.43547  20609783.391    20609792.0704
  23816978.200    -6451345.139 7  -5016427.20245  23816986.565    23817000.4194
  20574246.742   -22556557.604 9 -17552974.13948  20574250.068    20574257.4524
  23139377.701    -6726794.645 8  -5216432.21946  23139383.973    23139394.5624
  21471723.598   -16738411.857 9 -13021534.76047  21471727.550    21471735.9274
 00  6 29  0 48 30.0000000  0  8 11 25 05 21 23 29 15 30
  23781851.407    -5453408.286 8  -4240542.24645  23781853.450    23781864.3064
  21442571.567   -20636300.367 9 -16067269.72347  21442573.112    21442580.7264
  22858277.214   -11489091.771 8  -8935840.90646  22858280.188    22858289.7884
  20620111.450   -23475547.012 9 -18283816.68447  20620114.804    20620123.3344
  23836779.778    -6347323.792 7  -4935371.78545  23836782.155    23836796.0264
  20576829.363   -22542982.453 9 -17542396.09848  20576833.326    20576840.8764
  23156645.294    -6636082.801 8  -5145747.75846  23156646.152    23156656.6864
  21468183.774   -16757024.527 9 -13036038.11747  21468186.262    21468194.4084
 00  6 29  0 49  0.0000000  0  8 11 25 05 21 23 29 15 30
  23782866.063    -5448076.735 8  -4236387.80645  23782869.992    23782878.6234
  21432455.372   -20689444.742 9 -16108680.87047  21432459.337    21432467.3514
  22868583.259   -11434939.130 8  -8893644.07146  22868584.735    22868594.4084
  20630545.182   -23420717.163 9 -18241092.16147  20630548.486    20630557.9034
  23856610.777    -6243108.287 7  -4854165.13645  23856614.731    23856626.0314
  20579460.120   -22529165.296 9 -17531629.48948  20579462.897    20579470.3264
  23173946.028    -6545162.878 8  -5074901.16546  23173946.384    23173957.9374
  21464755.146   -16775041.870 9 -13050077.57747  21464757.763    21464765.6324
 00  6 29  0 49 30.0000000  0  8 11 25 05 21 23 29 15 30
  23783976.761    -5442241.380 8  -4231840.80045  23783979.178    23783989.7794
  21422405.079   -20742260.532 9 -16149835.98747  21422408.759    21422416.5544
  22878983.986   -11380289.201 8  -8851059.73946  22878984.331    22878993.3994
  20641081.486   -23365350.076 9 -18197949.00547  20641085.006    20641093.7914
  23876480.677    -6138700.719 7  -4772808.77445  23876481.209    23876495.2484
  20582136.675   -22515105.723 9 -17520673.98348  20582138.390    20582145.8134
  23191285.446    -6454038.424 8  -5003895.18946  23191287.732    23191299.4274
  21461439.910   -16792462.771 9 -13063652.27947  21461442.567    21461450.2444
 00  6 29  0 50  0.0000000  0  8 11 25 05 21 23 29 15 30
  23785180.873    -5435903.168 8  -4226901.93545  23785185.696    23785194.3494
  21412418.231   -20794748.001 9 -16190735.28147  21412420.885    21412428.5544
  22889473.012   -11325143.912 8  -8808089.42846  22889477.026    22889487.3394
  20651720.005   -23309446.433 9 -18154387.75347  20651723.193    20651731.7474
  23896385.330    -6034102.969 7  -4691304.25545  23896386.220    23896398.9464
  20584857.016   -22500803.461 9 -17509529.36748  20584859.834    20584867.2914
  23208662.163    -6362712.823 8  -4932732.47346  23208667.037    23208677.2124
  21458236.894   -16809286.466 9 -13076761.62347  21458240.887    21458248.5144
 00  6 29  0 50 30.0000000  0  8 11 25 05 21 23 29 15 30
  23786485.097    -5429062.927 8  -4221571.89345  23786486.529    23786496.8064
  21402491.874   -20846907.020 9 -16231378.60847  21402495.057    21402502.9804
  22900059.095   -11269504.664 8  -8764734.21446  22900064.872    22900074.7534
  20662458.003   -23253007.675 9 -18110409.53047  20662462.985    20662471.5474
  23916320.012    -5929317.197 7  -4609653.21345  23916326.557    23916340.7424
  20587624.755   -22486257.683 9 -17498194.99748  20587627.956    20587635.2894
  23226080.641    -6271189.375 8  -4861415.59946  23226083.022    23226094.0964
  21455150.381   -16825511.986 9 -13089404.85747  21455153.146    21455161.1804
 00  6 29  0 51  0.0000000  0  8 11 25 05 21 23 29 15 30
  23787878.409    -5421721.444 8  -4215851.27345  23787883.758    23787893.6734
  21392627.779   -20898737.380 9 -16271765.86447  21392632.073    21392639.8774
  22910741.371   -11213373.275 8  -8720995.50946  22910746.606    22910756.7074
  20673299.868   -23196035.282 9 -18066015.47547  20673304.597    20673313.0774
  23936302.485    -5824345.389 8  -4527857.26245  23936302.556    23936316.1654
  20590439.290   -22471468.345 9 -17486670.83748  20590442.213    20590449.6274
  23243534.649    -6179471.378 8  -4789947.15346  23243536.640    23243547.7424
  21452176.708   -16841138.169 9 -13101581.08447  21452179.483    21452187.5034
 00  6 29  0 51 30.0000000  0  8 11 25 05 21 23 29 15 30
  23789374.904    -5413879.667 8  -4209740.81845  23789375.989    23789388.0624
  21382828.584   -20950238.554 9 -16311896.60947  21382831.722    21382839.3954
  22921517.788   -11156751.704 8  -8676874.83946  22921521.562    22921531.2404
  20684244.584   -23138529.878 9 -18021206.10147  20684247.423    20684256.3134
  23956298.725    -5719189.686 7  -4445917.94745  23956313.383    23956325.9674
  20593299.992   -22456434.630 9 -17474956.25548  20593303.090    20593310.5064
  23261022.169    -6087562.331 8  -4718329.82446  23261025.878    23261037.9974
  21449317.911   -16856164.501 9 -13113289.89347  21449320.593    21449328.0274
 00  6 29  0 52  0.0000000  0  8 11 25 05 21 23 29 15 30
  23790961.730    -5405538.700 8  -4203241.38345  23790964.661    23790974.1224
  21373093.022   -21001410.470 9 -16351770.77847  21373094.423    21373101.8924
  22932385.338   -11099641.827 8  -8632373.65946  22932388.851    22932397.9584
  20695290.292   -23080492.797 9 -17975982.42947  20695291.812    20695300.0264
  23976358.915    -5613852.045 7  -4363836.87445  23976358.601    23976371.9404
  20596207.095   -22441156.161 9 -17463050.95248  20596210.472    20596217.8804
  23278544.213    -5995465.223 8  -4646565.96646  23278551.918    23278563.4704
  21446575.125   -16870590.204 9 -13124530.67847  21446575.584    21446582.8414
 00  6 29  0 52 30.0000000  0  8 11 25 05 21 23 29 15 30
  23792646.266    -5396699.652 8  -4196353.80645  23792646.270    23792656.1534
  21363415.437   -21052253.229 9 -16391388.47447  21363419.062    21363426.7614
  22943345.123   -11042045.316 8  -8587493.30946  22943349.271    22943358.9544
  20706434.229   -23021925.552 9 -17930345.63947  20706436.696    20706445.1384
  23996431.197    -5508334.394 7  -4281615.53845  23996437.802    23996452.3514
  20599161.575   -22425632.359 9 -17450954.48248  20599164.550    20599171.9094
  23296106.062    -5903183.576 8  -4574658.26746  23296112.112    23296123.6924
  21443943.094   -16884414.519 9 -13135302.84947  21443944.149    21443952.2104
 00  6 29  0 53  0.0000000  0  8 11 25 05 21 23 29 15 30
  23794418.979    -5387363.532 8  -4189078.92545  23794422.701    23794432.5754
  21353803.209   -21102766.312 9 -16430749.27247  21353806.801    21353814.2664
  22954405.481   -10983964.154 8  -8542235.31346  22954402.449    22954411.5974
  20717681.674   -22962829.310 9 -17884296.65247  20717682.609    20717690.7934
  24016550.179    -5402638.777 7  -4199255.57745  24016551.813    24016565.0824
  20602163.259   -22409862.869 9 -17438666.56748  20602165.321    20602173.0014
  23313705.962    -5810720.726 8  -4502609.40146  23313707.567    23313718.7744
  21441427.262   -16897636.666 9 -13145605.79947  21441428.163    21441436.2934
 00  6 29  0 53 30.0000000  0  8 11 25 05 21 23 29 15 30
  23796289.038    -5377531.425 8  -4181417.57045  23796292.133    23796303.2734
  21344255.190   -21152950.043 9 -16469853.43247  21344257.219    21344264.5244
  22965542.072   -10925400.340 8  -8496601.20346  22965546.738    22965556.3794
  20729025.814   -22903205.340 9 -17837836.44147  20729028.254    20729036.7694
  24036685.304    -5296767.468 7  -4116758.69845  24036697.066    24036711.4614
  20605209.708   -22393847.115 9 -17426186.76348  20605212.822    20605220.4254
  23331330.855    -5718079.834 8  -4430421.81045  23331336.447    23331347.9454
  21439024.010   -16910255.763 9 -13155438.85247  21439026.946    21439034.8854
 00  6 29  0 54  0.0000000  0  8 11 25 05 21 23 29 15 30
  23798251.818    -5367204.396 8  -4173370.56145  23798258.825    23798268.4474
  21334766.675   -21202804.167 9 -16508700.76147  21334770.411    21334777.5664
  22976783.389   -10866355.775 8  -8450592.49346  22976782.567    22976792.5994
  20740472.076   -22843054.710 9 -17790965.85047  20740474.677    20740483.5144
  24056853.556    -5190722.641 7  -4034126.61545  24056876.368    24056891.6554
  20608303.009   -22377584.646 9 -17413514.70248  20608307.471    20608315.1294
  23348997.136    -5625264.685 8  -4358098.42545  23348998.558    23349009.7624
  21436737.414   -16922271.339 9 -13164801.61147  21436740.323    21436748.1484
 00  6 29  0 54 30.0000000  0  8 11 25 05 21 23 29 15 30
  23800312.905    -5356383.468 8  -4164938.66445  23800318.335    23800328.3804
  21325341.626   -21252328.567 9 -16547291.16047  21325345.703    21325353.0924
  22988105.808   -10806832.300 8  -8404210.62546  22988109.174    22988119.3134
  20752017.832   -22782378.982 9 -17743686.08947  20752020.779    20752029.6744
  24077085.175    -5084506.189 7  -3951360.83445  24077089.869    24077104.1584
  20611445.294   -22361074.883 9 -17400649.95348  20611449.435    20611456.6574
  23366689.095    -5532278.408 8  -4285641.69446  23366693.980    23366705.5444
  21434565.878   -16933682.682 9 -13173693.54747  21434568.698    21434577.1044
 00  6 29  0 55  0.0000000  0  8 11 25 05 21 23 29 15 30
  23802463.015    -5345069.833 8  -4156122.84545  23802469.932    23802481.0604
  21315979.243   -21301522.888 9 -16585624.34947  21315983.704    21315991.8884
  22999525.901   -10746831.659 8  -8357456.91946  22999527.203    22999536.5034
  20763664.216   -22721179.624 9 -17695998.31447  20763666.433    20763675.5014
  24097330.601    -4978120.061 7  -3868462.78344  24097333.879    24097347.6824
  20614634.612   -22344317.492 9 -17387592.24648  20614638.304    20614645.4114
  23384413.008    -5439124.128 8  -4213054.04145  23384420.072    23384432.6004
  21432508.780   -16944488.800 9 -13182113.87947  21432512.379    21432520.6554
 00  6 29  0 55 30.0000000  0  8 11 25 05 21 23 29 15 30
  23804715.067    -5333264.674 8  -4146924.04545  23804717.374    23804727.7244
  21306681.847   -21350387.290 9 -16623700.46547  21306685.600    21306693.6754
  23011028.765   -10686356.011 8  -8310333.07846  23011035.587    23011045.3224
  20775409.120   -22659457.723 9 -17647903.36447  20775411.916    20775420.5234
  24117607.657    -4871566.353 7  -3785434.17744  24117611.792    24117623.5504
  20617871.101   -22327311.908 9 -17374341.13548  20617874.390    20617881.4674
  23402175.049    -5345805.515 8  -4140338.36045  23402178.086    23402190.4894
  21430568.835   -16954689.295 9 -13190062.30747  21430571.695    21430579.1904
 00  6 29  0 56  0.0000000  0  8 11 25 05 21 23 29 15 30
  23807055.376    -5320969.154 7  -4137343.16445  23807056.288    23807065.8014
  21297445.130   -21398921.631 9 -16661519.37747  21297450.209    21297457.3664
  23022633.196   -10625407.291 8  -8262840.61146  23022633.358    23022644.0054
  20787253.736   -22597214.779 9 -17599402.39647  20787256.632    20787265.0384
  24137927.779    -4764847.333 7  -3702276.79744  24137919.687    24137932.7884
  20621154.538   -22310057.424 9 -17360896.07948  20621157.730    20621164.9264
  23419962.785    -5252325.639 8  -4067497.01045  23419966.606    23419978.3414
  21428740.115   -16964283.821 9 -13197538.54347  21428745.337    21428753.4084
 00  6 29  0 56 30.0000000  0  8 11 25 05 21 23 29 15 30
  23809488.257    -5308184.448 8  -4127381.05245  23809489.551    23809500.0454
  21288273.787   -21447125.907 9 -16699081.12447  21288277.329    21288284.2694
  23034322.985   -10563987.545 8  -8214981.13646  23034320.571    23034331.8334
  20799199.360   -22534452.264 9 -17550496.56947  20799200.178    20799208.8064
  24158268.711    -4657965.071 7  -3618992.14045  24158261.615    24158273.0454
  20624485.546   -22292553.917 9 -17347256.98448  20624488.391    20624495.7914
  23437784.299    -5158687.946 8  -3994532.69745  23437786.085    23437796.7794
  21427032.268   -16973271.315 9 -13204541.76747  21427035.322    21427043.2694
 00  6 29  0 57  0.0000000  0  8 11 25 05 21 23 29 15 30
  23812012.639    -5294911.596 8  -4117038.57545  23812014.829    23812023.8894
  21279163.206   -21495000.369 9 -16736385.85947  21279166.711    21279174.4654
  23046096.565   -10502098.545 8  -8166755.98646  23046098.228    23046108.1404
  20811239.589   -22471171.786 9 -17501187.14447  20811241.630    20811250.5724
  24178621.771    -4550921.553 7  -3535581.87845  24178628.547    24178643.7194
  20627863.687   -22274800.744 9 -17333423.34948  20627866.901    20627874.1344
  23455633.758    -5064895.862 8  -3921448.05845  23455632.757    23455645.9164
  21425438.912   -16981651.422 9 -13211071.70747  21425441.175    21425448.8694
 00  6 29  0 57 30.0000000  0  8 11 25 05 21 23 29 15 30
  23814631.670    -5281152.038 8  -4106316.87445  23814634.236    23814643.2194
  21270117.005   -21542544.523 9 -16773433.20647  21270119.508    21270127.2394
  23057963.511   -10439742.332 8  -8118166.76046  23057964.349    23057974.1174
  20823380.657   -22407374.631 9 -17451475.11647  20823381.713    20823390.6754
  24199028.590    -4443719.063 7  -3452047.75245  24199030.490    24199041.4564
  20631290.021   -22256797.370 9 -17319394.74748  20631293.074    20631300.1934
  23473507.947    -4970952.787 8  -3848245.78945  23473510.268    23473521.9274
  21423958.961   -16989423.549 9 -13217127.89447  21423962.318    21423969.6874
 00  6 29  0 58  0.0000000  0  8 11 25 05 21 23 29 15 30
  23817341.898    -5266907.019 7  -4095216.84945  23817343.615    23817354.0284
  21261129.817   -21589758.429 9 -16810223.21947  21261134.729    21261142.3174
  23069920.955   -10376921.039 8  -8069215.13046  23069918.857    23069929.9394
  20835617.385   -22343062.404 9 -17401361.72947  20835620.059    20835628.8324
  24219457.973    -4336359.590 7  -3368391.29044  24219462.243    24219473.4124
  20634763.280   -22238543.242 9 -17305170.75848  20634766.680    20634773.8894
  23491413.752    -4876861.920 8  -3774928.34745  23491416.268    23491428.0574
  21422595.930   -16996587.378 9 -13222710.08347  21422598.868    21422606.5164
 00  6 29  0 58 30.0000000  0  8 11 25 05 21 23 29 15 30
  23820142.015    -5252177.651 7  -4083739.45045  23820147.402    23820157.6164
  21252211.129   -21636642.144 9 -16846755.95147  21252213.331    21252220.6834
  23081952.773   -10313636.563 8  -8019902.61346  23081961.871    23081972.6464
  20847952.497   -22278236.644 9 -17350848.18347  20847956.278    20847964.9414
  24239923.081    -4228845.167 7  -3284614.14944  24239919.190    24239933.5134
  20638283.373   -22220038.104 9 -17290751.17048  20638287.472    20638295.2144
  23509346.309    -4782626.519 8  -3701498.25445  23509348.441    23509360.7864
  21421349.811   -17003142.413 9 -13227817.88547  21421351.146    21421358.9714
 00  6 29  0 59  0.0000000  0  8 11 25 05 21 23 29 15 30
  23823034.575    -5236965.465 8  -4071885.82545  23823041.393    23823052.6784
  21243348.362   -21683195.418 9 -16883031.18148  21243353.800    21243362.3314
  23094089.030   -10249891.084 8  -7970230.87946  23094091.666    23094102.5874
  20860386.961   -22212898.705 9 -17299935.54847  20860389.938    20860398.7154
  24260386.550    -4121178.047 7  -3200717.98744  24260409.308    24260422.1204
  20641856.104   -22201281.126 9 -17276135.35248  20641857.041    20641864.4944
  23527300.216    -4688249.989 8  -3627958.22145  23527306.921    23527319.4114
  21420215.453   -17009088.196 9 -13232450.94747  21420219.431    21420227.4344
 00  6 29  0 59 30.0000000  0  8 11 25 05 21 23 29 15 30
  23826022.626    -5221271.498 8  -4059656.77945  23826028.984    23826039.0164
  21234555.267   -21729418.207 9 -16919048.89248  21234558.131    21234566.4794
  23106309.841   -10185686.659 8  -7920201.49446  23106310.037    23106318.9664
  20872918.572   -22147050.086 9 -17248624.97047  20872920.441    20872928.9254
  24280921.425    -4013360.140 7  -3116704.31144  24280925.089    24280939.5044
  20645470.794   -22182271.969 9 -17261323.03048  20645474.307    20645481.7414
  23545292.250    -4593735.615 8  -3554310.78945  23545292.336    23545303.9814
  21419203.089   -17014424.339 9 -13236608.97447  21419204.200    21419211.8594
 00  6 29  1  0  0.0000000  0  8 11 25 05 21 23 29 15 30
  23829102.609    -5205097.382 8  -4047053.59145  23829106.503    23829117.6784
  21225824.213   -21775310.449 9 -16954809.04048  21225825.324    21225833.0534
  23118603.803   -10121025.104 8  -7869815.90446  23118613.823    23118624.1514
  20885543.678   -22080692.427 9 -17196917.74247  20885547.780    20885556.5004
  24301459.336    -3905393.568 7  -3032574.82844  24301470.119    24301485.0454
  20649137.698   -22163010.321 9 -17246313.96148  20649140.053    20649147.1194
  23563305.184    -4499086.794 8  -3480558.57145  23563304.112    23563316.6344
  21418299.573   -17019150.290 9 -13240291.51647  21418304.577    21418312.2474
 00  6 29  1  0 30.0000000  0  8 11 25 05 21 23 29 15 30
  23832272.254    -5188444.292 8  -4034077.18345  23832276.449    23832285.8434
  21217149.660   -21820872.540 9 -16990311.91848  21217155.006    21217163.0474
  23131003.636   -10055908.740 8  -7819075.94646  23131005.809    23131015.4194
  20898270.598   -22013827.518 9 -17144815.25547  20898272.219    20898280.4664
  24322046.668    -3797280.693 7  -2948331.27244  24322043.892    24322058.7154
  20652850.138   -22143495.359 9 -17231107.50148  20652853.551    20652860.6144
  23581335.526    -4404306.670 8  -3406704.04145  23581341.499    23581352.8514
  21417518.598   -17023265.874 9 -13243498.45047  21417521.646    21417528.9904
 00  6 29  1  1  0.0000000  0  8 11 25 05 21 23 29 15 30
  23835527.158    -5171313.578 7  -4020728.61545  23835534.303    23835547.2864
  21208544.008   -21866104.562 9 -17025557.61048  21208547.615    21208555.5244
  23143480.138    -9990339.500 8  -7767983.09246  23143483.285    23143492.7764
  20911090.626   -21946456.488 9 -17092318.38547  20911092.343    20911100.5014
  24342645.786    -3689023.487 7  -2863975.31344  24342645.170    24342660.1794
  20656611.817   -22123726.942 9 -17215703.55048  20656614.889    20656622.3864
  23599401.762    -4309398.462 8  -3332749.72345  23599401.216    23599414.1104
  21416851.235   -17026770.749 9 -13246229.51647  21416854.978    21416862.3904
 00  6 29  1  1 30.0000000  0  8 11 25 05 21 23 29 15 30
  23838884.095    -5153706.651 8  -4007008.98245  23838885.535    23838895.7234
  21199998.081   -21911006.212 9 -17060545.86947  21200002.697    21200010.5594
  23156046.455    -9924319.626 8  -7716539.09546  23156046.752    23156056.3074
  20924005.123   -21878581.528 9 -17039428.84047  20924008.376    20924016.8814
  24363249.332                                    24363275.579    24363291.3124
  20660421.446   -22103704.361 9 -17200101.54747  20660424.636    20660432.6864
  23617477.018    -4214365.510 7  -3258698.20745  23617484.460    23617497.5404
  21416302.291   -17029664.387 9 -13248484.27747  21416303.930    21416311.8774
 00  6 29  1  2  0.0000000  0  7 11 25 05 21 29 15 30
  23842323.987    -5135625.023 8  -3992919.44745  23842326.010    23842337.2184
  21191518.512   -21955577.337 9 -17095276.57848  21191521.409    21191529.1164
  23168693.811    -9857851.083 8  -7664745.48246  23168695.069    23168705.1134
  20937018.180   -21810203.988 9 -16986147.68747  20937019.862    20937029.0604
  20664280.145   -22083427.014 9 -17184301.02148  20664283.908    20664291.6614
  23635588.813    -4119211.229 7  -3184552.12745  23635591.392    23635604.9434
  21415865.763   -17031946.786 9 -13250262.75747  21415869.795    21415877.6304
 00  6 29  1  2 30.0000000  0  7 11 25 05 21 29 15 30
  23845853.560    -5117069.976 8  -3978461.00745  23845858.463    23845867.9424
  21183100.530   -21999818.242 9 -17129749.96848  21183102.476    21183110.3574
  23181424.421    -9790936.161 8  -7612604.03646  23181427.877    23181438.6374
  20950123.312   -21741325.730 9 -16932476.35947  20950126.940    20950135.9394
  20668187.653   -22062894.665 9 -17168301.80448  20668191.087    20668198.9274
  23653725.001    -4023939.049 7  -3110314.23345  23653721.986    23653734.1864
  21415547.751   -17033617.352 9 -13251564.47747  21415551.902    21415559.2014
 00  6 29  1  3  0.0000000  0  7 11 25 05 21 29 15 30
  23849476.727    -5098042.873 8  -3963634.71445  23849478.788    23849488.4084
  21174743.235   -22043729.093 9 -17163966.16548  21174746.339    21174754.5714
  23194241.379    -9723576.888 8  -7560116.37246  23194245.154    23194257.0684
  20963326.982   -21671948.325 9 -16878416.09547  20963329.481    20963338.2754
  20672142.060   -22042106.620 9 -17152103.33548  20672146.502    20672154.5764
  23671867.562    -3928552.333 8  -3035987.02145  23671874.786    23671885.7584
  21415347.602   -17034676.072 9 -13252389.43847  21415350.434    21415357.9464
 00  6 29  1  3 30.0000000  0  7 11 25 05 21 29 15 30
  23853184.713    -5078545.467 8  -3948441.98745  23853189.908    23853199.5534
  21166449.815   -22087309.862 9 -17197925.16348  21166453.229    21166461.1654
  23207146.160    -9655775.493 8  -7507284.18046  23207148.706    23207159.0784
  20976623.023   -21602073.276 9 -16823968.03447  20976626.124    20976634.4644
  20676147.725   -22021062.501 9 -17135705.32848  20676151.314    20676158.9714
  23690042.187    -3833054.175 8  -2961572.98245  23690047.281    23690059.6604
  21415260.942   -17035122.761 9 -13252737.49347  21415265.485    21415273.3534
 00  6 29  1  4  0.0000000  0  7 11 25 05 21 29 15 30
  23856987.628    -5058579.162 8  -3932883.86845  23856987.835    23856998.1624
  21158218.970   -22130560.429 9 -17231626.86648  21158222.894    21158230.6094
  23220132.308    -9587534.318 8  -7454109.28946  23220134.773    23220144.6214
  20990014.963   -21531702.656 9 -16769133.82247  20990017.404    20990025.7974
  20680201.347   -21999761.758 9 -17119107.35748  20680205.018    20680212.2854
  23708235.891    -3737447.780 7  -2887074.62245  23708238.972    23708252.8614
  21415291.035   -17034957.381 9 -13252608.61747  21415297.186    21415304.7044
 00  6 29  1  4 30.0000000  0  7 11 25 05 21 29 15 30
  23860876.333    -5038145.418 8  -3916961.49945  23860876.998    23860886.6034
  21150052.320   -22173481.181 9 -17265071.57048  21150055.594    21150063.0034
  23233200.501    -9518855.261 8  -7400593.21146  23233203.232    23233213.9204
  21003502.111   -21460837.487 9 -16713914.24647  21003502.492    21003511.3974
  20684304.388   -21978203.953 9 -17102309.06948  20684307.226    20684314.6274
  23726445.105    -3641736.404 7  -2812494.46045  23726453.016    23726466.1414
  21415442.815   -17034179.629 9 -13252002.55947  21415444.822    21415452.6044
 00  6 29  1  5  0.0000000  0  7 11 25 05 21 29 15 30
  23864849.568    -5017245.569 8  -3900675.96345  23864855.037    23864864.6264
  21141945.888   -22216072.202 9 -17298259.34848  21141950.840    21141958.3854
  23246354.922    -9449740.526 8  -7346737.65946  23246355.829    23246366.3234
  21017078.429   -21389479.885 9 -16658310.96747  21017081.336    21017089.8244
  20688456.768   -21956388.524 9 -17085310.04148  20688458.597    20688465.9024
  23744678.430    -3545923.378 8  -2737835.11245  23744686.329    23744698.8274
  21415707.177   -17032789.328 9 -13250919.19347  21415709.259    21415716.9724
 00  6 29  1  5 30.0000000  0  7 11 25 05 21 29 15 30
  23868914.716    -4995881.311 8  -3884028.53345  23868920.322    23868928.4994
  21133906.648   -22258333.282 9 -17331190.01648  21133908.338    21133916.2824
  23259588.703    -9380192.435 8  -7292544.40046  23259591.704    23259600.7254
  21030751.245   -21317631.872 9 -16602325.54847  21030753.569    21030762.6814
  20692656.658   -21934315.021 9 -17068109.91547  20692658.996    20692666.3774
  23762932.087    -3450012.129 8  -2663099.19745  23762938.645    23762950.0414
  21416089.728   -17030786.385 9 -13249358.44047  21416090.593    21416097.8834
 00  6 29  1  6  0.0000000  0  7 11 25 05 21 29 15 30
  23873072.263    -4974054.224 8  -3867020.49045  23873073.399    23873082.7974
  21125924.560   -22300264.359 9 -17363863.55347  21125929.082    21125936.9974
  23272905.596    -9310213.117 8  -7238015.12946  23272907.924    23272917.8354
  21044516.065   -21245295.662 9 -16545959.71647  21044518.990    21044527.6954
  20696905.661   -21911982.892 9 -17050708.26648  20696908.641    20696916.0824
  23781201.760    -3354005.975 7  -2588289.34645  23781207.770    23781218.9734
  21416584.623   -17028170.682 9 -13247320.21747  21416588.548    21416595.7674
 00  6 29  1  6 30.0000000  0  7 11 25 05 21 29 15 30
  23877307.747    -4951765.957 7  -3849653.06245  23877313.848    23877325.0084
  21118009.999   -22341865.817 9 -17396280.24147  21118012.663    21118020.3394
  23286302.997    -9239804.736 8  -7183151.53246  23286306.233    23286316.5814
  21058372.522   -21172472.323 9 -16489214.29547  21058376.824    21058385.4394
  20701203.384   -21889391.772 9 -17033104.80248  20701207.867    20701215.1924
  23799493.267    -3257907.755 8  -2513407.75845  23799493.672    23799506.3694
  21417199.423   -17024942.433 9 -13244804.69047  21417203.067    21417210.3434
 00  6 29  1  7  0.0000000  0  7 11 25 05 21 29 15 30
  23881643.819    -4929018.020 8  -3831927.44645  23881642.759    23881654.3204
  21110156.213   -22383137.913 9 -17428440.27948  21110159.233    21110166.3624
  23299782.022    -9168969.718 8  -7127955.49946  23299785.335    23299796.1704
  21072324.691   -21099163.735 9 -16432090.76347  21072326.937    21072335.7744
  20705553.284   -21866541.054 9 -17015299.05448  20705556.027    20705563.4694
  23817790.143    -3161721.157 7  -2438457.28245  23817797.473    23817810.8254
  21417929.172   -17021101.630 9 -13241811.84047  21417933.375    21417941.2234
 00  6 29  1  7 30.0000000  0  7 11 25 05 21 29 15 30
  23886054.784    -4905812.038 8  -3813844.93745  23886058.838    23886068.2194
  21102362.103   -22424080.408 9 -17460343.49748  21102367.892    21102375.3664
  23313345.972    -9097710.165 8  -7072428.66646  23313346.323    23313356.5294
  21086365.155   -21025372.323 9 -16374591.01447  21086368.782    21086377.8934
  20709949.749   -21843430.359 9 -16997290.73048  20709953.960    20709961.3364
  23836116.746    -3065449.283 8  -2363440.36745  23836118.104    23836130.6674
  21418779.773   -17016648.033 9 -13238341.49047  21418780.798    21418788.7404
 00  6 29  1  8  0.0000000  0  7 11 25 05 21 29 15 30
  23890563.709    -4882149.895 8  -3795406.97945  23890562.138    23890571.9744
  21094635.593   -22464693.446 9 -17491989.98048  21094639.079    21094647.1254
  23326984.446    -9026028.467 8  -7016572.87946  23326986.643    23326996.9974
  21100499.588   -20951099.687 9 -16316716.26947  21100502.695    21100511.3744
  20714397.149   -21820059.097 9 -16979079.36348  20714401.350    20714408.9214
  23854452.471    -2969095.260 8  -2288359.44145  23854453.771    23854466.0424
  21419742.462   -17011581.696 9 -13234393.69047  21419744.954    21419752.8384
 00  6 29  1  8 30.0000000  0  7 11 25 05 21 29 15 30
  23895149.860    -4858032.942 7  -3776614.59245  23895151.173    23895160.6984
  21086968.409   -22504977.262 9 -17523379.93548  21086973.521    21086981.0684
  23340704.030    -8953926.736 8  -6960389.80546  23340706.689    23340717.8534
  21114724.381   -20876347.286 9 -16258467.69847  21114727.088    21114736.2954
  20718895.936   -21796426.865 9 -16960664.64848  20718898.312    20718906.3094
  23872803.917    -2872662.553 8  -2213217.19845  23872803.607    23872816.7894
  21420821.969   -17005902.542 9 -13229968.36147  21420825.842    21420833.4654
 00  6 29  1  9  0.0000000  0  7 11 25 05 21 29 15 30
  23899823.124    -4833462.891 7  -3757469.14645  23899826.330    23899837.2834
  21079366.282   -22544932.325 9 -17554513.72247  21079370.069    21079377.5314
  23354505.502    -8881407.010 8  -6903881.00846  23354506.412    23354517.6274
  21129039.009   -20801117.091 9 -16199846.80647  21129043.397    21129051.7564
  20723442.388   -21772532.975 9 -16942046.04547  20723445.128    20723452.9834
  23891170.252    -2776154.246 7  -2138016.07645  23891168.180    23891181.2284
  21422023.176   -16999611.199 9 -13225066.01047  21422023.354    21422030.5884
 00  6 29  1  9 30.0000000  0  7 11 25 05 21 29 15 30
  23904589.813    -4808441.464 7  -3737971.99345  23904587.860    23904599.1924
  21071825.103   -22584558.449 9 -17585391.19448  21071829.762    21071837.1614
  23368384.246    -8808471.810 8  -6847048.47746  23368386.418    23368397.5654
  21143447.108   -20725411.189 8 -16140855.23647  21143449.247    21143458.3944
  20728038.765   -21748377.113 9 -16923223.31047  20728042.029    20728049.4254
  23909541.037    -2679573.627 8  -2062758.59145  23909548.505    23909560.3544
  21423335.114   -16992707.464 9 -13219686.47447  21423337.211    21423344.2814
 00  6 29  1 10  0.0000000  0  7 11 25 05 21 29 15 30
  23909430.552    -4782970.100 7  -3718124.25845  23909436.592    23909446.8724
  21064349.737   -22623855.725 9 -17616012.40748  21064351.720    21064359.0284
  23382341.907    -8735123.580 8  -6789894.10746  23382344.528    23382355.2234
  21157943.823   -20649231.854 9 -16081494.76847  21157945.864    21157954.9884
  20732686.341   -21723958.931 9 -16904196.17147  20732688.785    20732696.0394
  23927930.235    -2582923.837 8  -1987447.20745  23927940.174    23927953.4544
  21424763.462   -16985191.424 9 -13213829.81947  21424767.040    21424774.6004
 00  6 29  1 10 30.0000000  0  7 11 25 05 21 29 15 30
  23914359.266    -4757050.700 7  -3697927.37445  23914367.369    23914379.1344
  21056932.360   -22662824.505 9 -17646377.66148  21056936.337    21056943.9014
  23396376.872    -8661364.543 8  -6732419.64846  23396380.802    23396391.0584
  21172529.606   -20572580.960 9 -16021766.84547  21172532.548    21172541.2134
  20737382.181   -21699277.597 9 -16884963.97347  20737384.943    20737392.8184
  23946343.880    -2486208.260 8  -1912084.57245  23946344.732    23946356.8054
  21426310.469   -16977063.488 9 -13207496.35947  21426313.413    21426321.3254
 00  6 29  1 11  0.0000000  0  7 11 25 05 21 29 15 30
  23919379.574    -4730685.386 7  -3677383.02745  23919384.779    23919396.2324
  21049582.292   -22701464.419 9 -17676486.65248  21049583.677    21049591.1334
  23410486.531    -8587197.043 8  -6674626.90646  23410493.509    23410504.3124
  21187205.382   -20495459.970 9 -15961672.61047  21187208.253    21187217.2494
  20742128.288   -21674332.915 9 -16865526.57047  20742131.869    20742139.6154
  23964761.466    -2389429.928 8  -1836673.04245  23964761.054    23964773.6274
  21427975.310   -16968323.788 9 -13200686.20047  21427976.566    21427984.5084
 00  6 29  1 11 30.0000000  0  7 11 25 05 21 29 15 30
  23924482.093    -4703875.719 8  -3656492.40645  23924488.051    23924495.6904
  21042290.811   -22739776.106 9 -17706339.87648  21042293.122    21042300.6504
  23424685.474    -8512623.420 8  -6616517.65646  23424684.581    23424695.4374
  21201968.511   -20417871.043 8 -15901213.75547  21201972.449    21201981.0834
  20746925.644   -21649124.268 9 -16845883.48647  20746929.235    20746936.6734
  23983185.902    -2292592.042 7  -1761215.08945  23983188.277    23983200.6464
  21429752.982   -16958972.354 9 -13193399.36647  21429755.966    21429763.8964
 00  6 29  1 12  0.0000000  0  7 11 25 05 21 29 15 30
  23929670.953    -4676623.499 7  -3635256.94645  23929672.564    23929682.5104
  21035060.895   -22777759.902 9 -17735937.60848  21035064.626    21035072.1764
  23438952.581    -8437645.838 8  -6558093.69046  23438952.203    23438963.2514
  21216822.561   -20339816.509 8 -15840392.09247  21216825.686    21216835.2124
  20751772.125   -21623651.174 9 -16826034.33947  20751776.521    20751784.2214
  24001625.404    -2195698.033 8  -1685713.43245  24001626.808    24001639.6674
  21431648.786   -16949009.648 9 -13185636.22147  21431651.763    21431659.8244
 00  6 29  1 12 30.0000000  0  7 11 25 05 21 29 15 30
  23934939.575    -4648930.390 7  -3613677.94645  23934941.630    23934953.9544
  21027895.247   -22815415.744 9 -17765279.78348  21027898.929    21027906.3534
  23453295.781    -8362266.729 8  -6499356.88446  23453297.065    23453307.2944
  21231765.459   -20261298.186 8 -15779209.04847  21231767.657    21231776.2674
  20756669.833   -21597913.198 9 -16805978.78447  20756674.588    20756681.9954
  24020074.183    -2098751.137 8  -1610170.54945  24020076.765    24020087.9864
  21433662.455   -16938435.955 9 -13177396.98947  21433664.155    21433671.8574
 00  6 29  1 13  0.0000000  0  7 11 25 05 21 29 15 30
  23940288.361    -4620798.339 8  -3591756.88845  23940296.403    23940305.6664
  21020792.803   -22852743.836 9 -17794366.58648  21020795.708    21020803.1784
  23467716.045    -8286488.606 8  -6440309.12746  23467716.854    23467728.0094
  21246793.697   -20182318.139 8 -15717666.21647  21246797.212    21246806.5884
  20761621.175   -21571910.001 9 -16785716.56547  20761622.913    20761630.4384
  24038533.328    -2001754.361 8  -1534588.78245  24038533.782    24038546.7264
  21435790.912   -16927251.380 9 -13168681.73847  21435792.865    21435800.0064
 00  6 29  1 13 30.0000000  0  7 11 25 05 21 29 15 30
  23945732.461    -4592229.134 8  -3569495.19245  23945733.546    23945742.3964
  21013751.327   -22889744.288 9 -17823198.08448  21013755.047    21013762.2174
  23482210.108    -8210313.715 8  -6380952.16046  23482212.785    23482223.2544
  21261912.833   -20102878.576 9 -15655765.31047  21261914.390    21261923.3544
  20766618.249   -21545640.911 9 -16765247.16047  20766621.465    20766629.2294
  24057000.338    -1904711.050 8  -1458970.78345  24057001.065    24057012.6814
  21438035.041   -16915456.441 9 -13159490.88247  21438037.573    21438044.6914
 00  6 29  1 14  0.0000000  0  7 11 25 05 21 29 15 30
  23951249.593    -4563224.644 7  -3546894.34745  23951251.719    23951260.5454
  21006773.011   -22926417.573 9 -17851774.65348  21006776.105    21006783.3254
  23496780.482    -8133744.265 8  -6321287.75945  23496782.620    23496794.4984
  21277115.837   -20022981.299 9 -15593507.73047  21277118.225    21277126.9244
  20771667.264   -21519105.493 9 -16744570.22747  20771670.905    20771678.5614
  24075471.050    -1807624.299 8  -1383318.90945  24075475.315    24075488.1774
  21440394.070   -16903051.585 9 -13149824.75847  21440397.673    21440405.5114
 00  6 29  1 14 30.0000000  0  7 11 25 05 21 29 15 30
  23956855.471    -4533786.912 8  -3523955.91445  23956854.097    23956865.0684
  20999858.017   -22962763.723 9 -17880096.30848  20999859.454    20999866.8314
  23511419.760    -8056782.634 8  -6261317.78646  23511428.395    23511440.5324
  21292404.062   -19942628.461 8 -15530895.18447  21292408.482    21292417.1844
  20776765.999   -21492303.321 9 -16723685.42747  20776771.120    20776778.8374
  24093962.567    -1710497.172 8  -1307635.60545  24093958.086    24093971.2074
  21442869.218   -16890037.011 9 -13139683.53747  21442873.750    21442881.9174
 00  6 29  1 15  0.0000000  0  7 11 25 05 21 29 15 30
  23962530.285    -4503917.537 7  -3500681.14145  23962537.805    23962548.7954
  20993002.879   -22998783.227 9 -17908163.42948  20993005.280    20993012.7004
  23526149.271    -7979431.340 8  -6201044.15646  23526149.118    23526159.3814
  21307784.972   -19861822.253 8 -15467929.35547  21307785.569    21307795.0374
  20781919.043   -21465233.876 9 -16702592.36647  20781922.165    20781929.8544
  24112450.200    -1613332.892 8  -1231923.36645  24112448.716    24112461.6994
  21445459.284   -16876412.983 9 -13129067.40947  21445466.337    21445474.6044
 00  6 29  1 15 30.0000000  0  7 11 25 05 21 29 15 30
  23968300.506    -4473618.428 7  -3477071.50145  23968303.551    23968314.6624
  20986207.355   -23034475.832 9 -17935975.82348  20986212.916    20986220.5964
  23540938.496    -7901692.765 8  -6140468.73046  23540941.809    23540952.3694
  21323242.903   -19780564.977 8 -15404612.06747  21323248.658    21323257.9894
  20787120.768   -21437896.742 9 -16681290.71647  20787124.224    20787131.9034
  24130948.019    -1516134.759 8  -1156184.72945  24130945.369    24130957.4724
  21448173.414   -16862180.227 9 -13117976.96247  21448175.166    21448183.0954
 00  6 29  1 16  0.0000000  0  7 11 25 05 21 29 15 30
  23974146.552    -4442891.475 7  -3453128.51245  23974151.045    23974161.6544
  20979481.008   -23069842.290 9 -17963534.08248  20979483.120    20979490.6334
  23555802.161    -7823569.055 8  -6079593.19845  23555807.869    23555819.2884
  21338793.328   -19698858.584 8 -15340944.80847  21338796.791    21338806.1364
  20792374.780   -21410291.414 9 -16659780.08347  20792377.632    20792384.7394
  24149440.934    -1418905.772 8  -1080422.02445  24149446.949    24149459.5334
  21450996.470   -16847339.297 9 -13106412.61147  21450999.370    21451007.0844
 00  6 29  1 16 30.0000000  0  7 11 25 05 21 29 15 30
  23980079.679    -4411738.897 7  -3428853.82945  23980080.128    23980088.3774
  20972812.676   -23104882.801 9 -17990838.35448  20972815.348    20972822.7624
  23570743.908    -7745062.660 8  -6018419.49645  23570746.797    23570758.9324
  21354431.515   -19616705.187 9 -15276929.24747  21354430.587    21354438.9814
  20797678.483   -21382417.413 9 -16638060.09347  20797681.725    20797689.1914
  24167952.811    -1321649.173 8  -1004637.79645  24167953.979    24167967.3014
  21453933.298   -16831890.374 9 -13094374.49647  21453939.278    21453946.4674
 00  6 29  1 17  0.0000000  0  7 11 25 05 21 29 15 30
  23986086.954    -4380162.264 7  -3404248.71745  23986087.429    23986098.1094
  20966205.009   -23139597.410 9 -18017888.68548  20966209.066    20966216.6794
  23585756.551    -7666176.162 8  -5956949.58846  23585759.246    23585770.2944
  21370144.275   -19534106.757 9 -15212566.89347  21370148.358    21370157.2174
  20803033.907   -21354274.283 9 -16616130.38747  20803037.323    20803044.8204
  24186468.754    -1224368.302 8   -928834.69845  24186466.910    24186479.5794
  21456990.809   -16815834.147 9 -13081863.15947  21456994.313    21457002.6544
 00  6 29  1 17 30.0000000  0  7 11 25 05 21 29 15 30
  23992172.631    -4348163.708 7  -3379314.81645  23992177.597    23992188.1104
  20959662.933   -23173986.273 9 -18044685.17948  20959664.833    20959672.5484
  23600841.211    -7586911.733 8  -5895185.18046  23600842.489    23600854.0944
  21385949.852   -19451065.733 9 -15147859.67447  21385950.647    21385959.1484
  20808440.393   -21325861.584 9 -16593990.63047  20808444.037    20808451.8554
  24204970.512    -1127066.373 8   -853015.17245  24204982.503    24204996.2444
  21460161.515   -16799171.241 9 -13068879.08747  21460165.166    21460173.1514
 00  6 29  1 18  0.0000000  0  7 11 25 05 21 29 15 30
  23998344.459    -4315745.238 7  -3354053.71045  23998344.995    23998356.6544
  20953180.324   -23208049.966 9 -18071228.29448  20953182.628    20953190.3914
  23615993.996    -7507272.098 8  -5833128.43546  23615998.316    23616008.6924
  21401830.484   -19367584.400 8 -15082809.33447  21401835.937    21401844.6854
  20813899.572   -21297178.778 9 -16571640.41047  20813902.054    20813909.8614
  24223508.935    -1029746.149 8   -777181.39245  24223501.998    24223515.0684
  21463447.739   -16781902.094 9 -13055422.61547  21463451.708    21463459.6864
 00  6 29  1 18 30.0000000  0  7 11 25 05 21 29 15 30
  24004588.059    -4282908.870 7  -3328466.99345  24004594.479    24004606.0374
  20946759.612   -23241788.629 9 -18097518.14548  20946762.956    20946770.0724
  23631224.007    -7427259.666 8  -5770781.15045  23631224.505    23631234.2794
  21417800.493   -19283664.714 8 -15017417.42847  21417805.893    21417814.8804
  20819407.811   -21268225.597 9 -16549079.49547  20819411.554    20819419.4014
  24242017.058     -932410.706 7   -701335.77945  24242024.850    24242037.9574
  21466850.736   -16764027.227 9 -13041494.14647  21466853.105    21466860.7724
 00  6 29  1 19  0.0000000  0  7 11 25 05 21 29 15 30
  24010917.661    -4249656.575 7  -3302556.14345  24010921.942    24010933.0824
  20940402.233   -23275202.446 9 -18123554.87348  20940404.544    20940411.8754
  23646518.765    -7346876.974 8  -5708145.36746  23646520.879    23646531.7434
  21433857.210   -19199308.848 8 -14951685.65347  21433857.985    21433867.2554
  20824970.604   -21239001.479 9 -16526307.46147  20824973.353    20824980.4394
  24260542.837     -835063.382 8   -625480.89045  24260548.000    24260561.1914
  21470367.322   -16745547.227 9 -13027094.15147  21470369.937    21470377.3304
 00  6 29  1 19 30.0000000  0  7 11 25 05 21 29 15 30
  24017326.397    -4215990.291 7  -3276322.72145  24017327.606    24017340.3694
  20934104.725   -23308291.926 9 -18149338.87048  20934107.460    20934115.0154
  23661887.156    -7266126.190 8  -5645222.75546  23661886.752    23661897.7434
  21449992.756   -19114519.235 8 -14885615.89447  21449993.401    21450002.3254
  20830584.058   -21209506.004 9 -16503323.98147  20830586.216    20830592.9824
  24279077.736     -737707.181 8   -549619.09845  24279075.816    24279088.5564
  21473999.542   -16726462.854 9 -13012223.21347  21474001.500    21474008.8554
 00  6 29  1 20  0.0000000  0  8 11 25 05 21 20 29 15 30
  24023807.516    -4181912.034 7  -3249768.25545  24023812.191    24023823.9964
  20927869.934   -23341057.291 9 -18174870.30948  20927872.580    20927879.7824
  23677323.005    -7185009.987 8  -5582015.42446  23677322.800    23677333.6944
  21466205.951   -19029298.241 8 -14819209.98947  21466210.145    21466219.5244
  24685531.240    -1157454.15317   -886387.74255  24685532.480    24685542.0224
  20836247.727   -21179738.594 9 -16480128.60447  20836250.598    20836257.6554
  24297585.785     -640345.201 7   -473752.76845  24297602.106    24297616.2824
  21477746.634   -16706774.772 9 -12996881.85047  21477748.001    21477755.6444
 00  6 29  1 20 30.0000000  0  8 11 25 05 21 20 29 15 30
  24030377.400    -4147424.121 8  -3222894.56845  24030377.216    24030387.3684
  20921696.191   -23373498.749 9 -18200149.34848  20921699.159    20921706.6474
  23692825.640    -7103530.827 8  -5518525.23645  23692827.822    23692839.1514
  21482508.742   -18943647.885 8 -14752469.54247  21482508.988    21482518.6534
  24665798.933    -1261115.515 7   -967162.39545  24665805.817    24665815.6034
  20841965.138   -21149698.922 9 -16456721.07847  20841967.068    20841974.3014
  24316135.884     -542980.613 8   -397884.44545  24316131.448    24316142.7994
  21481603.969   -16686483.725 9 -12981070.64947  21481608.965    21481616.7524
 00  6 29  1 21  0.0000000  0  8 11 25 05 21 20 29 15 30
  24037011.552    -4112528.475 8  -3195703.13045  24037017.811    24037027.5054
  20915583.947   -23405616.583 9 -18225176.21948  20915587.600    20915594.8334
  23708392.586    -7021691.027 8  -5454754.03645  23708401.043    23708412.6844
  21498882.064   -18857570.788 8 -14685396.53547  21498888.596    21498898.2124
  24646104.676    -1364609.126 7  -1047806.29145  24646109.992    24646121.9194
  20847731.829   -21119386.484 9 -16433101.00747  20847735.574    20847742.5824
  24334648.696     -445616.552 7   -322016.51845  24334658.554    24334672.6274
  21485586.678   -16665590.351 9 -12964790.11147  21485584.844    21485592.6334
 00  6 29  1 21 30.0000000  0  8 11 25 05 21 20 29 15 30
  24043729.933    -4077227.147 7  -3168195.62645  24043734.709    24043744.2514
  20909535.516   -23437411.185 9 -18249951.21948  20909537.278    20909544.4254
  23724044.958    -6939492.787 8  -5390703.53145  23724043.390    23724055.3744
  21515349.656   -18771068.782 8 -14617992.44847  21515350.032    21515359.1514
  24626451.444    -1467932.434 8  -1128317.47945  24626449.210    24626458.5704
  20853551.888   -21088800.990 9 -16409268.15947  20853555.883    20853562.6824
  24353185.166     -348255.821 7   -246151.18745  24353185.709    24353199.7254
  21489672.715   -16644095.626 9 -12948040.97747  21489675.179    21489683.1414
 00  6 29  1 22  0.0000000  0  8 11 25 05 21 20 29 15 30
  24050524.670    -4041522.323 7  -3140373.68345  24050527.919    24050539.7394
  20903544.746   -23468883.093 9 -18274474.76248  20903548.075    20903555.3664
  23739747.767    -6856938.987 8  -5326375.98045  23739752.746    23739763.8884
  21531887.655   -18684144.225 8 -14550259.09347  21531890.403    21531900.1724
  24606822.529    -1571083.194 8  -1208694.52945  24606819.291    24606830.0524
  20859424.525   -21057941.861 9 -16385222.09547  20859427.994    20859434.9664
  24371710.698     -250901.552 7   -170290.92745  24371710.676    24371725.8264
  21493878.481   -16622000.160 9 -12930823.73747  21493879.896    21493888.0344
 00  6 29  1 22 30.0000000  0  8 11 25 05 21 20 29 15 30
  24057399.159    -4005415.993 8  -3112238.85545  24057400.719    24057410.1134
  20897615.908   -23500032.608 9 -18298747.09848  20897620.274    20897627.5974
  23755520.011    -6774031.866 8  -5261773.07745  23755528.873    23755540.4684
  21548511.540   -18596799.761 8 -14482198.55047  21548511.868    21548520.7324
  24587218.870    -1674058.295 7  -1288934.48445  24587223.604    24587234.0154
  20865349.910   -21026808.645 9 -16360962.45547  20865352.223    20865359.6144
  24390228.209     -153557.043 8    -94438.21945  24390236.701    24390250.6414
  21498194.724   -16599304.589 9 -12913138.88747  21498198.733    21498206.4164
 00  6 29  1 23  0.0000000  0  8 11 25 05 21 20 29 15 30
  24064343.708    -3968910.538 7  -3083793.04445  24064345.421    24064356.6914
  20891752.685   -23530859.576 9 -18322768.09348  20891754.157    20891761.5864
  23771355.853    -6690774.139 8  -5196896.97845  23771371.876    23771384.0404
  21565209.664   -18509037.622 8 -14413812.53247  21565212.570    21565222.4504
  24567660.067    -1776856.021 7  -1369036.51245  24567661.867    24567673.6134
  20871325.972   -20995400.947 9 -16336488.93947  20871328.775    20871336.3694
  24408768.663      -56225.220 7    -18595.38845  24408757.731    24408771.6774
  21502628.012   -16576009.831 9 -12894987.13647  21502631.501    21502639.4094
 00  6 29  1 23 30.0000000  0  8 11 25 05 21 20 29 15 30
  24071368.462    -3932008.021 7  -3055037.85445  24071369.403    24071379.0754
  20885944.870   -23561364.901 9 -18346538.46248  20885949.343    20885956.8124
  23787279.989    -6607168.321 8  -5131749.68745  23787281.072    23787293.7764
  21581987.915   -18420860.388 8 -14345103.07947  21581992.708    21582001.5334
  24548136.480    -1879472.958 7  -1448997.68445  24548134.046    24548144.1794
  20877354.053   -20963718.402 9 -16311801.26147  20877357.514    20877365.2564
  24427263.703       41090.792 7     57235.06545  24427276.315    24427290.4144
  21507175.800   -16552116.867 9 -12876369.25447  21507178.446    21507185.9424
 00  6 29  1 24  0.0000000  0  8 11 25 05 21 20 29 15 30
  24078465.531    -3894710.470 7  -3025974.82445  24078466.275    24078476.9254
  20880203.926   -23591548.523 9 -18370058.15248  20880205.825    20880213.0524
  23803248.079    -6523216.622 8  -5066332.83245  23803256.489    23803269.7334
  21598849.221   -18332269.918 8 -14276071.61147  21598850.979    21598860.0024
  24528637.524    -1981906.924 7  -1528816.30645  24528641.798    24528652.6944
  20883435.494   -20931760.587 9 -16286899.08447  20883439.136    20883446.5314
  24445788.130      138387.850 8    133050.77145  24445792.538    24445804.3514
  21511836.039   -16527626.425 9 -12857285.81047  21511838.961    21511846.7644
 00  6 29  1 24 30.0000000  0  8 11 25 05 21 20 29 15 30
  24085634.501    -3857020.034 7  -2996605.66045  24085636.315    24085649.0304
  20874519.429   -23621410.690 9 -18393327.35148  20874523.240    20874530.5304
  23819295.822    -6438921.531 8  -5000648.39545  23819298.456    23819310.3684
  21615785.446   -18243268.958 8 -14206720.29847  21615787.126    21615796.4034
  24509189.511    -2084155.182 7  -1608490.39245  24509184.293    24509194.7484
  20889571.582   -20899526.952 9 -16261781.97947  20889573.330    20889580.3394
  24464307.942      235663.039 8    208849.39945  24464302.898    24464315.9714
  21516608.761   -16502539.565 9 -12837737.60947  21516612.711    21516619.8724
 00  6 29  1 25  0.0000000  0  8 11 25 05 21 20 29 15 30
  24092882.826    -3818938.967 7  -2966932.11645  24092884.842    24092895.8514
  20868897.680   -23650952.109 9 -18416346.61948  20868901.788    20868908.8714
  23835405.519    -6354285.724 8  -4934698.43145  23835404.852    23835416.3374
  21632797.445   -18153859.814 8 -14137050.90947  21632801.294    21632809.4914
  24489753.684    -2186214.932 7  -1688017.50345  24489763.647    24489773.0484
  20895756.738   -20867017.139 9 -16236449.67647  20895759.728    20895766.8934
  24482800.725      332913.269 7    284628.60145  24482808.931    24482823.6824
  21521497.731   -16476857.252 9 -12817725.43647  21521499.899    21521507.6454
 00  6 29  1 25 30.0000000  0  8 11 25 05 21 20 29 15 30
  24100208.103    -3780469.676 8  -2936956.03645  24100206.715    24100216.0054
  20863337.945   -23680173.179 9 -18439116.27748  20863340.953    20863348.0074
  23851571.857    -6269311.706 8  -4868484.93745  23851575.186    23851586.8444
  21649889.771   -18064044.902 8 -14067065.30846  21649892.368    21649901.3944
  24470373.656    -2288083.483 7  -1767395.65445  24470378.115    24470388.5994
  20901995.373   -20834230.736 9 -16210901.85347  20901998.335    20902006.0254
  24501301.540      430135.516 7    360386.00945  24501309.797    24501324.1414
  21526499.051   -16450580.058 9 -12797249.70947  21526499.851    21526507.5494
 00  6 29  1 26  0.0000000  0  8 11 25 05 21 20 29 15 30
  24107597.539    -3741614.223 7  -2906679.10145  24107599.165    24107610.6214
  20857835.741   -23709074.157 9 -18461636.50648  20857840.797    20857848.0684
  23867811.710    -6184002.143 8  -4802009.97845  23867809.217    23867820.1814
  21667057.931   -17973826.585 8 -13996765.40847  21667060.537    21667069.9584
  24451028.268    -2389758.190 8  -1846622.62745  24451030.830    24451039.6214
  20908286.324   -20801167.245 9 -16185138.12147  20908290.066    20908297.8664
  24519808.135      527326.955 7    436119.43645  24519805.417    24519819.0094
  21531608.859   -16423709.090 9 -12776311.29947  21531613.426    21531621.1944
 00  6 29  1 26 30.0000000  0  7 11 25 05 21 20 29 30
  24115063.321    -3702374.726 7  -2876102.92745  24115066.345    24115077.6784
  20852399.540   -23737655.407 9 -18483907.59548  20852402.314    20852409.5364
  23884102.730    -6098359.393 8  -4735275.33545  23884106.398    23884116.6214
  21684302.360   -17883206.902 8 -13926152.74946  21684304.726    21684313.4494
  24431719.417    -2491236.300 8  -1925696.39445  24431720.319    24431730.0194
  20914631.021   -20767826.338 9 -16159158.21847  20914634.775    20914642.9604
  21536837.441   -16396245.449 9 -12754911.06447  21536839.971    21536847.1294
 00  6 29  1 27  0.0000000  0  7 11 25 05 21 20 29 30
  24122602.875    -3662753.496 7  -2845229.28345  24122606.654    24122616.9994
  20847022.056   -23765917.337 9 -18505929.87248  20847024.644    20847031.3104
  23900463.415    -6012386.043 8  -4668283.08145  23900466.060    23900477.0114
  21701625.248   -17792188.990 8 -13855229.78347  21701625.783    21701634.8814
  24412437.060    -2592515.728 7  -2004615.40045  24412445.582    24412458.4134
  20921028.213   -20734207.595 9 -16132961.81947  20921032.212    20921040.1944
  21542177.540   -16368190.143 9 -12733049.79947  21542178.409    21542186.0474
 00  6 29  1 27 30.0000000  0  7 11 25 05 21 20 29 30
  24130220.897    -3622752.872 8  -2814059.96145  24130219.274    24130228.8394
  20841704.862   -23793860.329 9 -18527703.63048  20841706.977    20841714.0274
  23916890.508    -5926084.720 8  -4601035.25845  23916888.004    23916899.0964
  21719018.025   -17700775.028 8 -13783998.20946  21719020.822    21719029.5834
  24393211.332    -2693593.531 7  -2083377.22545  24393211.120    24393222.9264
  20927479.079   -20700310.649 9 -16106548.63947  20927482.672    20927490.4704
  21547627.145   -16339544.230 9 -12710728.31547  21547629.552    21547637.1994
 00  6 29  1 28  0.0000000  0  7 11 25 05 21 20 29 30
  24137897.642    -3582374.918 7  -2782596.69945  24137901.882    24137913.1194
  20836447.353   -23821484.883 9 -18549229.23948  20836449.878    20836457.5024
  23933371.036    -5839457.680 8  -4533533.67245  23933372.764    23933383.8404
  21736490.367   -17608967.620 8 -13712460.06146  21736491.051    21736499.9484
  24374013.196    -2794467.069 8  -2161979.88845  24374016.763    24374027.3544
  20933983.324   -20666135.038 9 -16079918.31647  20933986.432    20933993.7134
  21553190.509   -16310308.749 9 -12687947.43447  21553193.269    21553200.6084
 00  6 29  1 28 30.0000000  0  7 11 25 05 21 20 29 30
  24145652.003    -3541622.213 7  -2750841.41645  24145656.962    24145666.8684
  20831251.953   -23848791.523 9 -18570507.12448  20831253.926    20831261.0524
  23949923.038    -5752507.526 8  -4465780.31745  23949918.855    23949929.9464
  21754034.061   -17516769.234 8 -13640617.24346  21754035.794    21754045.0874
  24354858.371    -2895133.623 7  -2240421.25445  24354859.482    24354870.8494
  20940540.337   -20631680.499 9 -16053070.64747  20940542.785    20940550.4704
  21558865.238   -16280484.835 9 -12664708.03047  21558868.293    21558875.6864
 00  6 29  1 29  0.0000000  0  7 11 25 05 21 20 29 30
  24153483.502    -3500497.056 7  -2718795.87945  24153484.311    24153494.6654
  20826115.387   -23875780.045 9 -18591537.14048  20826118.396    20826125.0324
  23966527.351    -5665236.615 8  -4397777.00845  23966525.625    23966537.2634
  21771652.563   -17424181.376 8 -13568470.93246  21771654.827    21771663.7244
  24335734.437    -2995590.432 7  -2318699.03645  24335743.175    24335755.8674
  20947150.064   -20596946.328 9 -16026005.08047  20947152.535    20947160.2244
  21564654.075   -16250073.553 9 -12641010.93047  21564655.614    21564663.2034
 00  6 29  1 29 30.0000000  0  7 11 25 05 21 20 29 30
  24161376.941    -3459001.439 7  -2686461.69545  24161379.793    24161389.4284
  20821040.012   -23902451.471 9 -18612320.05848  20821042.875    20821049.6974
  23983185.200    -5577647.782 8  -4329525.96445  23983193.857    23983204.8264
  21789343.894   -17331207.992 8 -13496024.22646  21789346.721    21789356.6624
  24316667.412    -3095835.022 8  -2396811.55545  24316667.754    24316677.9494
  20953812.367   -20561932.484 9 -15998721.58947  20953815.760    20953823.0704
  21570548.689   -16219075.939 9 -12616856.95347  21570553.954    21570561.8644
 00  6 29  1 30  0.0000000  0  7 11 25 05 21 20 29 30
  24169340.460    -3417137.823 7  -2653840.75445  24169345.895    24169357.2914
  20816025.822   -23928805.992 9 -18632856.03848  20816027.868    20816034.7434
  23999922.265    -5489743.395 8  -4261029.00545  23999921.104    23999932.5814
  21807108.748   -17237851.206 8 -13423278.78746  21807111.904    21807121.7894
  24297628.003    -3195864.984 7  -2474756.77845  24297631.493    24297642.8754
  20960527.415   -20526638.302 9 -15971219.64947  20960531.839    20960539.1004
  21576560.812   -16187493.251 9 -12592247.07147  21576564.036    21576572.0344
 00  6 29  1 30 30.0000000  0  7 11 25 05 21 20 29 30
  24177382.327    -3374908.692 7  -2620934.99045  24177383.039    24177391.8024
  20811070.545   -23954844.082 9 -18653145.45248  20811072.941    20811079.6814
  24016711.230    -5401526.047 8  -4192288.17945  24016709.084    24016719.1334
  21824950.490   -17144113.624 8 -13350236.60146  21824949.697    21824959.4464
  24278638.971    -3295677.379 7  -2552532.48045  24278638.653    24278649.3754
  20967298.403   -20491063.624 9 -15943499.14047  20967301.657    20967308.8534
  21582680.792   -16155326.749 9 -12567182.28347  21582685.069    21582692.9384
 00  6 29  1 31  0.0000000  0  7 11 25 05 21 20 29 30
  24185483.913    -3332316.248 8  -2587746.10745  24185487.554    24185497.5174
  20806174.223   -23980566.021 9 -18673188.51548  20806178.161    20806185.0424
  24033546.613    -5312998.638 7  -4123305.76645  24033553.912    24033565.3054
  21842856.387   -17049996.892 8 -13276898.99646  21842860.277    21842869.3884
  24259678.848    -3395269.760 7  -2630136.74345  24259686.056    24259697.3954
  20974121.828   -20455208.044 9 -15915559.74847  20974124.671    20974131.7784
  21588914.527   -16122577.388 9 -12541663.30347  21588917.251    21588924.6704
 00  6 29  1 31 30.0000000  0  7 11 25 05 21 20 29 30
  24193657.417    -3289362.842 7  -2554275.98145  24193660.107    24193670.9654
  20801340.992   -24005972.426 9 -18692985.70748  20801343.512    20801350.6474
  24050456.590    -5224163.410 7  -4054083.50345  24050458.292    24050470.1784
  21860839.742   -16955503.828 8 -13203268.12246  21860841.847    21860851.3684
  24240769.984    -3494639.205 7  -2707567.26045  24240775.927    24240788.3484
  20980997.879   -20419070.900 9 -15887400.95347  20981001.203    20981008.5284
  21595256.131   -16089246.566 9 -12515691.24647  21595260.102    21595267.1384
 00  6 29  1 32  0.0000000  0  7 11 25 05 21 20 29 30
  24201898.991    -3246051.016 7  -2520526.56145  24201903.337    24201913.3764
  20796564.716   -24031063.708 9 -18712537.35148  20796568.525    20796575.9574
  24067415.289    -5135023.151 7  -3984623.55345  24067421.804    24067432.4694
  21878891.643   -16860637.236 8 -13129346.21846  21878894.003    21878903.6604
  24221908.497    -3593783.459 7  -2784822.35445  24221910.596    24221921.1344
  20987927.293   -20382651.982 9 -15859022.60247  20987931.349    20987938.8554
  21601713.677   -16055335.774 9 -12489267.26047  21601713.311    21601720.3554
 00  6 29  1 32 30.0000000  0  7 11 25 05 21 20 29 30
  24210206.688    -3202382.933 7  -2486499.55245  24210212.808    24210224.8134
  20791848.634   -24055840.358 9 -18731843.82148  20791853.429    20791861.0744
  24084442.500    -5045580.111 8  -3914927.67545  24084441.981    24084453.5464
  21897013.889   -16765399.831 8 -13055135.34146  21897017.557    21897027.1374
  24203081.515    -3692699.475 8  -2861899.59445  24203086.652    24203098.5574
  20994913.091   -20345951.010 9 -15830424.46647  20994915.165    20994922.9944
  21608276.180   -16020845.739 9 -12462391.92147  21608276.307    21608283.2124
 00  6 29  1 33  0.0000000  0  7 11 25 05 21 20 29 30
  24218583.741    -3158361.011 7  -2452196.83045  24218589.628    24218601.1494
  20787195.285   -24080302.554 9 -18750905.26048  20787198.491    20787206.1024
  24101515.055    -4955836.988 8  -3844997.90845  24101520.138    24101531.8154
  21915210.432   -16669794.546 8 -12980637.81846  21915210.476    21915219.6084
  24184303.104    -3791384.612 7  -2938796.94845  24184307.749    24184318.9434
  21001951.069   -20308967.653 9 -15801606.29147  21001952.738    21001960.8934
  21614944.453   -15985778.077 9 -12435066.46847  21614949.493    21614957.0924
 00  6 29  1 33 30.0000000  0  7 11 25 05 21 20 29 30
  24227031.172    -3113987.729 7  -2417620.28345  24227032.881    24227043.6414
  20782600.534   -24104451.234 9 -18769722.40948  20782603.418    20782610.6944
  24118656.014    -4865796.353 8  -3774836.34645  24118654.272    24118665.3904
  21933467.195   -16573823.376 8 -12905855.17846  21933472.995    21933482.6734
  24165569.362    -3889836.225 7  -3015512.34845  24165573.244    24165583.1684
  21009039.419   -20271701.407 9 -15772567.68347  21009044.278    21009052.3654
  21621730.160   -15950134.038 9 -12407291.89747  21621732.528    21621739.8824
 00  6 29  1 34  0.0000000  0  8 11 25 05 21 22 20 29 30
  24235542.052    -3069265.445 7  -2382771.79645  24235543.378    24235555.6194
  20778065.628   -24128286.675 9 -18788295.47948  20778067.594    20778074.8664
  24135840.891    -4775460.633 8  -3704444.86645  24135844.476    24135855.8644
  21951804.631   -16477489.235 8 -12830789.71546  21951805.402    21951814.9464
  24513720.135    -4318695.11517  -3339306.59555  24513716.477    24513730.4024
  24146877.139    -3988051.779 7  -3092043.72845  24146882.426    24146892.7374
  21016187.137   -20234152.060 9 -15743308.47747  21016189.560    21016197.6704
  21628619.901   -15913915.030 9 -12379069.29247  21628624.450    21628632.5104
 00  6 29  1 34 30.0000000  0  8 11 25 05 21 22 20 29 30
  24244115.642    -3024196.783 7  -2347653.42345  24244118.851    24244131.9614
  20773586.393   -24151809.012 9 -18806624.56548  20773591.499    20773598.6514
  24153091.231    -4684832.591 8  -3633825.57845  24153090.797    24153102.5924
  21970201.935   -16380794.427 8 -12755443.20546  21970205.349    21970215.0944
  24490677.926    -4439757.585 7  -3433640.74945  24490679.833    24490694.0014
  24128235.543    -4086028.460 7  -3168388.99445  24128238.022    24128248.4074
  21023388.016   -20196318.975 9 -15713828.17347  21023388.967    21023397.1804
  21635621.645   -15877122.500 9 -12350399.78647  21635625.504    21635633.3954
 00  6 29  1 35  0.0000000  0  8 11 25 05 21 22 20 29 30
  24252758.262    -2978783.964 7  -2312266.85845  24252761.799    24252773.4504
  20769169.931   -24175018.904 9 -18824710.19348  20769174.435    20769182.0094
  24170389.916    -4593914.616 8  -3562980.35945  24170391.287    24170402.6944
  21988674.374   -16283741.758 8 -12679817.84146  21988674.109    21988683.8344
  24467638.762    -4560802.463 7  -3527961.19845  24467646.368    24467659.6684
  24109636.132    -4183763.564 7  -3244546.07045  24109639.940    24109650.5014
  21030638.998   -20158202.191 9 -15684126.80447  21030642.681    21030650.3164
  21642732.416   -15839757.574 9 -12321284.26147  21642735.899    21642743.4914
 00  6 29  1 35 30.0000000  0  8 11 25 05 21 22 20 29 30
  24261463.270    -2933029.412 7  -2276613.99045  24261470.062    24261480.4194
  20764813.938   -24197916.821 9 -18842552.71148  20764817.517    20764824.6544
  24187739.733    -4502709.235 8  -3491911.19545  24187747.626    24187758.4634
  22007206.133   -16186333.334 8 -12603915.28346  22007210.505    22007219.8884
  24444619.289    -4681827.320 7  -3622266.10445  24444615.963    24444628.5324
  24091084.429    -4281254.649 8  -3320513.00545  24091088.596    24091098.7084
  21037947.033   -20119801.135 9 -15654203.92447  21037950.359    21037957.8404
  21649952.316   -15801821.648 9 -12291723.80347  21649955.320    21649962.7474
 00  6 29  1 36  0.0000000  0  8 11 25 05 21 22 20 29 30
  24270234.684    -2886935.541 7  -2240696.77045  24270240.843    24270251.1944
  20760516.016   -24220503.217 9 -18860152.48848  20760519.359    20760526.4314
  24205155.148    -4411219.144 8  -3420620.16645  24205157.257    24205168.9704
  22025810.121   -16088572.204 8 -12527737.87746  22025813.946    22025824.1034
  24421596.747    -4802829.900 8  -3716553.63845  24421590.023    24421601.8004
  24072580.727    -4378498.792 8  -3396287.52545  24072584.149    24072593.3254
  21045308.325   -20081115.707 9 -15624059.45547  21045311.795    21045319.1344
  21657280.137   -15763316.186 9 -12261719.55747  21657282.272    21657290.1654
 00  6 29  1 36 30.0000000  0  8 11 25 05 21 22 20 29 30
  24279075.886    -2840505.001 7  -2204517.21245  24279075.934    24279087.2914
  20756275.979   -24242778.556 9 -18877509.88348  20756280.346    20756287.6524
  24222621.126    -4319446.968 8  -3349109.30345  24222620.876    24222631.9394
  22044477.083   -15990461.471 8 -12451288.07046  22044484.131    22044493.6224
  24398570.492    -4923807.702 7  -3810821.88045  24398568.115    24398581.6144
  24054120.522    -4475493.478 7  -3471867.70045  24054125.502    24054135.8174
  21052725.202   -20042145.243 9 -15593692.87047  21052727.933    21052735.3474
  21664714.125   -15724242.889 9 -12231272.83047  21664717.528    21664725.1844
 00  6 29  1 37  0.0000000  0  8 11 25 05 21 22 20 29 30
  24287971.669    -2793740.544 8  -2168077.41645  24287974.961    24287984.8734
  20752099.171   -24264743.523 9 -18894625.43848  20752100.665    20752107.8424
  24240137.744    -4227395.185 8  -3277380.57345  24240138.015    24240148.5094
  22063222.167   -15892003.085 8 -12374567.35546  22063220.394    22063229.7074
  24375553.182    -5044757.780 7  -3905068.51845  24375552.007    24375565.6924
  24035716.750    -4572236.009 8  -3547251.32045  24035715.860    24035725.5244
  21060192.772   -20002889.479 9 -15563103.98347  21060197.829    21060205.5044
  21672260.495   -15684603.050 9 -12200384.65247  21672261.010    21672268.5364
 00  6 29  1 37 30.0000000  0  8 11 25 05 21 22 20 29 30
  24296936.715    -2746644.372 8  -2131379.10645  24296937.563    24296947.4514
  20747975.666   -24286398.729 9 -18911499.62448  20747979.538    20747986.9344
  24257705.508    -4135066.621 8  -3205436.14445  24257707.452    24257717.9484
  22082021.729   -15793199.987 8 -12297578.04446  22082021.714    22082031.1204
  24352546.753    -5165677.260 8  -3999291.31645  24352541.906    24352553.7784
  24017353.465    -4668723.500 8  -3622436.22345  24017355.610    24017364.3524
  21067721.310   -19963348.190 9 -15532292.60647  21067722.619    21067730.0054
  21679905.534   -15644398.166 9 -12169056.16947  21679911.419    21679919.2874
 00  6 29  1 38  0.0000000  0  8 11 25 05 21 22 20 29 30
  24305952.218    -2699218.757 7  -2094424.11045  24305961.860    24305971.3544
  20743915.096   -24307744.340 9 -18928132.55748  20743917.677    20743925.1644
  24275323.114    -4042463.652 8  -3133277.91345  24275328.820    24275339.5764
  22100885.028   -15694055.330 8 -12220322.59046  22100887.763    22100897.4464
  24329543.823    -5286563.807 7  -4093488.46445  24329536.633    24329550.7014
  23999041.147    -4764953.380 8  -3697420.39945  23999042.550    23999050.9304
  21075296.937   -19923521.025 9 -15501258.46847  21075301.125    21075308.9304
  21687665.419   -15603629.735 9 -12137288.56847  21687669.732    21687677.4464
 00  6 29  1 38 30.0000000  0  8 11 25 05 21 22 20 29 30
  24315047.968    -2651466.391 7  -2057214.52945  24315048.938    24315060.1004
  20739911.113   -24328781.212 9 -18944524.92648  20739914.602    20739921.8804
  24292997.150    -3949588.913 8  -3060907.90745  24293002.668    24293012.8994
  22119818.824   -15594571.595 8 -12142802.89846  22119819.350    22119829.4624
  24306527.841    -5407415.146 7  -4187658.16745  24306538.948    24306551.4494
  23980773.472    -4860922.935 8  -3772201.72145  23980779.891    23980789.7294
  21082931.401   -19883407.507 9 -15470001.20047  21082934.897    21082942.0334
  21695534.429   -15562299.367 9 -12105083.08747  21695535.258    21695542.1414
 00  6 29  1 39  0.0000000  0  8 11 25 05 21 22 20 29 30
  24324195.696    -2603389.751 8  -2019752.27545  24324198.000    24324208.5624
  20735967.749   -24349509.705 9 -18960676.99548  20735970.156    20735977.3084
  24310724.551    -3856444.987 8  -2988328.15245  24310727.381    24310738.0104
  22138806.117   -15494750.961 8 -12065020.70046  22138814.729    22138824.1824
  24283551.669    -5528228.502 7  -4281798.34645  24283549.342    24283562.2424
  23962565.047    -4956629.719 8  -3846778.28045  23962568.356    23962576.9954
  21090619.534   -19843007.641 9 -15438520.79447  21090622.460    21090629.9184
  21703504.401   -15520408.483 9 -12072440.84247  21703506.368    21703514.1604
 00  6 29  1 39 30.0000000  0  8 11 25 05 21 22 20 29 30
  24333408.342    -2554991.294 7  -1982039.20745  24333408.139    24333419.2644
  20732081.692   -24369930.082 9 -18976588.97348  20732084.403    20732091.5564
  24328496.928    -3763034.351 8  -2915540.53045  24328502.511    24328512.5574
  22157876.550   -15394596.250 8 -11986978.14246  22157874.121    22157883.9594
  24260568.643    -5649001.008 7  -4375906.60645  24260567.348    24260580.9394
  23944407.115    -5052070.625 8  -3921147.71245  23944405.550    23944414.1664
  21098362.995   -19802320.912 9 -15406816.87047  21098365.215    21098372.6644
  21711580.621   -15477958.614 9 -12039363.03147  21711583.657    21711592.2184
 00  6 29  1 40  0.0000000  0  8 11 25 05 21 22 20 29 30
  24342672.103    -2506273.622 7  -1944077.43445  24342677.057    24342688.9634
  20728251.769   -24390042.836 9 -18992261.23648  20728256.830    20728264.3394
  24346326.346    -3669359.426 8  -2842546.97645  24346328.033    24346338.6324
  22176994.783   -15294109.754 8 -11908677.09446  22176996.210    22177006.4264
  24237590.254    -5769729.848 7  -4469980.92445  24237593.895    24237605.0084
  23926292.428    -5147243.133 8  -3995307.96445  23926293.385    23926304.5494
  21106158.392   -19761347.142 9 -15374889.27947  21106161.842    21106169.7474
  21719765.950   -15434951.528 9 -12005851.02947  21719767.598    21719776.1294
 00  6 29  1 40 30.0000000  0  8 11 25 05 21 22 20 29 30
  24351999.520    -2457239.524 7  -1905869.09645  24352009.761    24352020.2514
  20724485.249   -24409848.798 9 -19007694.44248  20724488.087    20724495.1394
  24364205.171    -3575423.012 8  -2769349.58745  24364204.157    24364213.5414
  22196179.915   -15193295.153 8 -11830120.39546  22196179.920    22196190.4044
  24214620.070    -5890412.664 8  -4564019.34445  24214627.113    24214640.8014
  23908237.675    -5242144.692 8  -4069257.18845  23908236.742    23908245.6644
  21114011.423   -19720085.962 9 -15342737.72647  21114013.659    21114021.4204
  21728055.091   -15391388.615 9 -11971905.90647  21728057.144    21728065.6074
 00  6 29  1 41  0.0000000  0  8 11 25 05 21 22 20 29 30
  24361392.993    -2407891.188 7  -1867415.86745  24361400.198    24361410.7814
  20720774.707   -24429348.400 9 -19022888.92748  20720777.374    20720784.4044
  24382127.085    -3481227.540 8  -2695950.34945  24382128.838    24382138.4734
  22215420.138   -15092154.552 8 -11751309.64946  22215425.547    22215436.6344
  24191678.627    -6011047.178 8  -4658020.11545  24191671.644    24191684.1154
  23890222.662    -5336772.286 8  -4142992.81045  23890228.686    23890237.5124
  21121918.254   -19678537.068 9 -15310361.98547  21121920.080    21121927.9084
  21736450.979   -15347271.860 9 -11937529.21547  21736452.855    21736460.6894
 00  6 29  1 41 30.0000000  0  8 11 25 05 21 22 20 29 30
  24370848.119    -2358231.408 7  -1828719.96845  24370849.869    24370861.1644
  20717123.037   -24448542.120 9 -19037845.06948  20717125.255    20717132.1764
  24400104.690    -3386775.680 8  -2622351.32545  24400101.764    24400111.6914
  22234733.272   -14990691.046 8 -11672247.30246  22234734.128    22234744.9994
  24168726.861    -6131630.683 7  -4751981.16545  24168724.921    24168737.6274
  23872263.619    -5431123.348 8  -4216513.02345  23872273.663    23872283.3924
  21129876.538   -19636700.141 9 -15277761.81047  21129881.215    21129888.7954
  21744949.470   -15302602.567 9 -11902721.98647  21744953.420    21744961.2094
 00  6 29  1 42  0.0000000  0  8 11 25 05 21 22 20 29 30
  24380356.544    -2308262.667 7  -1789783.34745  24380359.009    24380369.4274
  20713527.896   -24467430.386 9 -19052563.19048  20713530.860    20713537.7694
  24418119.683    -3292069.997 8  -2548554.53545  24418123.237    24418134.3734
  22254100.256   -14888907.433 8 -11592935.53346  22254103.369    22254113.9974
  24145778.361    -6252159.999 7  -4845899.95745  24145789.454    24145802.2994
  23854372.897    -5525195.376 8  -4289815.78145  23854372.861    23854382.2864
  21137894.525   -19594574.991 9 -15244937.04547  21137897.711    21137905.4424
  21753553.658   -15257382.490 9 -11867485.56647  21753558.165    21753566.0384
 00  6 29  1 42 30.0000000  0  8 11 25 05 21 22 20 29 30
  24389923.797    -2257987.549 7  -1750607.99045  24389926.548    24389937.6144
  20709991.245   -24486013.902 9 -19067043.84148  20709994.332    20710001.4604
  24436187.802    -3197113.097 8  -2474561.99245  24436193.707    24436203.5364
  22273526.331   -14786806.098 8 -11513376.16346  22273532.978    22273543.1674
  24122859.911    -6372632.481 7  -4939774.44045  24122864.124    24122877.4274
  23836517.922    -5618985.601 8  -4362898.94545  23836524.741    23836533.9844
  21145967.194   -19552161.201 9 -15211887.36247  21145968.948    21145976.6324
  21762266.410   -15211613.457 9 -11831821.38947  21762268.267    21762275.7564
 00  6 29  1 43  0.0000000  0  8 11 25 05 21 22 20 29 30
  24399541.835    -2207408.720 7  -1711195.97045  24399550.730    24399562.0064
  20706511.479   -24504293.245 9 -19081287.46948  20706515.798    20706523.0244
  24454308.938    -3101907.650 8  -2400375.72245  24454310.386    24454320.4324
  22293018.758   -14684389.728 8 -11433571.28446  22293021.918    22293031.6354
  24099951.562    -6493045.821 8  -5033602.88245  24099951.084    24099962.6554
  23818728.139    -5712491.206 8  -4435760.36145  23818731.250    23818741.3644
  21154090.978   -19509458.702 9 -15178612.71247  21154094.916    21154102.5404
  21771077.390   -15165297.188 9 -11795730.78547  21771081.608    21771089.0594
 00  6 29  1 43 30.0000000  0  8 11 25 05 21 22 20 29 30
  24409232.948    -2156528.999 7  -1671549.51645  24409232.327    24409243.8224
  20703091.949   -24522268.729 9 -19095294.32448  20703095.206    20703102.3574
  24472472.521    -3006456.046 8  -2325997.66045  24472474.291    24472483.8594
  22312567.127   -14581661.511 8 -11353523.43646  22312570.258    22312581.0564
  24077046.080    -6613397.737 8  -5127383.42045  24077046.676    24077059.9024
  23800991.158    -5805709.548 8  -4508397.92445  23800992.924    23801001.7564
  21162274.422   -19466467.060 9 -15145112.75747  21162275.676    21162283.5974
  21779994.949   -15118435.337 9 -11759215.06047  21779998.953    21780006.6914
 00  6 29  1 44  0.0000000  0  8 11 25 05 21 22 20 29 30
  24418969.069    -2105350.505 8  -1631670.21245  24418972.133    24418983.0964
  20699729.899   -24539941.181 9 -19109065.05248  20699732.257    20699739.3604
  24490685.000    -2910761.036 8  -2251429.90445  24490684.228    24490693.1134
  22332176.145   -14478623.952 8 -11273234.54946  22332177.818    22332187.9174
  24054157.962    -6733685.157 8  -5221113.72745  24054157.692    24054169.6144
  23783305.934    -5898637.988 8  -4580809.65145  23783308.289    23783317.8904
  21170507.609   -19423186.198 9 -15111387.43647  21170511.526    21170519.9964
  21789016.473   -15071029.654 9 -11722275.58647  21789020.139    21789027.4924
 00  6 29  1 44 30.0000000  0  8 11 25 05 21 22 20 29 30
  24428768.629    -2053876.093 7  -1591560.30045  24428767.141    24428777.4194
  20696423.486   -24557311.043 9 -19122599.99548  20696426.790    20696433.8934
  24508932.302    -2814825.161 7  -2176674.46145  24508939.364    24508949.6174
  22351840.872   -14375279.740 8 -11192706.71646  22351843.748    22351854.3424
  24031276.346    -6853905.294 8  -5314791.59445  24031280.958    24031292.6014
  23765671.672    -5991273.888 8  -4652993.32145  23765679.979    23765691.1814
  21178800.218   -19379615.755 9 -15077436.47347  21178803.079    21178811.4074
  21798141.479   -15023081.703 9 -11684913.55147  21798143.655    21798151.7954
 00  6 29  1 45  0.0000000  0  8 11 25 05 21 22 20 29 30
  24438612.065    -2002108.491 7  -1551221.96745  24438618.750    24438628.9174
  20693176.727   -24574378.848 9 -19135899.55948  20693179.203    20693185.8404
  24527236.092    -2718650.927 7  -2101733.31645  24527240.448    24527249.6824
  22371562.300   -14271631.753 8 -11111942.15846  22371567.426    22371577.9244
  24008412.561    -6974055.390 8  -5408414.89145  24008416.717    24008428.2734
  23748106.294    -6083614.469 8  -4724946.87845  23748109.170    23748118.9834
  21187147.818   -19335755.301 9 -15043259.52447  21187149.444    21187157.5284
  21807366.498   -14974593.499 9 -11647130.54847  21807371.246    21807378.9244
 00  6 29  1 45 30.0000000  0  8 11 25 05 21 22 20 29 30
  24448520.795    -1950050.424 8  -1510657.28845  24448524.741    24448536.5544
  20689985.234   -24591145.388 9 -19148964.38348  20689988.478    20689995.1344
  24545588.357    -2622240.769 7  -2026608.38045  24545586.613    24545596.7134
  22391337.612   -14167683.070 8 -11030943.29246  22391347.600    22391358.8034
  23985556.611    -7094133.063 8  -5501981.73645  23985566.277    23985578.6074
  23730591.215    -6175656.809 8  -4796668.11245  23730593.456    23730602.8504
  21195544.738   -19291604.872 9 -15008856.61547  21195551.063    21195558.9764
  21816699.696   -14925566.780 9 -11608927.91447  21816701.267    21816708.5504
 00  6 29  1 46  0.0000000  0  8 11 25 05 21 22 20 29 30
  24458483.889    -1897704.229 7  -1469868.07545  24458486.137    24458496.9954
  20686853.648   -24607610.518 9 -19161794.34148  20686855.515    20686862.1454
  24563972.062    -2525597.550 7  -1951301.80845  24563979.046    24563986.2464
  22411185.527   -14063436.363 8 -10949712.22346  22411186.246    22411196.7854
  23962726.819    -7214136.003 8  -5595490.33645  23962731.179    23962742.7704
  23713132.720    -6267398.412 8  -4868154.96845  23713135.832    23713146.0834
  21204005.839   -19247163.983 9 -14974227.38447  21204007.818    21204015.8674
  21826133.869   -14876003.361 9 -11570307.06847  21826132.728    21826140.2364
 00  6 29  1 46 30.0000000  0  8 11 25 05 21 22 20 29 30
  24468492.868    -1845072.571 7  -1428856.44745  24468500.434    24468512.7264
  20683775.214   -24623775.304 9 -19174390.25848  20683779.009    20683786.2174
  24582409.352    -2428723.734 7  -1875815.56945  24582411.506    24582420.3484
  22431075.159   -13958893.961 8 -10868250.71946  22431080.247    22431090.1654
  23939911.106    -7334061.105 8  -5688938.29245  23939909.760    23939921.2004
  23695735.081    -6358836.630 8  -4939405.44645  23695735.249    23695746.2194
  21212516.628   -19202432.541 9 -14939371.74247  21212520.099    21212527.9094
  21835662.457   -14825905.170 9 -11531269.51947  21835665.986    21835674.0144
 00  6 29  1 47  0.0000000  0  8 11 25 05 21 22 20 29 30
  24478565.195    -1792158.198 7  -1387624.52145  24478569.362    24478581.9104
  20680757.872   -24639640.666 9 -19186752.87248  20680760.114    20680767.1554
  24600883.298    -2331621.680 7  -1800151.38145  24600888.359    24600898.8474
  22451028.417   -13854058.881 8 -10786561.15346  22451029.340    22451039.9794
  23917105.549    -7453905.597 8  -5782323.42045  23917104.286    23917114.8944
  23678390.338    -6449968.876 8  -5010417.50045  23678394.311    23678403.6344
  21221085.260   -19157410.412 9 -14904289.59247  21221087.843    21221095.0984
  21845296.740   -14775273.846 9 -11491816.54947  21845300.663    21845308.6154
 00  6 29  1 47 30.0000000  0  8 11 25 05 21 22 20 29 30
  24488685.720    -1738963.775 8  -1346174.33245  24488693.224    24488704.7424
  20677794.392   -24655206.683 9 -19198882.21648  20677797.979    20677804.9054
  24619399.827    -2234294.238 7  -1724311.59745  24619409.500    24619419.9214
  22471030.815   -13748934.293 8 -10704646.02646  22471033.803    22471044.4654
  23894311.489    -7573666.734 8  -5875643.60745  23894312.804    23894325.9214
  23661103.514    -6540792.269 8  -5081188.95345  23661111.119    23661120.1444
  21229708.765   -19112097.074 9 -14868980.52347  21229710.681    21229718.3624
  21855034.127   -14724111.247 9 -11451949.60447  21855036.813    21855044.9804
 00  6 29  1 48  0.0000000  0  7 11 25 21 22 20 29 30
  24498865.036    -1685492.076 7  -1304508.12045  24498867.893    24498880.0674
  20674888.463   -24670474.119 9 -19210778.90248  20674892.345    20674899.6624
  22491088.771   -13643522.880 8 -10622507.36646  22491093.616    22491103.9864
  23871539.930    -7693342.319 8  -5968897.10545  23871538.729    23871551.9154
  23643885.626    -6631304.392 8  -5151717.80245  23643885.691    23643896.2414
  21238385.208   -19066492.563 9 -14833444.57147  21238388.855    21238396.6404
  21864871.512   -14672419.448 9 -11411670.29247  21864872.879    21864880.7634
 00  6 29  1 48 30.0000000  0  6 25 21 22 20 29 30
  20672041.388   -24685443.606 9 -19222443.42448  20672044.007    20672051.3374
  22511202.221   -13537827.025 8 -10540147.08246  22511206.442    22511216.6154
  23848776.788    -7812929.618 8  -6062081.82845  23848783.834    23848795.6494
  23626719.473    -6721502.184 8  -5222001.77045  23626722.920    23626732.1834
  21247117.536   -19020596.584 9 -14797681.49847  21247122.649    21247130.2914
  21874806.717   -14620200.332 9 -11370980.07747  21874810.207    21874817.6854
 00  6 29  1 49  0.0000000  0  6 25 21 22 20 29 30
  20669250.048   -24700115.216 9 -19233875.83848  20669252.181    20669259.2804
  22531371.396   -13431850.027 8 -10457567.70246  22531373.264    22531383.5054
  23826046.161    -7932425.809 8  -6155195.56645  23826044.105    23826055.4804
  23609618.118    -6811383.032 8  -5292038.71646  23609618.567    23609629.1714
  21255910.415   -18974408.931 9 -14761691.14747  21255911.566    21255919.5434
  21884846.354   -14567455.898 9 -11329880.52647  21884847.657    21884854.8194
 00  6 29  1 49 30.0000000  0  6 25 21 22 20 29 30
  20666513.379   -24714490.036 9 -19245076.98548  20666516.756    20666523.8084
  22551588.481   -13325594.711 8 -10374771.45546  22551593.097    22551604.0904
  23803323.205    -8051827.837 8  -6248235.91745  23803323.095    23803333.8484
  23592570.730    -6900944.369 8  -5361826.75945  23592575.895    23592585.0624
  21264752.986   -18927929.521 9 -14725473.45747  21264756.631    21264763.9584
  21894978.371   -14514187.924 8 -11288373.02547  21894983.927    21894991.6204
 00  6 29  1 50  0.0000000  0  6 25 21 22 20 29 30
  20663833.514   -24728568.655 9 -19256047.32148  20663837.647    20663844.8154
  22571860.965   -13219063.839 8 -10291760.48946  22571864.918    22571876.1034
  23780618.062    -8171133.292 8  -6341201.03045  23780618.613    23780630.4364
  23575592.906    -6990183.453 8  -5431363.65845  23575593.839    23575603.8854
  21273655.160   -18881158.043 9 -14689028.17847  21273657.125    21273664.9094
  21905213.674   -14460398.251 8 -11246459.01147  21905219.802    21905227.2114
 00  6 29  1 50 30.0000000  0  6 25 21 22 20 29 30
  20661209.649   -24742351.462 9 -19266787.14648  20661214.687    20661221.6974
  22592184.823   -13112259.974 8 -10208536.85046  22592189.137    22592199.8824
  23757939.506    -8290339.747 8  -6434088.96145  23757935.067    23757946.5994
  23558670.427    -7079097.413 8  -5500647.16446  23558674.378    23558684.0354
  21282610.555   -18834094.254 9 -14652355.13047  21282612.734    21282620.8884
  21915555.467   -14406089.079 9 -11204140.19147  21915554.758    21915562.0784
 00  6 29  1 51  0.0000000  0  6 25 21 22 20 29 30
  20658646.315   -24755839.284 9 -19277297.11548  20658648.170    20658654.9364
  22612563.168   -13005186.215 8 -10125102.86346  22612565.107    22612576.0784
  23735262.742    -8409444.628 8  -6526897.77445  23735269.422    23735280.2074
  23541811.403    -7167684.016 8  -5569675.63346  23541815.694    23541826.3034
  21291620.650   -18786738.073 9 -14615454.24147  21291624.541    21291632.0094
  21925984.430   -14351262.158 8 -11161417.93147  21925987.397    21925995.3824
 00  6 29  1 51 30.0000000  0  6 25 21 22 20 29 30
  20656133.198   -24769032.490 9 -19287577.52248  20656137.558    20656144.4604
  22632986.229   -12897845.305 8 -10041460.69346  22632992.366    22633002.5544
  23712627.756    -8528444.840 8  -6619625.07245  23712625.219    23712635.4194
  23525017.661    -7255940.379 8  -5638446.78146  23525022.303    23525032.6344
  21300689.301   -18739089.340 9 -14578325.39747  21300691.968    21300699.4374
  21936515.751   -14295919.952 8 -11118294.15847  21936519.119    21936526.4694
 00  6 29  1 52  0.0000000  0  6 25 21 22 20 29 30
  20653679.244   -24781931.683 9 -19297628.82148  20653682.689    20653689.7874
  22653468.881   -12790239.860 8  -9957612.39146  22653468.819    22653478.5754
  23689985.502    -8647337.493 8  -6712268.51445  23689999.164    23690010.8554
  23508288.998    -7343863.772 8  -5706958.44645  23508288.652    23508299.5194
  21309810.755   -18691147.865 9 -14540968.43447  21309815.008    21309822.5024
  21947142.610   -14240064.232 8 -11074770.25447  21947147.246    21947155.9614
 00  6 29  1 52 30.0000000  0  6 25 21 22 20 29 30
  20651282.143   -24794537.550 9 -19307451.56348  20651284.180    20651290.8754
  22673993.609   -12682372.944 8  -9873560.38346  22673995.037    22674006.2164
  23667401.192    -8766120.053 8  -6804826.18345  23667395.336    23667407.4214
  23491623.955    -7431451.548 8  -5775208.59445  23491623.385    23491632.9964
  21318991.082   -18642913.391 9 -14503383.16647  21318993.482    21319001.1234
  21957870.066   -14183696.846 8 -11030847.63847  21957873.995    21957881.6254
 00  6 29  1 53  0.0000000  0  6 25 21 22 20 29 30
  20648937.073   -24806850.736 9 -19317046.23748  20648940.875    20648947.6914
  22694571.636   -12574247.688 8  -9789307.06046  22694570.180    22694581.4394
  23644810.731    -8884790.313 8  -6897296.33245  23644813.632    23644825.1024
  23475014.807    -7518700.880 8  -5843194.99046  23475019.420    23475030.0894
  21328223.634   -18594385.997 9 -14465569.64447  21328228.123    21328235.8804
  21968694.903   -14126819.899 8 -10986527.95147  21968697.366    21968705.9834
 00  6 29  1 53 30.0000000  0  6 25 21 22 20 29 30
  20646651.201   -24818871.652 9 -19326413.17848  20646653.411    20646660.2064
  22715189.462   -12465867.395 8  -9704855.02346  22715194.346    22715205.8044
  23622240.989    -9003345.465 8  -6989676.78845  23622253.005    23622264.4804
  23458474.261    -7605609.407 8  -5910915.86245  23458480.627    23458490.3464
  21337515.997   -18545565.299 9 -14427527.57647  21337518.543    21337526.1184
  21979615.030   -14069435.580 8 -10941812.92247  21979617.530    21979625.3124
 00  6 29  1 54  0.0000000  0  6 25 21 22 20 29 30
  20644418.281   -24830601.132 9 -19335553.02348  20644421.301    20644428.3664
  22735869.683   -12357234.393 8  -9620206.04546  22735867.246    22735877.9334
  23599719.589    -9121782.445 8  -7081965.15945  23599715.273    23599727.1494
  23442014.403    -7692174.330 8  -5978368.97745  23442009.226    23442018.4654
  21346861.022   -18496451.185 9 -14389256.87647  21346864.256    21346872.5304
  21990631.623   -14011546.011 8 -10896704.19047  21990633.075    21990642.1014
 00  6 29  1 54 30.0000000  0  6 25 21 22 20 29 30
  20642240.944   -24842039.708 9 -19344466.18848  20642244.660    20642251.6554
  22756583.934   -12248351.633 8  -9535362.45346  22756586.297    22756596.3524
  23577196.524    -9240098.260 8  -7174159.13845  23577201.655    23577211.3964
  23425593.938    -7778392.870 8  -6045552.17846  23425603.876    23425611.8744
  21356263.048   -18447043.574 9 -14350757.47547  21356266.618    21356274.2734
  22001742.671   -13953153.282 8 -10851203.39247  22001745.474    22001753.3474
 00  6 29  1 55  0.0000000  0  6 25 21 22 20 29 30
  20640119.616   -24853188.017 9 -19353153.16348  20640123.132    20640130.0894
  22777348.919   -12139221.791 8  -9450326.30845  22777353.339    22777363.9164
  23554703.524    -9358290.713 8  -7266256.98345  23554708.688    23554720.7884
  23409260.339    -7864262.555 8  -6112463.55346  23409261.125    23409271.1254
  21365720.770   -18397342.376 9 -14312029.30347  21365724.035    21365732.2174
  22012951.243   -13894259.494 8 -10805312.15247  22012951.891    22012960.4704
 00  6 29  1 55 30.0000000  0  6 25 21 22 20 29 30
  20638054.821   -24864046.530 9 -19361614.32648  20638056.894    20638063.7624
  22798168.203   -12029847.832 8  -9365099.94146  22798166.046    22798177.3794
  23532237.565    -9476357.309 8  -7358256.75345  23532241.867    23532253.5254
  23392986.863    -7949780.589 8  -6179100.88346  23392987.342    23392997.1104
  21375235.971   -18347347.457 9 -14273072.25147  21375237.663    21375246.1324
  22024252.372   -13834866.785 8 -10759032.13647  22024254.603    22024262.2334
 00  6 29  1 56  0.0000000  0  6 25 21 22 20 29 30
  20636042.057   -24874616.026 9 -19369850.28548  20636045.447    20636052.3394
  22819019.727   -11920232.964 8  -9279685.86646  22819024.717    22819037.3214
  23509796.652    -9594295.213 8  -7450156.23445  23509798.692    23509810.1544
  23376781.286    -8034944.425 8  -6245462.24046  23376782.599    23376790.8244
  21384806.231   -18297058.551 9 -14233886.12247  21384807.728    21384815.5734
  22035650.661   -13774976.946 8 -10712364.76947  22035651.499    22035659.7674
 00  6 29  1 56 30.0000000  0  6 25 21 22 20 29 30
  20634085.072   -24884896.970 9 -19377861.40748  20634089.043    20634096.1534
  22839929.087   -11810379.624 8  -9194086.01646  22839929.980    22839941.6734
  23487377.454    -9712101.345 8  -7541953.03745  23487381.693    23487392.3554
  23360642.474    -8119751.469 8  -6311545.57346  23360644.257    23360652.4184
  21394427.740   -18246475.781 9 -14194471.01147  21394433.153    21394441.7414
  22047139.571   -13714592.580 8 -10665312.04647  22047141.627    22047149.3374
 00  6 29  1 57  0.0000000  0  7 25 21 22 20 29 06 30
  20632185.482   -24894889.972 9 -19385648.15048  20632187.369    20632194.5704
  22860874.073   -11700290.662 8  -9108302.51246  22860880.098    22860891.1074
  23464988.183    -9829773.001 8  -7633645.06345  23464988.523    23464998.9334
  23344568.674    -8204199.192 8  -6377348.92946  23344573.369    23344582.5504
  21404110.330   -18195598.776 8 -14154826.62247  21404114.668    21404122.7014
  24855550.916    -2191460.15117  -1700691.89855  24855553.110    24855566.9414
  22058718.115   -13653715.714 8 -10617875.57047  22058726.434    22058734.0604
 00  6 29  1 57 30.0000000  0  7 25 21 22 20 29 06 30
  20630336.923   -24904595.786 9 -19393211.11548  20630340.289    20630347.4724
  22881866.766   -11589969.092 8  -9022337.74646  22881873.275    22881884.5234
  23442617.879    -9947307.607 8  -7725230.28745  23442621.807    23442632.9574
  23328573.942    -8288284.714 8  -6442870.09446  23328573.811    23328581.5144
  21413849.609   -18144427.692 8 -14114953.08047  21413851.785    21413860.1494
  24843924.633    -2252532.272 7  -1748280.35045  24843930.450    24843944.0764
  22070402.257   -13592348.571 8 -10570057.05747  22070404.188    22070411.7294
 00  6 29  1 58  0.0000000  0  7 25 21 22 20 29 06 30
  20628542.783   -24914015.363 9 -19400551.02548  20628547.504    20628554.9644
  22902906.528   -11479418.263 8  -8936194.36146  22902910.498    22902921.6864
  23420273.328   -10064702.862 8  -7816706.92345  23420281.530    23420292.8334
  23312639.040    -8372005.440 8  -6508106.98346  23312640.919    23312649.6584
  21423643.230   -18092962.280 9 -14074850.20047  21423645.963    21423653.8724
  24832348.581    -2313401.101 7  -1795710.37945  24832346.646    24832360.1774
  22082172.301   -13530493.340 8 -10521858.18947  22082174.507    22082182.6084
 00  6 29  1 58 30.0000000  0  7 25 21 22 20 29 06 30
  20626805.485   -24923148.916 9 -19407668.07148  20626809.501    20626816.9464
  22923989.372   -11368640.716 8  -8849874.30846  22923990.870    22924001.9564
  23397974.000   -10181955.925 8  -7908072.75245  23397968.235    23397981.4984
  23296777.813    -8455358.727 8  -6573057.51846  23296779.772    23296789.1104
  21433491.357   -18041202.600 8 -14034518.00847  21433495.594    21433502.9924
  24820802.566    -2374064.038 7  -1842979.94545  24820803.778    24820816.5034
  22094030.934   -13468152.002 8 -10473280.58147  22094037.425    22094046.3754
 00  6 29  1 59  0.0000000  0  7 25 21 22 20 29 06 30
  20625124.088   -24931997.275 9 -19414562.89648  20625126.002    20625133.1344
  22945112.350   -11257639.274 8  -8763379.81346  22945114.114    22945124.7434
  23375682.836   -10299063.552 8  -7999325.25146  23375685.691    23375696.2394
  23280984.241    -8538342.138 8  -6637719.88746  23280988.133    23280997.6534
  21443399.071   -17989148.504 9 -13993956.40247  21443401.163    21443408.8564
  24809290.464    -2434518.166 7  -1890086.83645  24809299.178    24809312.9414
  22105986.884   -13405326.874 8 -10424325.95346  22105992.166    22106001.5654
 00  6 29  1 59 30.0000000  0  7 25 21 22 20 29 06 30
  20623494.684   -24940560.725 9 -19421235.67948  20623496.116    20623503.5314
  22966273.800   -11146417.172 8  -8676713.36246  22966279.079    22966290.2624
  23353425.622   -10416023.134 8  -8090462.41346  23353428.350    23353439.3784
  23265266.628    -8620952.865 8  -6702091.80646  23265266.097    23265277.0914
  21453359.672   -17936799.887 8 -13953165.30047  21453362.347    21453370.9184
  24797828.786    -2494760.647 7  -1937028.81545  24797834.334    24797849.6154
  22118037.117   -13342020.345 8 -10374996.22747  22118039.920    22118048.7044
 00  6 29  2  0  0.0000000  0  7 25 21 22 20 29 06 30
  20621917.592   -24948840.244 9 -19427687.23648  20621920.966    20621928.0324
  22987477.778   -11034977.058 8  -8589877.02846  22987485.184    22987496.3604
  23331199.480   -10532832.245 8  -8181482.31346  23331200.050    23331210.8134
  23249613.630    -8703188.266 8  -6766171.27646  23249618.278    23249628.4334
  21463379.816   -17884156.646 9 -13912144.62447  21463380.359    21463388.3454
  24786403.922    -2554788.642 7  -1983803.66145  24786413.069    24786426.0864
  22130175.807   -13278234.615 8 -10325293.10146  22130177.443    22130186.1224
 00  6 29  2  0 30.0000000  0  7 25 21 22 20 29 06 30
  20620396.502   -24956836.209 9 -19433917.82548  20620399.388    20620406.6534
  23008727.132   -10923322.125 8  -8502873.31746  23008732.115    23008742.6594
  23308997.423   -10649488.548 8  -8272383.14546  23309000.586    23309011.1814
  23234039.312    -8785045.883 8  -6829956.37046  23234040.630    23234051.5484
  21473452.836   -17831218.830 8 -13870894.40947  21473454.173    21473462.2604
  24775033.662    -2614599.478 7  -2030409.31145  24775030.009    24775041.4914
  22142405.743   -13213971.856 8 -10275218.25247  22142407.097    22142415.5374
 00  6 29  2  1  0.0000000  0  7 25 21 22 20 29 06 30
  20618927.663   -24964549.547 9 -19439928.22048  20618931.526    20618938.4604
  23030021.767   -10811455.032 8  -8415704.25745  23030019.830    23030031.4824
  23286835.319   -10765988.893 8  -8363162.42746  23286831.636    23286841.9044
  23218539.185    -8866523.132 8  -6893445.08646  23218538.284    23218546.1134
  21483581.123   -17777986.275 8 -13829414.51647  21483583.953    21483592.0064
  24763690.028    -2674190.328 7  -2076843.55945  24763691.065    24763704.4794
  22154719.002   -13149234.532 8 -10224773.63946  22154725.822    22154734.5144
 00  6 29  2  1 30.0000000  0  7 25 21 22 20 29 06 30
  20617515.206   -24971980.877 9 -19445718.86648  20617517.418    20617524.3604
  23051349.727   -10699378.753 8  -8328372.23245  23051346.956    23051359.4154
  23264690.302   -10882330.230 8  -8453817.83445  23264692.694    23264701.7464
  23203099.022    -8947617.532 8  -6956635.49546  23203104.403    23203114.0364
  21493764.559   -17724459.097 8 -13787705.06347  21493769.646    21493777.5134
  24752386.192    -2733558.559 7  -2123104.35345  24752391.481    24752405.4024
  22167133.617   -13084024.720 8 -10173960.83646  22167134.783    22167142.6224
 00  6 29  2  2  0.0000000  0  7 25 21 22 20 29 06 30
  20616152.778   -24979130.571 9 -19451290.03848  20616156.889    20616163.8994
  23072704.685   -10587096.323 8  -8240879.55845  23072713.946    23072725.3164
  23242580.816   -10998510.068 8  -8544347.41145  23242583.485    23242594.3004
  23187747.003    -9028326.379 8  -7019525.45846  23187747.528    23187756.5564
  21504005.871   -17670637.257 8 -13745765.98947  21504011.720    21504020.1044
  24741140.779    -2792701.586 7  -2169189.64945  24741139.291    24741152.6604
  22179627.865   -13018344.664 8 -10122781.61846  22179633.254    22179642.3504
 00  6 29  2  2 30.0000000  0  7 25 21 22 20 29 06 30
  20614846.352   -24985999.431 9 -19456642.36548  20614849.941    20614856.8044
  23094117.282   -10474610.714 8  -8153228.53045  23094120.240    23094130.6494
  23220502.516   -11114525.931 8  -8634749.16145  23220505.774    23220517.1644
  23172459.682    -9108646.946 8  -7082112.84046  23172462.678    23172471.2274
  21514307.138   -17616520.455 8 -13703597.08147  21514309.685    21514317.9694
  24729923.359    -2851616.717 7  -2215097.33645  24729928.217    24729942.0414
  22192219.930   -12952196.705 8 -10071237.82946  22192220.859    22192228.9444
 00  6 29  2  3  0.0000000  0  7 25 21 22 20 29 06 30
  20613593.324   -24992587.960 9 -19461776.32248  20613596.083    20613603.2274
  23115562.510   -10361924.876 8  -8065421.51445  23115562.720    23115574.6624
  23198457.582   -11230375.289 8  -8725021.19045  23198460.703    23198470.6814
  23157252.324    -9188576.725 8  -7144395.74546  23157252.121    23157260.1324
  21524659.838   -17562109.121 8 -13661198.67347  21524664.150    21524672.3574
  24718757.652    -2910301.107 7  -2260825.22645  24718759.999    24718772.3294
  22204894.351   -12885583.166 8 -10019331.20746  22204897.131    22204904.9744
 00  6 29  2  3 30.0000000  0  7 25 21 22 20 29 06 30
  20612392.829   -24998896.743 9 -19466692.22948  20612395.422    20612402.7724
  23137044.970   -10249041.783 8  -7977460.79145  23137044.728    23137055.1144
  23176443.673   -11346055.022 8  -8815161.06946  23176447.492    23176458.6244
  23142111.300    -9268113.038 8  -7206372.00846  23142116.524    23142126.4794
  21535072.499   -17507402.889 8 -13618570.46947  21535074.546    21535082.5314
  24707633.457    -2968752.118 7  -2306371.25445  24707635.317    24707649.1684
  22217656.575   -12818506.529 8  -9967063.73146  22217661.416    22217670.2134
 00  6 29  2  4  0.0000000  0  7 25 21 22 20 29 06 30
  20611245.317   -25004926.733 9 -19471390.90548  20611247.993    20611255.0944
  23158562.578   -10135964.071 8  -7889348.39445  23158562.259    23158573.1574
  23154466.040   -11461562.279 8  -8905166.53446  23154466.806    23154477.5354
  23127056.435    -9347253.502 8  -7268039.84446  23127056.967    23127066.9924
  21545538.752   -17452401.796 8 -13575712.51447  21545540.424    21545548.1464
  24696548.997    -3026966.819 7  -2351733.17445  24696558.703    24696571.8794
  22230511.900   -12750969.348 8  -9914437.43646  22230513.208    22230521.8954
 00  6 29  2  4 30.0000000  0  7 25 21 22 20 29 06 30
  20610149.580   -25010678.318 9 -19475872.63748  20610153.431    20610160.6334
  23180115.447   -10022694.564 8  -7801086.57745  23180117.041    23180128.6214
  23132516.737   -11576894.422 8  -8995035.53246  23132519.967    23132530.3654
  23112067.812    -9425995.624 8  -7329397.27046  23112073.095    23112082.2414
  21556060.411   -17397105.837 8 -13532624.78647  21556063.171    21556071.1754
  24685528.724    -3084942.529 8  -2396908.92545  24685526.866    24685538.2494
  22243451.407   -12682973.318 8  -9861453.54446  22243452.857    22243461.0344
 00  6 29  2  5  0.0000000  0  7 25 21 22 20 29 06 30
  20609109.605   -25016152.266 9 -19480138.02548  20609111.729    20609118.7974
  23201708.737    -9909236.443 8  -7712677.79845  23201706.957    23201718.2194
  23110606.075   -11692049.093 8  -9084766.24846  23110606.877    23110617.5854
  23097163.809    -9504336.791 8  -7390442.29846  23097165.490    23097173.5644
  21566639.084   -17341515.122 8 -13489307.37847  21566642.065    21566649.5374
  24674537.118    -3142676.572 8  -2441896.42045  24674540.488    24674551.0014
  22256474.788   -12614521.162 8  -9808114.24746  22256478.624    22256487.6524
 00  6 29  2  5 30.0000000  0  7 25 21 22 20 29 06 30
  20608120.921   -25021348.973 9 -19484187.38548  20608122.958    20608130.0064
  23223323.655    -9795592.498 8  -7624124.22845  23223333.042    23223344.8674
  23088728.906   -11807023.794 8  -9174356.72446  23088728.684    23088739.0174
  23082324.145    -9582274.646 8  -7451173.04346  23082331.962    23082343.0884
  21577275.878   -17285629.661 9 -13445760.29747  21577276.677    21577283.9754
  24663592.119    -3200166.258 7  -2486693.44445  24663599.721    24663613.7074
  22269592.473   -12545615.335 8  -9754421.43946  22269591.174    22269599.6894
 00  6 29  2  6  0.0000000  0  7 25 21 22 20 29 06 30
  20607184.389   -25026269.346 9 -19488021.44248  20607186.622    20607193.6854
  23244993.581    -9681766.174 8  -7535428.53545  23244994.016    23245005.5144
  23066877.608   -11921815.193 8  -9263804.39046  23066883.885    23066893.7444
  23067570.833    -9659806.418 8  -7511587.35646  23067579.847    23067589.6014
  21587963.449   -17229449.426 8 -13401983.52447  21587967.153    21587975.3514
  24652705.735    -3257409.044 7  -2531298.02145  24652704.645    24652719.1244
  22282786.433   -12476258.491 8  -9700377.18246  22282789.707    22282796.9464
 00  6 29  2  6 30.0000000  0  7 25 21 22 20 29 06 30
  20606299.634   -25030913.890 9 -19491640.53448  20606302.705    20606309.7944
  23266685.939    -9567760.588 8  -7446593.14545  23266688.757    23266700.6744
  23045069.013   -12036420.569 8  -9353107.08546  23045074.056    23045084.3414
  23052899.705    -9736929.565 8  -7571683.23146  23052904.080    23052912.9684
  21598712.788   -17172974.508 8 -13357977.14147  21598714.063    21598721.7474
  24641870.578    -3314401.881 7  -2575707.85145  24641859.830    24641874.6034
  22296073.464   -12406452.536 8  -9645982.96946  22296073.482    22296081.4754
 00  6 29  2  7  0.0000000  0  7 25 21 22 20 29 06 30
  20605467.602   -25035283.538 9 -19495045.44348  20605471.118    20605478.4524
  23288412.165    -9453577.656 8  -7357619.56545  23288416.719    23288428.5404
  23023304.274   -12150837.325 8  -9442262.79246  23023301.853    23023311.1674
  23038307.557    -9813641.648 8  -7631458.86646  23038306.701    23038314.0564
  21609512.870   -17116204.907 8 -13313741.12547  21609517.144    21609525.1074
  24631058.243    -3371142.317 7  -2619920.98245  24631063.304    24631076.2044
  22309438.792   -12336199.788 8  -9591240.62446  22309441.929    22309450.4124
 00  6 29  2  7 30.0000000  0  7 25 21 22 20 29 06 30
  20604688.325   -25039378.780 9 -19498236.53048  20604691.886    20604698.8194
  23310173.466    -9339220.736 8  -7268510.43545  23310178.534    23310189.2694
  23001561.320   -12265063.073 8  -9531269.68345  23001564.623    23001574.2724
  23023781.724    -9889940.107 8  -7690912.11346  23023786.839    23023796.3824
  21620371.752   -17059140.644 8 -13269275.51047  21620376.100    21620383.8024
  24620307.384    -3427627.680 7  -2663935.40745  24620315.898    24620327.9984
  22322894.066   -12265502.893 8  -9536152.18846  22322895.952    22322903.6294
 00  6 29  2  8  0.0000000  0  7 25 21 22 20 29 06 30
  20603962.647   -25043200.130 9 -19501214.20748  20603964.613    20603971.9114
  23331974.312    -9224692.386 8  -7179267.74745  23331972.390    23331984.3214
  22979853.102   -12379095.239 8  -9620125.74346  22979864.604    22979875.7914
  23009350.547    -9965822.533 8  -7750041.25946  23009348.216    23009355.3004
  21631289.075   -17001781.883 8 -13224580.40947  21631291.245    21631298.8774
  24609614.025    -3483855.354 8  -2707749.07545  24609613.459    24609627.4754
  22336429.382   -12194364.267 8  -9480719.52946  22336432.866    22336440.2294
 00  6 29  2  8 30.0000000  0  7 25 21 22 20 29 06 30
  20603285.296   -25046748.073 9 -19503978.80848  20603289.503    20603296.7674
  23353792.850    -9109996.416 8  -7089894.42945  23353798.789    23353810.5944
  22958202.239   -12492930.587 8  -9708828.41746  22958202.212    22958213.1304
  22994983.471   -10041286.467 8  -7808844.24746  22994985.937    22994994.9444
  21642258.846   -16944128.622 8 -13179655.82947  21642262.313    21642270.6084
  24598956.161    -3539822.529 7  -2751359.74545  24598963.734    24598976.6244
  22350051.184   -12122786.492 8  -9424944.66946  22350054.027    22350062.0574
 00  6 29  2  9  0.0000000  0  7 25 21 22 20 29 06 30
  20602663.156   -25050023.494 9 -19506531.06748  20602666.316    20602673.2954
  23375651.314    -8995135.587 8  -7000392.63945  23375656.600    23375668.4564
  22936570.841   -12606566.241 8  -9797375.51946  22936579.371    22936589.1904
  22980706.890   -10116329.204 8  -7867319.01846  22980706.713    22980715.0304
  21653284.936   -16886180.968 8 -13134501.86747  21653288.920    21653297.3454
  24588362.850    -3595526.743 8  -2794765.48845  24588364.540    24588377.9574
  22363748.116   -12050771.886 8  -9368829.45246  22363757.223    22363765.0624
 00  6 29  2  9 30.0000000  0  7 25 21 22 20 29 06 30
  20602089.358   -25053027.326 9 -19508871.71248  20602094.651    20602101.7164
  23397542.873    -8880112.615 8  -6910764.51545  23397543.701    23397556.0864
  22914995.862   -12719999.750 8  -9885765.11746  22914992.857    22915003.0984
  22966506.109   -10190948.344 8  -7925463.75346  22966506.901    22966514.6594
  21664368.716   -16827938.826 8 -13089118.43347  21664372.425    21664380.7964
  24577811.561    -3650965.319 7  -2837964.19545  24577812.764    24577827.3664
  22377542.592   -11978322.818 8  -9312375.63246  22377544.359    22377551.7414
 00  6 29  2 10  0.0000000  0  7 25 21 22 20 29 06 30
  20601571.248   -25055759.719 9 -19511000.83248  20601574.880    20601581.6574
  23419460.474    -8764930.397 8  -6821012.33045  23419462.683    23419474.4454
  22893442.948   -12833228.871 8  -9973995.40846  22893445.883    22893456.0764
  22952386.803   -10265141.381 8  -7983276.45246  22952388.423    22952397.1444
  21675506.329   -16769402.466 8 -13043505.73647  21675512.071    21675519.9534
  24567310.791    -3706135.462 7  -2880953.75445  24567315.980    24567329.7764
  22391413.711   -11905441.962 8  -9255585.42046  22391411.875    22391421.7584
 00  6 29  2 10 30.0000000  0  7 25 21 22 20 29 06 30
  20601103.321   -25058221.734 9 -19512919.28048  20601106.368    20601113.1234
  23441404.307    -8649591.826 7  -6731138.25145  23441410.739    23441423.5964
  22871938.005   -12946250.707 8 -10062064.22646  22871938.937    22871948.0224
  22938351.887   -10338905.971 8  -8040755.24746  22938351.247    22938360.2644
  21686703.864   -16710571.864 8 -12997663.75747  21686706.986    21686714.6934
  24556867.166    -3761034.422 7  -2923731.98545  24556868.089    24556882.0504
  22405357.383   -11832131.672 8  -9198460.57646  22405363.396    22405371.5544
 00  6 29  2 11  0.0000000  0  7 25 21 22 20 29 06 30
  20600685.096   -25060413.700 9 -19514627.29848  20600689.168    20600695.9254
  23463384.031    -8534099.907 7  -6641144.72545  23463388.514    23463401.1864
  22850462.641   -13059062.300 8 -10149969.19846  22850470.544    22850480.9754
  22924392.749   -10412239.887 8  -8097898.52546  22924396.455    22924405.0834
  21697953.676   -16651447.296 8 -12951592.72447  21697957.601    21697965.8784
  24546467.959    -3815659.747 8  -2966297.03645  24546474.344    24546486.4564
  22419389.302   -11758394.239 8  -9141002.87446  22419394.298    22419403.6684
 00  6 29  2 11 30.0000000  0  7 25 21 22 20 29 06 30
  20600319.714   -25062336.350 9 -19516125.46148  20600323.318    20600330.3024
  23485389.738    -8418457.634 8  -6551034.06145  23485394.334    23485407.7024
  22829041.283   -13171660.666 8 -10237707.99846  22829043.920    22829055.1344
  22910521.212   -10485140.253 8  -8154703.91846  22910523.128    22910531.8764
  21709262.842   -16592028.695 8 -12905292.56547  21709264.813    21709272.5194
  24536130.852    -3870008.729 8  -3008646.76545  24536131.427    24536143.0354
  22433504.333   -11684232.363 8  -9083214.44946  22433507.635    22433516.4084
 00  6 29  2 12  0.0000000  0  7 25 21 22 20 29 06 30
  20600005.892   -25063990.437 9 -19517414.35248  20600008.356    20600015.5554
  23507425.306    -8302667.653 8  -6460808.28245  23507428.566    23507441.2004
  22807658.386   -13284043.491 8 -10325278.87046  22807658.368    22807668.8264
  22896731.095   -10557604.834 8  -8211169.73746  22896733.444    22896743.4504
  21720622.099   -16532316.191 8 -12858763.38847  21720627.639    21720635.7184
  24525836.986    -3924078.925 7  -3050779.24845  24525841.157    24525854.7474
  22447699.077   -11609648.500 8  -9025097.17346  22447700.062    22447709.1474
 00  6 29  2 12 30.0000000  0  7 25 21 22 20 29 06 30
  20599740.303   -25065376.685 9 -19518494.54348  20599744.583    20599751.5594
  23529485.809    -8186733.194 8  -6370469.94445  23529490.450    23529502.2404
  22786309.167   -13396208.386 8 -10412679.94246  22786314.479    22786324.3454
  22883022.851   -10629631.285 8  -8267294.16346  22883027.990    22883035.6344
  21732044.866   -16472309.988 8 -12812005.36947  21732047.028    21732055.2314
  24515607.221    -3977867.694 8  -3092692.40145  24515607.150    24515616.7314
  22461967.244   -11534645.087 8  -8966653.00146  22461973.410    22461981.6974
 00  6 29  2 13  0.0000000  0  7 25 21 22 20 29 06 30
  20599528.070   -25066495.684 9 -19519366.46548  20599531.660    20599538.6984
  23551574.716    -8070657.559 8  -6280021.57645  23551579.160    23551590.8254
  22765017.045   -13508152.426 8 -10499908.93946  22765011.930    22765022.1134
  22869403.896   -10701217.313 8  -8323075.41046  22869405.463    22869413.9414
  21743514.900   -16412010.088 8 -12765018.48547  21743521.129    21743529.0654
  24505417.339    -4031372.360 7  -3134384.18145  24505424.230    24505436.6644
  22476326.069   -11459224.778 8  -8907883.96246  22476325.152    22476334.1924
 00  6 29  2 13 30.0000000  0  7 25 21 22 20 29 06 30
  20599367.033   -25067348.321 9 -19520030.83748  20599369.313    20599376.3744
  23573694.295    -7954443.578 8  -6189465.38445  23573694.881    23573706.5844
  22743744.393   -13619872.621 8 -10586963.47346  22743751.624    22743762.4104
  22855865.146   -10772360.388 8  -8378511.49646  22855867.650    22855875.5144
  21755051.175   -16351416.836 8 -12717803.02247  21755051.838    21755060.1204
  24495295.011    -4084590.210 7  -3175852.47645  24495297.392    24495310.7754
  22490753.634   -11383389.952 8  -8848791.92046  22490756.634    22490765.0724
 00  6 29  2 14  0.0000000  0  7 25 21 22 20 29 06 30
  20599255.269   -25067934.736 9 -19520487.77348  20599258.061    20599264.8464
  23595834.564    -7838093.798 8  -6098803.41445  23595835.220    23595847.7644
  22722535.245   -13731366.257 8 -10673841.49546  22722535.062    22722545.5034
  22842410.610   -10843057.963 8  -8433600.45346  22842414.798    22842421.5724
  21766635.435   -16290530.237 8 -12670358.97547  21766637.825    21766646.2414
  24485226.895    -4137518.675 7  -3217095.28245  24485225.548    24485237.8504
  22505267.111   -11307143.112 8  -8789378.84946  22505265.918    22505274.1474
 00  6 29  2 14 30.0000000  0  7 25 21 22 20 29 06 30
  20599194.467   -25068255.701 9 -19520737.86348  20599196.978    20599203.7304
  23617996.202    -7721611.193 8  -6008037.93345  23618001.734    23618013.1634
  22701354.534   -13842630.904 8 -10760541.08146  22701361.410    22701372.6614
  22829041.751   -10913307.685 8  -8488340.41146  22829045.927    22829054.6394
  21778274.566   -16229350.563 8 -12622686.55847  21778280.360    21778288.6824
  24475207.625    -4190155.329 7  -3258110.65245  24475208.266    24475221.3014
  22519847.874   -11230486.749 8  -8729646.66346  22519853.001    22519861.3404
 00  6 29  2 15  0.0000000  0  7 25 21 22 20 29 06 30
  20599183.262   -25068312.157 9 -19520781.83848  20599185.782    20599192.9944
  23640188.460    -7604998.829 8  -5917171.32845  23640191.897    23640204.4004
  22680228.169   -13953664.230 8 -10847060.40546  22680232.685    22680243.9554
  22815766.298   -10983107.462 8  -8542729.77646  22815763.559    22815771.5794
  21789972.685   -16167877.838 8 -12574785.78747  21789978.300    21789987.1404
  24465240.400    -4242497.533 7  -3298896.57845  24465248.878    24465261.3334
  22534518.439   -11153423.480 8  -8669597.39846  22534517.069    22534525.9594
 00  6 29  2 15 30.0000000  0  7 25 21 22 20 29 06 30
  20599222.940   -25068104.519 9 -19520620.03848  20599225.528    20599232.4984
  23662398.131    -7488259.189 7  -5826205.57145  23662406.355    23662418.5544
  22659137.826   -14064463.219 8 -10933397.16346  22659148.109    22659158.5634
  22802565.377   -11052454.848 8  -8596766.60446  22802567.249    22802575.9374
  21801730.602   -16106112.310 8 -12526656.85947  21801732.641    21801739.8864
  24455343.454    -4294542.709 8  -3339451.07945  24455344.640    24455356.1164
  22549257.228   -11075956.029 8  -8609233.17946  22549259.088    22549266.9884
 00  6 29  2 16  0.0000000  0  7 25 21 22 20 29 06 30
  20599310.737   -25067633.373 9 -19520252.88648  20599315.238    20599322.1704
  23684635.160    -7371395.826 7  -5735143.40545  23684644.490    23684656.6654
  22638101.060   -14175024.907 8 -11019548.99046  22638109.039    22638119.2594
  22789452.462   -11121347.390 8  -8650449.04146  22789457.181    22789465.6734
  21813539.177   -16044054.223 8 -12478299.96047  21813541.881    21813549.9664
  24445491.691    -4346288.401 8  -3379772.22545  24445496.887    24445509.4044
  22564070.690   -10998086.753 8  -8548555.86846  22564076.499    22564085.9454
 00  6 29  2 16 30.0000000  0  7 25 21 22 20 29 06 30
  20599453.723   -25066899.487 9 -19519681.01948  20599454.672    20599461.7664
  23706912.052    -7254411.251 7  -5643986.81045  23706906.109    23706918.7224
  22617115.771   -14285346.580 8 -11105513.82646  22617116.249    22617124.5524
  22776433.300   -11189782.730 8  -8703775.20546  22776434.999    22776441.8144
  21825401.919   -15981703.727 8 -12429715.20747  21825406.577    21825414.3284
  24435708.437    -4397732.039 7  -3419858.04545  24435707.160    24435719.2344
  22578970.126   -10919818.109 8  -8487567.35246  22578970.601    22578979.8494
 00  6 29  2 17  0.0000000  0  7 25 21 22 20 29 06 30
  20599640.728   -25065903.446 9 -19518904.87548  20599644.218    20599651.0594
  23729190.196    -7137308.669 7  -5552738.25745  23729189.337    23729202.4784
  22596162.738   -14395425.988 8 -11191289.87846  22596167.818    22596178.1334
  22763497.074   -11257758.441 8  -8756743.24346  22763498.486    22763507.6834
  21837319.610   -15919060.932 8 -12380902.69547  21837326.797    21837334.7114
  24425971.219    -4448871.047 7  -3459706.43445  24425975.984    24425988.6274
  22593936.085   -10841152.950 8  -8426269.85146  22593940.705    22593949.3424
 00  6 29  2 17 30.0000000  0  7 25 21 22 20 29 06 30
  20599880.609   -25064645.960 9 -19517924.99748  20599883.670    20599890.1744
  23751499.174    -7020091.061 8  -5461399.99045  23751497.368    23751508.3354
  22575265.755   -14505260.593 8 -11276875.15246  22575267.407    22575276.6744
  22750650.146   -11325272.325 8  -8809351.37546  22750650.154    22750659.8504
  21849298.215   -15856126.018 8 -12331862.56847  21849302.917    21849311.6214
  24416302.935    -4499702.884 8  -3499315.47945  24416303.963    24416315.6734
  22608976.018   -10762093.676 8  -8364665.26546  22608984.765    22608993.7924
 00  6 29  2 18  0.0000000  0  7 25 21 22 20 29 06 30
  20600169.718   -25063127.593 9 -19516741.84348  20600172.623    20600179.1074
  23773817.011    -6902761.444 8  -5369974.48445  23773824.401    23773837.1534
  22554409.367   -14614847.428 8 -11362267.38746  22554413.764    22554423.4644
  22737890.940   -11392322.270 8  -8861598.00446  22737891.845    22737899.8804
  21861330.194   -15792899.439 8 -12282595.15247  21861334.456    21861342.8594
  24406687.441    -4550224.992 8  -3538683.16345  24406688.681    24406700.9954
  22624102.640   -10682642.849 8  -8302755.58546  22624104.197    22624112.5284
 00  6 29  2 18 30.0000000  0  7 25 21 22 20 29 06 30
  20600508.041   -25061348.967 9 -19515355.88348  20600510.862    20600517.7214
  23796173.797    -6785322.508 7  -5278463.80445  23796172.318    23796184.4554
  22533604.651   -14724183.607 8 -11447464.27746  22533606.918    22533617.4154
  22725223.016   -11458905.905 8  -8913481.25546  22725222.174    22725229.6654
  21873416.899   -15729381.188 8 -12233100.46747  21873421.617    21873429.4834
  24397128.282    -4600434.974 8  -3577807.59845  24397133.276    24397146.8594
  22639291.391   -10602803.128 8  -8240542.81546  22639296.532    22639305.0354
 00  6 29  2 19  0.0000000  0  7 25 21 22 20 29 06 30
  20600897.364   -25059310.855 9 -19513767.70948  20600899.128    20600905.4914
  23818538.062    -6667777.310 7  -5186870.36545  23818541.180    23818553.2414
  22512839.907   -14833266.385 8 -11532463.75046  22512848.886    22512858.8714
  22712637.490   -11525020.784 8  -8964999.31546  22712640.739    22712648.4174
  21885562.125   -15665571.637 8 -12183378.78146  21885564.156    21885572.0434
  24387633.934    -4650330.280 7  -3616686.89445  24387639.099    24387650.1044
  22654560.968   -10522577.002 8  -8178028.98846  22654563.467    22654572.1744
 00  6 29  2 19 30.0000000  0  7 25 21 22 20 29 06 30
  20601331.501   -25057014.016 9 -19511977.96748  20601336.113    20601342.7264
  23840922.663    -6550128.902 7  -5095196.49945  23840927.667    23840940.7064
  22492139.126   -14942093.706 8 -11617264.15646  22492139.668    22492149.9264
  22700147.952   -11590664.860 8  -9016150.44246  22700148.219    22700157.2684
  21897757.564   -15601470.937 8 -12133430.23446  21897761.943    21897770.3954
  24378203.063    -4699908.351 8  -3655319.03045  24378204.114    24378214.7544
  22669897.199   -10441967.224 8  -8115216.21846  22669902.662    22669911.9784
 00  6 29  2 20  0.0000000  0  7 25 21 22 20 29 06 30
  20601817.880   -25054458.870 9 -19509986.91148  20601822.186    20601829.0084
  23863325.483    -6432379.579 8  -5003443.96145  23863334.904    23863347.3734
  22471482.459   -15050662.906 8 -11701863.43946  22471479.734    22471489.4254
  22687742.759   -11655835.751 8  -9066932.91546  22687747.014    22687755.3094
  21910013.680   -15537079.362 8 -12083255.04147  21910016.217    21910023.6114
  24368828.913    -4749166.655 8  -3693701.96445  24368831.215    24368843.1044
  22685308.003   -10360976.026 8  -8052106.21446  22685315.570    22685323.6584
 00  6 29  2 20 30.0000000  0  7 25 21 22 20 29 06 30
  20602353.584   -25051646.275 9 -19507795.25348  20602357.401    20602364.1834
  23885755.595    -6314532.747 8  -4911615.41445  23885760.623    23885773.8974
  22450864.254   -15158970.883 8 -11786259.16446  22450869.012    22450879.7034
  22675436.615   -11720531.324 8  -9117344.96646  22675435.470    22675444.2634
  21922320.487   -15472397.005 8 -12032853.25547  21922324.730    21922332.3934
  24359517.375    -4798102.757 7  -3731833.79945  24359518.931    24359531.8784
  22700793.079   -10279606.289 8  -7988701.24746  22700799.996    22700808.1044
 00  6 29  2 21  0.0000000  0  7 25 21 22 20 29 06 30
  20602936.582   -25048576.689 9 -19505403.35448  20602941.160    20602948.2024
  23908204.145    -6196591.457 7  -4819713.29645  23908204.458    23908216.9734
  22430302.380   -15267014.962 8 -11870449.24846  22430309.128    22430319.0184
  22663211.942   -11784749.255 8  -9167384.83946  22663214.574    22663223.5834
  21934685.759   -15407424.519 8 -11982225.39447  21934688.680    21934696.5334
  24350260.119    -4846714.311 7  -3769712.75745  24350268.213    24350279.8394
  22716352.382   -10197860.688 8  -7925003.40546  22716355.534    22716362.8994
 00  6 29  2 21 30.0000000  0  7 25 21 22 20 29 06 30
  20603571.731   -25045250.760 9 -19502811.71048  20603574.159    20603581.0694
  23930652.149    -6078558.464 7  -4727739.71445  23930664.190    23930679.1744
  22409797.105   -15374792.471 8 -11954431.61746  22409800.162    22409810.3094
  22651084.858   -11848487.357 8  -9217050.82846  22651087.330    22651095.4094
  21947107.111   -15342161.836 8 -11931371.40047  21947107.995    21947115.6444
  24341071.335    -4894998.865 7  -3807336.88245  24341078.912    24341090.9934
  22731977.161   -10115741.789 8  -7861014.68046  22731982.026    22731990.6654
 00  6 29  2 22  0.0000000  0  7 25 21 22 20 29 06 30
  20604252.145   -25041669.157 9 -19500020.84548  20604255.827    20604262.6614
  23953128.945    -5960436.503 7  -4635696.85145  23953144.425    23953156.6114
  22389335.754   -15482301.252 8 -12038204.60246  22389341.858    22389351.8554
  22639045.232   -11911743.456 8  -9266341.24146  22639049.342    22639057.2464
  21959580.300   -15276609.269 8 -11880291.54247  21959582.343    21959590.2874
  24331945.093    -4942953.996 7  -3844704.32845  24331953.196    24331966.9084
  22747676.641   -10033252.120 8  -7796737.07346  22747679.311    22747687.7444
 00  6 29  2 22 30.0000000  0  7 25 21 22 20 29 06 30
  20604982.209   -25037832.593 9 -19497031.29048  20604985.561    20604992.7674
  23975637.448    -5842228.712 7  -4543587.11145  23975637.799    23975651.5354
  22368934.870   -15589538.679 8 -12121766.11846  22368935.457    22368944.5894
  22627103.952   -11974515.388 8  -9315254.37046  22627103.314    22627112.3874
  21972109.450   -15210767.240 8 -11828986.11147  21972111.738    21972119.5784
  24322885.725    -4990577.248 8  -3881813.18745  24322892.642    24322902.3034
  22763448.592    -9950394.120 8  -7732172.44446  22763446.400    22763454.0974
 00  6 29  2 23  0.0000000  0  7 25 21 22 20 29 06 30
  20605762.569   -25033741.628 9 -19493843.51648  20605763.943    20605771.2454
  23998146.429    -5723937.917 7  -4451412.68945  23998147.737    23998162.0084
  22348577.257   -15696501.618 8 -12205113.77746  22348581.064    22348590.1544
  22615247.712   -12036801.030 8  -9363788.57746  22615251.372    22615259.3154
  21984693.750   -15144636.025 8 -11777455.35747  21984695.798    21984703.7254
  24313889.921    -5037866.039 8  -3918661.46245  24313891.896    24313904.8764
  22779277.604    -9867170.819 8  -7667323.13746  22779283.335    22779291.3444
 00  6 29  2 23 30.0000000  0  7 25 21 22 20 29 06 30
  20606586.864   -25029396.880 9 -19490457.97748  20606590.993    20606597.9184
  24020666.073    -5605567.436 7  -4359176.18445  24020673.474    24020686.0204
  22328273.709   -15803187.409 8 -12288245.46546  22328279.273    22328288.5774
  22603489.945   -12098598.174 8  -9411942.13446  22603492.017    22603500.4504
  21997334.915   -15078215.876 8 -11725699.45446  21997335.119    21997342.7194
  24304957.514    -5084818.025 8  -3955247.27445  24304958.144    24304969.0484
  22795179.481    -9783584.667 8  -7602191.11146  22795188.768    22795197.3494
 00  6 29  2 24  0.0000000  0  7 25 21 22 20 29 06 30
  20607465.111   -25024798.964 9 -19486875.18348  20607466.199    20607473.0074
  24043203.991    -5487119.548 7  -4266879.33545  24043214.180    24043226.1304
  22308030.976   -15909593.673 8 -12371159.32146  22308030.032    22308040.2774
  22591824.006   -12159904.618 8  -9459713.31846  22591825.868    22591834.4824
  22010027.001   -15011507.107 8 -11673718.65046  22010029.144    22010037.9984
  24296084.579    -5131430.905 7  -3991568.82745  24296086.679    24296099.5124
  22811156.184    -9699638.436 8  -7536778.50946  22811164.284    22811171.1824
 00  6 29  2 24 30.0000000  0  7 25 21 22 20 29 06 30
  20608386.283   -25019948.530 9 -19483095.60448  20608389.072    20608396.0994
  24065764.188    -5368597.248 7  -4174524.52145  24065767.927    24065781.1984
  22287836.418   -16015718.022 8 -12453853.51946  22287836.594    22287845.6384
  22580251.044   -12220718.239 8  -9507100.49746  22580252.302    22580261.2134
  22022775.734   -14944510.093 8 -11621513.23846  22022778.637    22022786.3894
  24287282.687    -5177702.120 8  -4027624.15545  24287282.394    24287294.1034
  22827208.651    -9615334.459 8  -7471087.09946  22827206.282    22827214.1754
 00  6 29  2 25  0.0000000  0  7 25 21 22 20 29 06 30
  20609356.639   -25014846.477 9 -19479119.95548  20609360.032    20609366.7554
  24088340.475    -5250003.447 7  -4082114.06045  24088334.608    24088347.1564
  22267692.038   -16121557.830 8 -12536326.00346  22267694.995    22267704.2694
  22568772.198   -12281037.050 8  -9554102.13746  22568773.954    22568782.9574
  22035577.119   -14877225.190 8 -11569083.48946  22035581.895    22035590.6784
  24278543.283    -5223629.224 8  -4063411.33445  24278542.293    24278553.5234
  22843314.997    -9530675.569 8  -7405119.18546  22843316.344    22843324.3074
 00  6 29  2 25 30.0000000  0  7 25 21 22 20 29 06 30
  20610374.814   -25009493.054 9 -19474948.42948  20610378.515    20610385.5284
  24110914.543    -5131341.122 7  -3989650.13345  24110917.523    24110930.2524
  22247608.693   -16227110.080 8 -12618574.42046  22247609.137    22247618.0504
  22557387.296   -12340858.948 8  -9600716.54446  22557390.374    22557398.3044
  22048436.877   -14809652.686 8 -11516429.64646  22048440.605    22048449.1624
  24269866.042    -5269209.952 8  -4098928.63045  24269867.168    24269879.6344
  22859490.630    -9445664.272 8  -7338876.65746  22859494.186    22859501.7284
 00  6 29  2 26  0.0000000  0  7 25 21 22 20 29 06 30
  20611441.714   -25003888.850 9 -19470581.50248  20611444.873    20611452.1684
  24133518.476    -5012613.318 7  -3897135.24345  24133509.321    24133523.4854
  22227577.850   -16332372.103 8 -12700596.68046  22227578.236    22227587.6794
  22546099.018   -12400181.644 8  -9646941.97046  22546101.756    22546110.3304
  22061354.427   -14741792.808 8 -11463551.87746  22061354.345    22061363.1574
  24261253.536    -5314442.098 7  -4134174.27145  24261259.750    24261272.6364
  22875734.329    -9360303.259 8  -7272361.64146  22875737.718    22875745.7104
 00  6 29  2 26 30.0000000  0  7 25 21 22 20 29 06 30
  20612555.816   -24998034.755 9 -19466019.84348  20612558.951    20612565.8394
  24156119.840    -4893823.042 7  -3804571.73145  24156116.108    24156129.0544
  22207598.521   -16437341.599 8 -12782390.98646  22207602.724    22207612.6164
  22534902.287   -12459003.274 8  -9692776.96846  22534907.829    22534916.9974
  22074313.638   -14673646.185 8 -11410450.67046  22074321.434    22074330.7354
  24252723.854    -5359323.206 8  -4169146.42545  24252721.107    24252731.3394
  22892046.971    -9274595.179 8  -7205576.14146  22892047.123    22892054.6594
 00  6 29  2 27  0.0000000  0  7 25 21 22 20 29 06 30
  20613716.039   -24991931.569 9 -19461264.12648  20613720.149    20613727.1434
  24178730.815    -4774973.179 7  -3711961.73045  24178730.980    24178746.0384
  22187684.466   -16542016.170 8 -12863955.49546  22187684.743    22187693.1324
  22523805.232   -12517321.800 8  -9738219.93146  22523810.073    22523819.5564
  22087340.463   -14605213.031 8 -11357126.20846  22087344.724    22087353.6954
  24244249.639    -5403850.913 8  -4203843.18145  24244247.704    24244258.8444
  22908421.760    -9188542.862 8  -7138522.42246  22908422.800    22908430.3624
 00  6 29  2 27 30.0000000  0  7 25 21 22 20 29 06 30
  20614925.794   -24985579.683 9 -19456314.57648  20614928.684    20614935.8224
  24201359.507    -4656066.068 7  -3619307.14245  24201357.652    24201373.2784
  22167818.889   -16646393.137 8 -12945288.10146  22167822.119    22167831.0574
  22512809.459   -12575135.118 8  -9783269.24346  22512808.834    22512817.8624
  22100418.045   -14536493.695 8 -11303578.73246  22100421.486    22100429.5604
  24235830.450    -5448022.887 7  -4238262.75045  24235841.063    24235852.8574
  22924859.187    -9102148.754 8  -7071202.37746  22924862.346    22924871.0184
 00  6 29  2 28  0.0000000  0  7 25 21 22 20 29 06 30
  20616180.594   -24978979.271 9 -19451171.39348  20616184.747    20616191.8804
  24223999.341    -4537104.929 7  -3526610.48345  24223996.160    24224010.2884
  22148012.283   -16750469.591 8 -13026386.54246  22148016.633    22148025.6554
  22501898.839   -12632441.277 8  -9827923.34746  22501904.044    22501913.4374
  22113551.342   -14467488.608 8 -11249808.60246  22113552.896    22113560.8874
  24227493.557    -5491836.819 7  -4272403.29745  24227502.281    24227514.6024
  22941362.668    -9015415.628 8  -7003618.16246  22941366.563    22941375.2194
 00  6 29  2 28 30.0000000  0  7 25 21 22 20 29 06 30
  20617484.787   -24972131.848 9 -19445835.72548  20617487.907    20617494.8304
  24246645.041    -4418092.872 7  -3433874.12245  24246643.745    24246657.5894
  22128266.894   -16854242.894 8 -13107248.75946  22128269.804    22128278.0624
  22491096.987   -12689238.204 8  -9872180.65046  22491096.362    22491104.4284
  22126736.308   -14398198.306 8 -11195816.21646  22126738.691    22126746.9714
  24219232.456    -5535290.192 8  -4306262.91945  24219235.662    24219244.4674
  22957931.385    -8928346.020 8  -6935771.76746  22957935.637    22957943.7134
 00  6 29  2 29  0.0000000  0  6 25 22 20 29 06 30
  20618833.730   -24965037.440 9 -19440307.61448  20618838.076    20618844.7394
  22108578.706   -16957710.740 8 -13187872.96346  22108580.264    22108588.8404
  22480383.093   -12745523.874 8  -9916039.55846  22480385.970    22480394.0004
  22139971.838   -14328623.003 8 -11141601.76846  22139978.057    22139986.7854
  24211028.374    -5578380.949 8  -4339839.97045  24211034.255    24211045.1154
  22974564.647    -8840942.893 8  -6867665.49046  22974568.489    22974576.7884
 00  6 29  2 29 30.0000000  0  6 25 22 20 29 06 30
  20620231.617   -24957696.712 9 -19434587.55248  20620234.653    20620241.5054
  22088943.507   -17060870.870 8 -13268257.38946  22088948.543    22088958.2454
  22469772.626   -12801296.335 8  -9959498.58446  22469773.171    22469780.5974
  22153269.432   -14258763.048 8 -11087165.51546  22153271.842    22153280.6434
  24202900.371    -5621106.812 8  -4373132.68345  24202903.003    24202914.5444
  22991268.253    -8753208.655 8  -6799301.17546  22991263.504    22991271.5114
 00  6 29  2 30  0.0000000  0  6 25 22 20 29 06 30
  20621675.115   -24950109.966 9 -19428675.78848  20621678.317    20621685.3674
  22069376.171   -17163720.427 8 -13348399.80446  22069376.797    22069386.2874
  22459254.521   -12856553.511 8 -10002556.07746  22459257.649    22459265.0824
  22166623.852   -14188619.007 8 -11032507.88946  22166620.217    22166627.7854
  24194840.632    -5663465.540 7  -4406139.34945  24194842.561    24194853.8874
  23008012.698    -8665145.951 8  -6730680.92946  23008021.354    23008028.7834
 00  6 29  2 30 30.0000000  0  6 25 22 20 29 06 30
  20623166.086   -24942278.467 9 -19422573.31548  20623168.542    20623176.0284
  22049860.413   -17266256.657 8 -13428298.06946  22049865.245    22049874.1124
  22448835.786   -12911293.720 8 -10045210.74846  22448840.187    22448848.5464
  22180017.338   -14118191.297 8 -10977629.25846  22180021.732    22180030.5514
  24186851.503    -5705454.821 8  -4438858.10545  24186851.469    24186861.9754
  23024844.312    -8576757.505 8  -6661806.86346  23024841.495    23024849.9744
 00  6 29  2 31  0.0000000  0  6 25 22 20 29 06 30
  20624701.413   -24934202.512 9 -19416280.34748  20624705.098    20624712.7244
  22030412.776   -17368476.929 8 -13507950.16046  22030414.238    22030422.4824
  22438518.874   -12965515.077 8 -10087461.12846  22438523.419    22438529.9744
  22193476.304   -14047480.209 8 -10922529.79446  22193478.665    22193486.1344
  24178924.864    -5747072.389 8  -4471287.21945  24178932.861    24178942.9544
  23041716.656    -8488046.076 8  -6592681.16146  23041721.861    23041730.8244
 00  6 29  2 31 30.0000000  0  6 25 22 20 29 06 30
  20626285.116   -24925882.880 9 -19409797.46948  20626288.643    20626295.8494
  22011017.762   -17470379.146 8 -13587354.39346  22011021.721    22011031.5314
  22428301.403   -13019215.561 8 -10129305.61846  22428303.484    22428311.7904
  22206982.118   -13976486.323 8 -10867209.95646  22206988.028    22206996.6124
  24171087.988    -5788315.932 8  -4503424.91745  24171085.523    24171094.6574
  23058664.095    -8399014.099 8  -6523305.65646  23058664.734    23058672.9364
 00  6 29  2 32  0.0000000  0  6 25 22 20 29 06 30
  20627914.596   -24917320.179 9 -19403125.25948  20627918.003    20627925.0414
  21991689.498   -17571960.918 8 -13666508.93646  21991691.581    21991700.4624
  22418181.534   -13072393.322 8 -10170742.78846  22418183.290    22418191.8034
  22220544.389   -13905210.116 8 -10811670.15146  22220550.601    22220559.6504
  24163309.664    -5829183.369 8  -4535269.54545  24163308.002    24163317.8004
  23075667.336    -8309664.415 8  -6453682.55746  23075667.557    23075675.4694
 00  6 29  2 32 30.0000000  0  6 25 22 20 29 06 30
  20629591.612   -24908514.817 9 -19396263.92248  20629593.781    20629600.7134
  21972426.097   -17673219.343 8 -13745411.51246  21972422.096    21972431.3614
  22408160.875   -13125046.246 8 -10211770.99946  22408164.234    22408172.2724
  22234165.126   -13833651.980 8 -10755910.64946  22234168.546    22234177.2154
  24155604.499    -5869672.466 8  -4566819.36245  24155602.523    24155612.6534
  23092727.347    -8219999.678 8  -6383814.03246  23092728.934    23092739.5524
 00  6 29  2 33  0.0000000  0  6 25 22 20 29 06 30
  20631312.003   -24899467.777 9 -19389214.25248  20631315.325    20631322.3434
  21953211.518   -17774151.698 8 -13824060.01646  21953215.945    21953224.3144
  22398246.744   -13177172.631 8 -10252388.90946  22398245.630    22398252.5564
  22247833.271   -13761812.529 8 -10699931.97746  22247838.294    22247848.3004
  24147970.888    -5909780.864 8  -4598072.56145  24147969.461    24147980.8854
  23109855.984    -8130022.411 8  -6313701.96446  23109852.486    23109861.3594
 00  6 29  2 33 30.0000000  0  6 25 22 20 29 06 30
  20633077.746   -24890179.622 9 -19381976.73848  20633082.560    20633089.8134
  21934069.670   -17874755.541 8 -13902452.53146  21934071.079    21934080.3334
  22388425.298   -13228770.604 8 -10292595.09146  22388426.262    22388434.3764
  22261559.215   -13689692.041 8 -10643734.29246  22261563.555    22261572.0844
  24140408.481    -5949506.572 8  -4629027.52745  24140409.714    24140421.3654
  23127030.410    -8039735.558 8  -6243348.63546  23127033.438    23127041.8104
 00  6 29  2 34  0.0000000  0  6 25 22 20 29 06 30
  20634892.932   -24880650.580 9 -19374551.53048  20634896.428    20634903.0544
  21914987.743   -17975028.618 8 -13980587.30247  21914989.862    21914998.8404
  22378705.767   -13279838.410 8 -10332388.12746  22378707.325    22378716.0464
  22275343.999   -13617291.126 8 -10587318.09146  22275341.374    22275348.6014
  24132926.225    -5988847.524 8  -4659682.67145  24132923.497    24132935.4794
  23144268.523    -7949141.502 8  -6172755.91246  23144272.483    23144280.9554
 00  6 29  2 34 30.0000000  0  6 25 22 20 29 06 30
  20636751.855   -24870881.356 9 -19366939.13948  20636755.160    20636762.0774
  21895970.552   -18074968.746 8 -14058462.65247  21895971.719    21895980.4694
  22369088.806   -13330374.142 8 -10371766.57646  22369091.234    22369099.3724
  22289168.207   -13544610.295 8 -10530683.78346  22289171.583    22289180.0164
  24125507.161    -6027801.424 7  -4690036.23045  24125510.323    24125523.8774
  23161567.282    -7858243.207 8  -6101926.10546  23161570.730    23161577.9874
 00  6 29  2 35  0.0000000  0  6 25 22 20 29 06 30
  20638656.597   -24860872.308 9 -19359139.85348  20638659.858    20638666.9814
  21877009.584   -18174572.956 8 -14136076.25147  21877017.607    21877027.1084
  22359570.632   -13380376.245 8 -10410729.20246  22359576.674    22359584.1914
  22303051.244   -13471649.966 8 -10473831.68246  22303055.473    22303064.4004
  24118169.992    -6066366.020 7  -4720086.44145  24118172.446    24118183.7474
  23178928.039    -7767043.248 8  -6030861.24446  23178924.607    23178934.0264
 00  6 29  2 35 30.0000000  0  6 25 22 20 29 06 30
  20640605.908   -24850624.505 9 -19351154.56348  20640610.022    20640616.8694
  21858129.698   -18273838.574 8 -14213425.98947  21858127.825    21858137.4074
  22350162.657   -13429842.940 8 -10449274.65246  22350163.315    22350170.9174
  22316989.798   -13398410.694 8 -10416762.24846  22316991.642    22317001.1914
  24110905.751    -6104539.450 8  -4749831.87345  24110907.739    24110918.9634
  23196328.360    -7675544.134 8  -5959563.29846  23196336.174    23196345.0444
 00  6 29  2 36  0.0000000  0  6 25 22 20 29 06 30
  20642601.838   -24840138.204 9 -19342983.42048  20642605.682    20642612.5354
  21839298.151   -18372763.236 8 -14290510.04647  21839303.370    21839312.9674
  22340848.842   -13478772.356 8 -10487401.42046  22340851.964    22340860.5094
  22330976.848   -13324893.060 8 -10359475.89646  22330982.109    22330991.1204
  24103720.033    -6142319.640 8  -4779270.84945  24103718.596    24103729.2644
  23213803.201    -7583748.617 8  -5888034.33246  23213804.596    23213813.4054
 00  6 29  2 36 30.0000000  0  6 25 22 20 29 06 30
  20644642.171   -24829414.095 9 -19334626.96648  20644646.289    20644653.0604
  21820544.467   -18471344.905 8 -14367326.84247  21820544.181    21820552.6454
  22331642.663   -13527162.845 8 -10525108.23346  22331643.866    22331651.3394
  22345021.648   -13251097.467 8 -10301972.95546  22345025.167    22345034.5104
  24096600.060    -6179704.355 8  -4808401.69045  24096604.641    24096615.9344
  23231326.563    -7491659.354 8  -5816276.53746  23231328.511    23231337.5514
 00  6 29  2 37  0.0000000  0  6 25 22 20 29 06 30
  20646729.718   -24818452.648 9 -19326085.57448  20646732.410    20646738.8944
  21801844.914   -18569581.080 8 -14443874.45047  21801850.324    21801858.7214
  22322538.543   -13575012.650 8 -10562393.75646  22322537.668    22322546.2084
  22359120.253   -13177024.658 8 -10244253.98946  22359120.487    22359129.6134
  24089552.968    -6216691.372 7  -4837222.65745  24089566.231    24089576.2574
  23248902.915    -7399279.182 8  -5744292.03146  23248907.749    23248917.0984
 00  6 29  2 37 30.0000000  0  6 25 22 20 29 06 30
  20648861.250   -24807254.593 9 -19317359.78248  20648863.399    20648869.8394
  21783217.055   -18667468.992 8 -14520150.67447  21783222.359    21783232.0154
  22313531.835   -13622320.031 8 -10599256.59546  22313536.246    22313543.4924
  22373267.281   -13102674.817 8 -10186319.17446  22373269.737    22373278.6344
  24082599.243    -6253278.666 8  -4865732.14645  24082604.376    24082613.9604
  23266539.477    -7306610.573 8  -5672082.76646  23266542.552    23266550.9744
 00  6 29  2 38  0.0000000  0  7 25 16 22 20 29 06 30
  20651034.307   -24795820.486 9 -19308450.10848  20651038.723    20651045.5364
  24632345.465    -1970766.87517  -1522422.45855  24632351.609    24632360.9114
  21764661.865   -18765005.954 8 -14596153.40947  21764661.633    21764670.5974
  22304634.510   -13669083.452 8 -10635695.58046  22304636.786    22304644.4914
  22387464.733   -13028049.041 8 -10128169.33346  22387469.775    22387479.8874
  24075715.886    -6289464.278 8  -4893928.60945  24075718.503    24075728.7494
  23284229.489    -7213656.220 8  -5599650.83946  23284231.083    23284239.7964
 00  6 29  2 38 30.0000000  0  7 25 16 22 20 29 06 30
  20653256.575   -24784151.082 9 -19299357.07548  20653259.748    20653266.2774
  24614943.730    -2062238.148 7  -1593698.91445  24614946.487    24614953.9894
  21746169.026   -18862189.745 8 -14671880.95647  21746167.946    21746177.1064
  22295837.204   -13715301.061 8 -10671709.26746  22295841.302    22295850.1004
  22401718.344   -12953147.462 8 -10069804.62046  22401723.420    22401733.3934
  24068904.663    -6325246.123 8  -4921810.45645  24068908.963    24068918.8284
  23301973.971    -7120418.977 8  -5526998.48346  23301973.274    23301982.6544
 00  6 29  2 39  0.0000000  0  7 25 16 22 20 29 06 30
  20655520.866   -24772246.688 9 -19290080.88548  20655525.127    20655531.5944
  24597593.079    -2153410.007 7  -1664741.98945  24597595.889    24597605.7604
  21727738.664   -18959018.382 8 -14747331.77047  21727742.694    21727751.0224
  22287150.368   -13760971.502 8 -10707296.56546  22287151.299    22287159.6254
  22416027.291   -12877970.826 8 -10011225.57546  22416029.695    22416039.1044
  24062170.278    -6360622.062 8  -4949376.04345  24062176.464    24062187.3394
  23319766.141    -7026901.327 8  -5454127.63046  23319769.920    23319779.4294
 00  6 29  2 39 30.0000000  0  7 25 16 22 20 29 06 30
  20657831.602   -24760108.139 9 -19280622.29548  20657835.083    20657841.3334
  24580297.156    -2244280.277 7  -1735550.06545  24580304.435    24580314.1544
  21709384.839   -19055489.348 9 -14822503.88347  21709385.105    21709393.1594
  22278564.351   -13806092.957 8 -10742456.08247  22278565.420    22278572.7084
  22430386.019   -12802519.719 8  -9952432.64046  22430387.589    22430396.7154
  24055515.524    -6395590.220 7  -4976623.84445  24055521.918    24055531.8444
  23337614.676    -6933106.300 8  -5381040.62846  23337617.825    23337627.5414
 00  6 29  2 40  0.0000000  0  7 25 16 22 20 29 06 30
  20660187.280   -24747735.997 9 -19270981.63948  20660189.192    20660195.6904
  24563073.378    -2334846.071 7  -1806121.13345  24563070.041    24563077.5654
  21691095.009   -19151599.786 9 -14897395.06547  21691095.696    21691103.7814
  22270081.948   -13850664.034 8 -10777186.74746  22270083.284    22270090.6994
  22444789.954   -12726794.685 8  -9893426.27446  22444797.730    22444806.7764
  24048942.209    -6430148.689 8  -5003552.42745  24048946.253    24048956.6784
  23355513.765    -6839036.401 8  -5307739.43746  23355519.314    23355528.8324
 00  6 29  2 40 30.0000000  0  7 25 16 22 20 29 06 30
  20662583.405   -24735130.847 9 -19261159.46448  20662587.820    20662594.4294
  24545894.880    -2425104.246 7  -1876452.27545  24545894.702    24545903.4244
  21672872.122   -19247347.190 9 -14972003.36847  21672875.319    21672883.1884
  22261703.823   -13894683.086 8 -10811487.26247  22261706.471    22261715.1634
  22459259.209   -12650796.350 8  -9834206.95246  22459259.746    22459268.6724
  24042447.540    -6464295.491 8  -5030160.24345  24042448.631    24042458.6914
  23373466.719    -6744694.097 8  -5234226.02546  23373472.580    23373481.0644
 00  6 29  2 41  0.0000000  0  7 25 16 22 20 29 06 30
  20665028.440   -24722292.856 9 -19251155.82348  20665030.782    20665037.4464
  24528776.357    -2515052.610 7  -1946541.95145  24528777.711    24528787.5094
  21654718.373   -19342729.468 8 -15046327.15247  21654724.356    21654733.0704
  22253432.826   -13938148.436 8 -10845356.32547  22253435.298    22253443.8754
  22473768.245   -12574525.397 8  -9774775.17946  22473773.452    22473782.6654
  24036026.994    -6498028.628 8  -5056445.74345  24036030.100    24036039.3374
  23391478.237    -6650081.955 8  -5160502.31446  23391477.224    23391485.1624
 00  6 29  2 41 30.0000000  0  7 25 16 22 20 29 06 30
  20667515.295   -24709222.765 9 -19240971.32448  20667517.906    20667524.6954
  24511715.881    -2604688.644 7  -2016388.36845  24511721.560    24511731.5704
  21636642.891   -19437744.565 9 -15120364.81147  21636643.835    21636652.3994
  22245270.144   -13981058.596 8 -10878792.77247  22245270.291    22245278.0524
  22488335.610   -12497982.243 8  -9715131.32346  22488339.237    22488349.0634
  24029688.081    -6531346.055 8  -5082407.28145  24029688.227    24029698.7014
  23409519.876    -6555202.770 8  -5086570.48546  23409531.406    23409539.7584
 00  6 29  2 42  0.0000000  0  7 25 16 22 20 29 06 30
  20670046.030   -24695921.293 9 -19230606.54648  20670049.061    20670055.8384
  24494712.781    -2694009.863 7  -2085989.67845  24494724.289    24494734.2434
  21618635.501   -19532390.011 9 -15194114.44047  21618633.347    21618641.6204
  22237208.036   -14023412.285 8 -10911795.60247  22237210.225    22237218.1584
  22502957.046   -12421167.590 8  -9655275.89846  22502957.065    22502966.4374
  24023421.623    -6564245.937 8  -5108043.47945  24023428.289    24023438.3044
  23427635.946    -6460059.235 8  -5012432.65746  23427636.813    23427645.8504
 00  6 29  2 42 30.0000000  0  7 25 16 22 20 29 06 30
  20672622.088   -24682388.637 9 -19220061.62148  20672624.456    20672631.1254
  24477790.285    -2783013.079 7  -2155343.02545  24477787.472    24477796.4294
  21600694.173   -19626662.922 9 -15267573.79147  21600693.685    21600702.3414
  22229253.838   -14065207.765 8 -10944363.45247  22229256.051    22229264.3764
  22517625.201   -12344082.310 8  -9595209.58746  22517626.787    22517635.9414
  24017241.805    -6596726.248 8  -5133352.73245  24017247.086    24017256.3234
  23445783.520    -6364653.979 8  -4938090.96946  23445791.363    23445801.0284
 00  6 29  2 43  0.0000000  0  7 25 16 22 20 29 06 30
  20675238.904   -24668625.924 9 -19209337.45248  20675243.257    20675250.0334
  24460909.028    -2871695.354 7  -2224446.24945  24460911.274    24460921.0194
  21582823.356   -19720560.991 9 -15340741.05047  21582825.196    21582833.8004
  22221409.630   -14106443.576 8 -10976495.20147  22221409.659    22221417.8544
  22532340.393   -12266726.807 8  -9534932.71646  22532346.267    22532355.5334
  24011138.383    -6628785.129 8  -5158333.59445  24011147.733    24011155.8994
  23463993.104    -6268989.887 8  -4863547.58346  23463995.252    23464005.1534
 00  6 29  2 43 30.0000000  0  7 25 16 22 20 29 06 30
  20677904.407   -24654633.146 9 -19198434.00848  20677906.262    20677913.0064
  24444101.713    -2960054.643 7  -2293297.82245  24444098.186    24444107.7794
  21565022.074   -19814082.162 8 -15413614.63347  21565028.536    21565037.1734
  22213665.536   -14147118.404 8 -11008189.84347  22213670.653    22213678.0114
  22547120.013   -12189101.747 8  -9474445.81846  22547118.430    22547127.6754
  24005121.491    -6660420.609 8  -5182984.56645  24005127.126    24005136.9144
  23482241.128    -6173069.327 8  -4788804.29146  23482248.206    23482257.7694
 00  6 29  2 44  0.0000000  0  7 25 16 22 20 29 06 30
  20680608.483   -24640411.236 9 -19187351.97548  20680612.655    20680619.3754
  24427348.465    -3048088.018 7  -2361895.40245  24427345.099    24427355.8784
  21547303.430   -19907224.351 9 -15486192.89847  21547304.419    21547312.9564
  22206035.459   -14187230.759 8 -11039446.18647  22206036.757    22206045.1304
  22561936.817   -12111207.907 8  -9413749.46046  22561940.338    22561950.9764
  23999184.519    -6691630.844 8  -5207304.15245  23999187.589    23999196.9044
  23500547.378    -6076895.024 8  -4713863.27045  23500549.898    23500559.1624
 00  6 29  2 44 30.0000000  0  8 25 16 22 20 29 06 01 30
  20683360.434   -24625960.619 9 -19176091.73848  20683362.254    20683369.2344
  24410641.567    -3135793.193 7  -2430237.23245  24410655.357    24410664.0974
  21529651.154   -19999985.063 9 -15558473.91247  21529652.649    21529661.2604
  22198508.777   -14226779.259 8 -11070263.15047  22198510.507    22198519.1544
  22576808.451   -12033045.984 8  -9352844.24846  22576814.752    22576824.3864
  23993326.752    -6722414.095 8  -5231291.02445  23993329.293    23993339.3914
  24776047.548    -1710136.21217  -1314390.60955  24776050.767    24776061.8304
  23518898.399    -5980469.849 8  -4638726.82945  23518899.419    23518908.5854
 00  6 29  2 45  0.0000000  0  8 25 16 22 20 29 06 01 30
  20686152.876   -24611281.987 9 -19164653.87848  20686155.621    20686162.5314
  24394041.025    -3223167.215 7  -2498321.03745  24394028.865    24394039.0924
  21512073.326   -20092361.709 9 -15630455.64747  21512073.859    21512082.2234
  22191090.992   -14265762.502 8 -11100639.68047  22191092.071    22191101.2994
  22591736.040   -11954616.598 8  -9291730.61046  22591739.249    22591748.9264
  23987552.885    -6752768.567 8  -5254943.79445  23987553.414    23987561.7434
  24758038.215    -1804794.106 7  -1388149.85345  24758036.527    24758048.9264
  23537296.318    -5883796.208 8  -4563396.72546  23537295.856    23537305.1784
 00  6 29  2 45 30.0000000  0  8 25 16 22 20 29 06 01 30
  20688988.443   -24596375.466 9 -19153038.42748  20688992.229    20688999.0104
  24377463.215    -3310207.786 7  -2566145.13245  24377466.220    24377476.8644
  21494561.634   -20184351.795 9 -15702136.17147  21494568.818    21494577.0864
  22183779.347   -14304179.144 8 -11130574.68247  22183781.738    22183790.4484
  22606717.076   -11875920.408 8  -9230409.05346  22606715.584    22606724.7674
  23981859.217    -6782692.348 8  -5278260.98045  23981858.549    23981868.5074
  24740018.015    -1899475.691 7  -1461927.49545  24740020.168    24740031.6844
  23555732.197    -5786876.683 8  -4487875.01046  23555739.325    23555748.1804
 00  6 29  2 46  0.0000000  0  8 25 16 22 20 29 06 01 30
  20691869.088   -24581241.968 9 -19141246.11548  20691872.080    20691878.8304
  24360966.603    -3396911.842 7  -2633706.90445  24360966.548    24360976.5364
  21477133.406   -20275953.427 8 -15773513.99947  21477136.845    21477145.5374
  22176577.103   -14342027.918 8 -11160067.20647  22176580.071    22176587.0394
  22621727.486   -11796958.103 8  -9168880.15746  22621740.576    22621751.1704
  23976250.659    -6812183.601 8  -5301241.10945  23976246.987    23976256.6004
  24721998.441    -1994179.864 7  -1535722.78545  24721998.451    24722009.4894
  23574220.671    -5689713.986 8  -4412163.76345  23574228.455    23574237.7374
 00  6 29  2 46 30.0000000  0  8 25 16 22 20 29 06 01 30
  20694792.803   -24565881.786 9 -19129277.12148  20694794.987    20694801.6764
  24344527.738    -3483276.689 7  -2701004.26545  24344531.463    24344541.1144
  21459778.203   -20367164.560 8 -15844587.54447  21459779.957    21459788.6104
  22169484.241   -14379307.420 8 -11189116.13947  22169485.446    22169493.3384
  22636814.031   -11717730.489 8  -9107144.55046  22636817.405    22636828.5094
  23970713.890    -6841240.683 8  -5323882.92745  23970717.726    23970727.5524
  24703968.664    -2088905.483 7  -1609534.81345  24703972.313    24703984.6754
  23592762.828    -5592310.843 8  -4336265.25946  23592763.301    23592773.7594
 00  6 29  2 47  0.0000000  0  8 25 16 22 20 29 06 01 30
  20697758.591   -24550295.589 9 -19117132.01948  20697760.893    20697767.6694
  24328160.516    -3569300.015 8  -2768035.52645  24328163.969    24328172.5084
  21442497.970   -20457982.606 9 -15915354.79647  21442498.157    21442506.0564
  22162496.364   -14416016.275 8 -11217720.40447  22162499.192    22162507.8254
  22651944.245   -11638238.213 8  -9045202.67446  22651945.113    22651954.1984
  23965260.990    -6869861.672 8  -5346184.94245  23965271.538    23965280.5904
  24685937.117    -2183651.308 7  -1683362.57345  24685943.787    24685953.9794
  23611340.461    -5494669.942 8  -4260181.48246  23611344.286    23611353.3844
 00  6 29  2 47 30.0000000  0  8 25 16 22 20 29 06 01 30
  20700767.621   -24534483.912 9 -19104811.26948  20700769.690    20700776.5664
  24311854.773    -3654979.251 7  -2834798.72345  24311859.489    24311869.3734
  21425287.845   -20548405.086 9 -15985813.81747  21425291.425    21425299.7024
  22155622.865   -14452153.434 8 -11245879.18847  22155622.840    22155631.2364
  22667123.902   -11558482.056 8  -8983055.18946  22667122.314    22667132.1004
  23959901.860    -6898044.940 8  -5368145.85745  23959907.399    23959917.4654
  24667907.335    -2278416.050 7  -1757205.09245  24667910.869    24667920.3554
  23629960.234    -5396793.759 8  -4183914.34346  23629968.956    23629978.4054
 00  6 29  2 48  0.0000000  0  8 25 16 22 20 29 06 01 30
  20703817.726   -24518447.254 9 -19092315.18648  20703821.500    20703828.4104
  24295615.062    -3740311.829 7  -2901291.79945  24295620.067    24295629.8484
  21408156.738   -20638429.694 9 -16055962.80847  21408160.136    21408168.6894
  22148853.353   -14487717.599 8 -11273591.50247  22148855.719    22148863.8134
  22682345.818   -11478462.732 8  -8920702.65146  22682349.023    22682359.9604
  23954621.709    -6925788.849 8  -5389764.40945  23954627.671    23954637.9684
  24649871.182    -2373198.524 7  -1831061.42845  24649874.007    24649884.2074
  23648641.005    -5298684.998 8  -4107465.96345  23648638.751    23648647.9454
 00  6 29  2 48 30.0000000  0  8 25 16 22 20 29 06 01 30
  20706913.630   -24502186.185 9 -19079644.23248  20706915.713    20706922.6094
  24279443.368    -3825295.052 7  -2967512.67845  24279449.584    24279459.4264
  21391101.163   -20728054.646 9 -16125800.38047  21391105.155    21391113.6734
  22142197.076   -14522707.504 8 -11300856.33947  22142197.901    22142206.1064
  22697625.196   -11398180.986 8  -8858145.62846  22697626.671    22697636.5024
  23949430.068    -6953091.511 8  -5411039.14245  23949433.037    23949441.6294
  24631840.781    -2467997.614 7  -1904930.71545  24631834.086    24631845.4804
  23667347.606    -5200346.367 8  -4030838.41245  23667351.551    23667361.4024
 00  6 29  2 49  0.0000000  0  8 25 16 22 20 29 06 01 30
  20710049.517   -24485701.021 9 -19066798.64148  20710052.350    20710059.6164
  24263341.853    -3909925.951 7  -3033458.96045  24263345.110    24263355.0934
  21374124.657   -20817277.857 9 -16195324.89247  21374126.143    21374135.1194
  22135643.790   -14557121.771 8 -11327672.62347  22135648.477    22135656.0544
  22712951.028   -11317637.557 8  -8795384.68546  22712953.860    22712964.4504
  23944322.698    -6979951.104 8  -5431968.64045  23944322.744    23944331.2064
  24613798.475    -2562812.180 7  -1978812.03445  24613791.573    24613802.5694
  23686094.957    -5101780.553 8  -3954033.90045  23686108.085    23686117.6364
 00  6 29  2 49 30.0000000  0  8 25 16 22 20 29 06 01 30
  20713228.013   -24468992.484 9 -19053779.01448  20713231.898    20713239.2034
  24247305.317    -3994202.260 7  -3099128.86045  24247307.701    24247317.5564
  21357222.817   -20906096.698 9 -16264534.32247  21357224.552    21357233.2524
  22129206.937   -14590959.455 8 -11354039.63847  22129208.767    22129216.5764
  22728324.231   -11236833.072 8  -8732420.35146  22728330.640    22728340.3054
  23939293.267    -7006365.974 8  -5452551.60545  23939295.193    23939304.3274
  24595744.568    -2657640.959 8  -2052704.45845  24595748.232    24595757.5994
  23704900.583    -5002990.004 8  -3877054.19745  23704907.631    23704917.5364
 00  6 29  2 50  0.0000000  0  8 25 16 22 20 29 06 01 30
  20716449.934   -24452061.260 9 -19040585.87248  20716453.965    20716461.1504
  24231338.546    -4078121.818 8  -3164520.85445  24231338.949    24231348.5084
  21340397.406   -20994508.747 9 -16333426.76747  21340400.445    21340409.3994
  22122874.721   -14624219.251 8 -11379956.35347  22122879.898    22122888.2994
  22743753.948   -11155768.553 8  -8669253.36246  22743757.332    22743766.0914
  23934353.007    -7032334.442 8  -5472786.73645  23934354.006    23934362.9664
  24577689.377    -2752482.609 7  -2126606.88545  24577697.417    24577709.4634
  23723749.550    -4903977.382 8  -3799901.47245  23723748.282    23723758.0024
 00  6 29  2 50 30.0000000  0  8 25 16 22 20 29 06 01 30
  20719715.557   -24434907.334 9 -19027219.17448  20719718.066    20719725.2934
  24215436.479    -4161681.337 8  -3229632.21545  24215436.888    24215446.8704
  21323652.228   -21082511.876 9 -16402000.57747  21323653.723    21323662.2324
  22116658.997   -14656900.250 8 -11405422.04047  22116660.773    22116669.5124
  22759232.222   -11074444.531 8  -8605884.17046  22759232.587    22759241.6564
  23929497.255    -7057854.810 8  -5492672.69045  23929497.902    23929507.1194
  24559640.660    -2847335.959 7  -2200518.41445  24559648.405    24559657.8524
  23742631.452    -4804745.314 8  -3722577.79345  23742630.780    23742641.4304
 00  6 29  2 51  0.0000000  0  8 25 16 22 20 29 06 01 30
  20723021.177   -24417531.709 9 -19013679.74048  20723024.568    20723032.1854
  24199604.385    -4244878.680 8  -3294461.43445  24199606.911    24199616.5604
  21306983.945   -21170104.334 9 -16470254.39847  21306985.783    21306993.6874
  22110550.749   -14689001.061 8 -11430435.63647  22110553.026    22110560.8284
  22774750.369   -10992861.883 8  -8542313.46746  22774757.071    22774765.9844
  23924726.096    -7082925.458 8  -5512208.20945  23924727.122    23924736.4534
  24541593.778    -2942199.673 7  -2274438.06845  24541595.161    24541605.3244
  23761547.489    -4705296.212 8  -3645084.96345  23761555.512    23761566.4274
 00  6 29  2 51 30.0000000  0  8 25 16 22 20 29 06 01 30
  20726369.965   -24399934.830 9 -18999967.93148  20726373.324    20726380.6734
  24183837.059    -4327711.004 8  -3359006.22545  24183844.195    24183852.4764
  21290393.791   -21257284.038 9 -16538186.57547  21290395.773    21290404.0804
  22104552.522   -14720520.864 8 -11454996.50047  22104554.298    22104562.1484
  22790326.129   -10911021.423 8  -8478541.83646  22790331.061    22790340.0054
  23920039.721    -7107544.866 8  -5531392.11645  23920040.886    23920050.7194
  24523536.961    -3037072.434 8  -2348364.77445  24523541.818    24523551.2544
  23780520.723    -4605633.016 8  -3567425.32745  23780522.212    23780532.1814
 00  6 29  2 52  0.0000000  0  8 25 16 22 20 29 06 01 30
  20729759.183   -24382116.660 9 -18986083.64148  20729764.106    20729771.2074
  24168150.282    -4410175.685 8  -3423264.36045  24168150.801    24168160.7944
  21273882.414   -21344048.343 9 -16605795.07547  21273885.578    21273893.5174
  22098663.943   -14751458.368 8 -11479103.63047  22098667.174    22098675.5034
  22805950.091   -10828924.137 8  -8414570.08946  22805953.148    22805964.2154
  23915443.208    -7131711.488 8  -5550223.18645  23915442.866    23915452.0424
  24505483.270    -3131953.130 8  -2422297.67145  24505487.385    24505496.8414
  23799518.323    -4505758.127 8  -3489600.71145  23799527.372    23799537.1314
 00  6 29  2 52 30.0000000  0  8 25 16 22 20 29 06 01 30
  20733194.472   -24364078.174 9 -18972027.69448  20733196.879    20733203.9734
  24152524.255    -4492270.456 8  -3487234.32645  24152529.310    24152540.1754
  21257450.548   -21430395.012 9 -16673078.14047  21257453.633    21257462.3224
  22092890.175   -14781812.694 8 -11502756.32447  22092891.075    22092899.2864
  22821617.723   -10746570.651 8  -8350398.71546  22821624.931    22821635.4524
  23910924.425    -7155423.611 8  -5568700.12545  23910930.954    23910940.5394
  24487429.413    -3226840.456 8  -2496235.74445  24487430.236    24487440.2684
  23818570.987    -4405674.427 8  -3411613.36045  23818573.071    23818582.2914
 00  6 29  2 53  0.0000000  0  8 25 16 22 20 29 06 01 30
  20736667.960   -24345819.949 9 -18957800.51148  20736671.485    20736678.4624
  24136980.740    -4573992.897 8  -3550914.13545  24136977.514    24136987.4594
  21241101.347   -21516322.084 9 -16740034.23847  21241102.275    21241110.8744
  22087225.233   -14811582.619 8 -11525953.65547  22087226.514    22087234.0694
  22837345.310   -10663961.775 8  -8286028.35146  22837345.395    22837355.7354
  23906504.048    -7178679.821 8  -5586821.79145  23906505.563    23906514.6094
  24469370.895    -3321732.828 8  -2570177.74345  24469373.348    24469382.4214
  23837655.462    -4305384.349 8  -3333465.21945  23837656.512    23837666.8254
 00  6 29  2 53 30.0000000  0  8 25 16 22 20 29 06 01 30
  20740184.677   -24327342.126 9 -18943402.21648  20740187.806    20740194.8074
  24121495.263    -4655340.036 8  -3614301.63245  24121497.748    24121507.5844
  21224830.716   -21601827.791 9 -16806662.00147  21224831.085    21224839.5254
  22081668.460   -14840767.282 8 -11548694.93347  22081672.358    22081680.1494
  22853110.064   -10581098.394 8  -8221459.66646  22853113.937    22853124.0394
  23902166.050    -7201478.485 8  -5604586.92845  23902166.009    23902176.1934
  24451308.849    -3416629.204 7  -2644122.82145  24451313.992    24451324.9554
  23856774.962    -4204890.335 8  -3255158.17645  23856780.151    23856790.7864
 00  6 29  2 54  0.0000000  0  8 25 16 22 20 29 06 01 30
  20743743.974   -24308645.298 9 -18928833.25748  20743745.894    20743752.3724
  24106097.525    -4736309.681 7  -3677394.94245  24106089.154    24106099.2534
  21208637.597   -21686909.950 9 -16872959.73147  21208640.519    21208648.7244
  22076225.483   -14869365.701 8 -11570979.40147  22076229.623    22076237.8834
  22868933.665   -10497981.369 8  -8156693.33846  22868930.664    22868940.1824
  23897910.131    -7223817.992 8  -5621994.26945  23897914.267    23897923.7704
  24433249.691    -3511528.225 7  -2718070.01645  24433255.163    24433265.5874
  23875935.057    -4104194.837 8  -3176694.05645  23875942.204    23875951.5554
 00  6 29  2 54 30.0000000  0  8 25 16 22 20 29 06 01 30
  20747342.019   -24289729.986 9 -18914094.07648  20747345.477    20747351.7854
  24090749.177    -4816899.427 8  -3740192.20345  24090753.342    24090764.0634
  21192530.102   -21771566.120 9 -16938925.53347  21192530.777    21192539.1764
  22070896.668   -14897376.952 8 -11592806.34447  22070899.545    22070907.6204
  22884790.745   -10414611.603 8  -8091730.05446  22884795.470    22884804.9214
  23893752.180    -7245696.820 8  -5639042.66245  23893750.692    23893761.2974
  24415193.519    -3606428.527 7  -2792018.24045  24415196.068    24415206.5504
  23895144.316    -4003300.905 8  -3098075.37045  23895142.051    23895151.2374
 00  6 29  2 55  0.0000000  0  8 25 16 22 20 29 06 01 30
  20750983.993   -24270596.541 9 -18899184.91348  20750986.495    20750992.9374
  24075484.989    -4897106.253 8  -3802691.02545  24075491.700    24075501.4934
  21176502.168   -21855794.100 9 -17004557.67047  21176503.288    21176511.2654
  22065680.404   -14924800.022 8 -11614174.94947  22065681.005    22065689.4734
  22900706.069   -10330989.748 8  -8026570.33446  22900707.232    22900719.0534
  23889667.542    -7267113.639 7  -5655731.02245  23889674.421    23889684.4014
  24397134.306    -3701328.852 7  -2865966.39745  24397136.503    24397148.1734
  23914370.076    -3902210.676 8  -3019303.69445  23914378.636    23914387.2494
 00  6 29  2 55 30.0000000  0  8 25 16 22 20 29 06 01 30
  20754665.763   -24251245.760 9 -18884106.36348  20754668.461    20754675.2514
  24060305.027    -4976927.944 8  -3864889.77445  24060302.779    24060311.0104
  21160551.860   -21939591.979 9 -17069854.67647  21160557.020    21160565.1024
  22060572.917   -14951634.191 8 -11635084.66747  22060575.690    22060582.6784
  22916669.601   -10247116.835 8  -7961215.02846  22916668.807    22916678.2304
  23885683.765    -7288066.843 8  -5672058.15045  23885688.764    23885696.9564
  24379074.067    -3796227.928 7  -2939913.61245  24379078.219    24379089.6674
  23933643.682    -3800926.916 8  -2940381.25145  23933652.573    23933661.7964
 00  6 29  2 56  0.0000000  0  8 25 16 22 20 29 06 01 30
  20758388.717   -24231678.043 9 -18868858.81248  20758391.863    20758398.7034
  24045179.269    -5056361.991 7  -3926786.42645  24045184.532    24045195.6804
  21144687.876   -22022958.078 9 -17134815.22347  21144692.852    21144700.9864
  22055578.342   -14977878.515 8 -11655534.77647  22055580.895    22055588.9574
  22932673.651   -10162993.688 8  -7895664.68346  22932677.059    22932685.4854
  23881781.353    -7308555.038 8  -5688022.95545  23881788.949    23881798.6144
  24361017.857    -3891124.401 7  -3013858.76445  24361020.333    24361030.1704
  23952966.864    -3699452.186 8  -2861309.93145  23952963.151    23952971.8624
 00  6 29  2 56 30.0000000  0  8 25 16 22 20 29 06 01 30
  20762153.255   -24211893.617 9 -18853442.37448  20762156.725    20762163.5364
  24030144.240    -5135405.939 8  -3988379.04145  24030144.020    24030154.8204
  21128908.869   -22105890.234 9 -17199437.63847  21128910.832    21128919.2584
  22050697.531   -15003532.204 8 -11675524.64247  22050699.672    22050706.9564
  22948729.609   -10078621.164 8  -7829920.03646  22948733.122    22948742.9134
  23877977.663    -7328576.884 8  -5703624.36145  23877979.652    23877987.9834
  24342955.803    -3986016.811 7  -3087800.77945  24342962.366    24342972.5074
  23972308.682    -3597789.033 8  -2782091.82845  23972308.250    23972317.0404
 00  6 29  2 57  0.0000000  0  8 25 16 22 20 29 06 01 30
  20765958.896   -24191893.122 9 -18837857.58948  20765962.419    20765969.7564
  24015174.655    -5214057.146 8  -4049665.70245  24015177.226    24015186.8284
  21113210.958   -22188386.041 9 -17263720.02047  21113212.370    21113220.9974
  22045926.588   -15028594.336 8 -11695053.54647  22045930.075    22045938.2534
  22964823.846    -9994000.177 8  -7763981.79846  22964835.576    22964845.9474
  23874257.473    -7348130.931 8  -5718861.23245  23874257.694    23874268.1644
  24324897.068    -4080903.788 7  -3161738.56445  24324906.531    24324916.5594
  23991675.873    -3495939.985 7  -2702728.85945  23991689.149    23991698.3714
 00  6 29  2 57 30.0000000  0  8 25 16 22 20 29 06 01 30
  20769807.527   -24171676.861 9 -18822104.67948  20769809.617    20769816.6804
  24000282.126    -5292313.383 8  -4110644.64145  24000285.752    24000294.6814
  21097597.958   -22270443.339 9 -17327660.72647  21097597.697    21097605.7224
  22041270.215   -15053064.097 8 -11714120.86447  22041273.473    22041281.4854
  22980981.128    -9909131.657 8  -7697850.64346  22980986.171    22980994.9224
  23870620.689    -7367215.903 8  -5733732.62245  23870627.046    23870636.0314
  24306851.717    -4175783.930 8  -3235671.04245  24306852.492    24306861.6994
  24011097.544    -3393907.641 7  -2623223.05545  24011103.838    24011114.7934
 00  6 29  2 58  0.0000000  0  8 25 16 22 20 29 06 01 30
  20773695.164   -24151245.394 9 -18806184.07448  20773697.760    20773704.6844
  23985469.896    -5370172.042 8  -4171313.74345  23985469.547    23985478.9884
  21082063.636   -22352060.446 9 -17391258.43047  21082066.363    21082074.4844
  22036726.139   -15076940.755 8 -11732726.02147  22036729.709    22036737.2204
  22997177.071    -9824016.533 8  -7631527.34546  22997183.233    22997192.8434
  23867078.574    -7385830.243 8  -5748237.26545  23867084.201    23867094.8074
  24288794.668    -4270655.713 8  -3309596.99345  24288797.774    24288809.1404
  24030553.258    -3291694.473 8  -2543576.39945  24030555.672    24030564.5094
 00  6 29  2 58 30.0000000  0  8 25 16 22 20 29 06 01 30
  20777622.674   -24130599.399 9 -18790096.29048  20777626.543    20777633.4894
  23970727.541    -5447630.497 8  -4231671.04445  23970729.628    23970739.1534
  21066616.557   -22433235.760 9 -17454511.87047  21066619.187    21066626.9354
  22032297.572   -15100223.562 9 -11750868.42947  22032299.797    22032306.3354
  23013426.867    -9738655.546 8  -7565012.49046  23013426.678    23013437.4544
  23863628.423    -7403972.607 8  -5762374.14445  23863632.186    23863642.8764
  24270746.087    -4365517.853 8  -3383515.43145  24270745.669    24270755.7514
  24050040.374    -3189303.070 8  -2463790.80045  24050039.684    24050049.0664
 00  6 29  2 59  0.0000000  0  8 25 16 22 20 29 06 01 30
  20781593.907   -24109738.933 9 -18773841.37648  20781596.102    20781603.0614
  23956065.925    -5524686.379 8  -4291714.55945  23956067.469    23956076.4354
  21051255.506   -22513967.015 9 -17517419.30447  21051256.601    21051264.3974
  22027975.902   -15122911.827 8 -11768547.56747  22027981.785    22027989.0634
  23029713.028    -9653049.878 8  -7498306.96946  23029717.213    23029727.1664
  23860267.929    -7421641.628 8  -5776142.19245  23860269.768    23860279.9184
  24252697.478    -4460368.974 8  -3457425.26945  24252696.160    24252705.8904
  24069555.110    -3086735.882 8  -2383868.19545  24069558.364    24069567.0144
 00  6 29  2 59 30.0000000  0  8 25 16 22 20 29 06 01 30
  20785602.689   -24088664.596 9 -18757419.81748  20785606.275    20785613.3394
  23941475.324    -5601337.468 8  -4351442.66345  23941480.172    23941490.8124
  21035977.660   -22594251.925 9 -17579978.92447  21035979.116    21035987.2854
  22023772.489   -15145004.739 8 -11785762.78147  22023777.847    22023784.7214
  23046049.471    -9567200.386 8  -7431411.42446  23046054.747    23046063.9064
  23856999.002    -7438836.147 8  -5789540.49845  23856997.628    23857007.3144
  24234645.481    -4555207.668 8  -3531325.45045  24234648.583    24234657.9184
  24089108.272    -2983995.768 8  -2303810.83445  24089108.366    24089118.5184
 00  6 29  3  0  0.0000000  0  8 25 16 22 20 29 06 01 30
  20789653.808   -24067376.619 9 -18740831.79748  20789657.077    20789664.2414
  23926970.249    -5677581.142 7  -4410853.43045  23926971.990    23926980.5864
  21020782.473   -22674088.521 9 -17642189.20647  21020785.873    21020794.6854
  22019683.312   -15166501.721 8 -11802513.63047  22019686.590    22019694.4194
  23062432.605    -9481107.773 8  -7364326.46946  23062436.670    23062447.2724
  23853813.179    -7455554.705 8  -5802567.90845  23853815.908    23853826.3154
  24216605.703    -4650032.654 8  -3605214.98945  24216605.007    24216613.4124
  24108690.989    -2881084.677 8  -2223620.24845  24108691.866    24108700.5514
 00  6 29  3  0 30.0000000  0  8 25 16 22 20 29 06 01 30
  20793744.287   -24045875.834 9 -18724077.96048  20793748.546    20793755.4934
  23912539.814    -5753414.905 7  -4469944.63045  23912538.914    23912551.6104
  21005677.725   -22753475.171 9 -17704048.88547  21005679.572    21005687.9064
  22015706.684   -15187402.215 8 -11818799.69347  22015709.346    22015717.4754
  23078864.248    -9394773.310 8  -7297053.04546  23078866.125    23078876.6414
  23850715.848    -7471796.068 8  -5815223.49545  23850724.300    23850736.0554
  24198563.421    -4744842.156 8  -3679092.39545  24198562.313    24198572.6414
  24128305.143    -2778005.419 8  -2143298.55845  24128306.981    24128315.7564
 00  6 29  3  1  0.0000000  0  8 25 16 22 20 29 06 01 30
  20797878.705   -24024162.573 9 -18707158.51948  20797880.488    20797887.2614
  23898186.105    -5828836.554 8  -4528714.73145  23898189.977    23898199.9804
  20990657.397   -22832410.229 9 -17765556.67047  20990658.777    20990666.7024
  22011844.119   -15207705.476 9 -11834620.37047  22011846.278    22011853.9484
  23095341.486    -9308197.835 8  -7229591.83746  23095340.609    23095351.6184
  23847721.898    -7487559.090 8  -5827506.34345  23847725.281    23847736.2974
  24180519.454    -4839634.913 8  -3752956.78245  24180523.711    24180535.2254
  24147951.890    -2674760.663 8  -2062848.00645  24147953.854    24147962.4074
 00  6 29  3  1 30.0000000  0  8 25 16 22 20 29 06 01 30
  20802049.169   -24002236.813 9 -18690073.54748  20802052.932    20802060.1474
  23883909.875    -5903843.793 8  -4587161.99945  23883915.470    23883925.1144
  20975722.555   -22910891.441 9 -17826710.81547  20975724.277    20975732.3124
  22008095.386   -15227411.034 9 -11849975.31747  22008096.461    22008104.2404
  23111853.949    -9221382.302 8  -7161943.54646  23111860.950    23111873.0254
  23844815.103    -7502842.271 8  -5839415.28345  23844816.590    23844828.5044
  24162493.585    -4934409.397 8  -3826806.90245  24162489.931    24162498.9934
  24167628.111    -2571352.899 8  -1982270.37545  24167630.964    24167639.5544
 00  6 29  3  2  0.0000000  0  8 25 16 22 20 29 06 01 30
  20806262.780   -23980099.515 9 -18672823.72548  20806265.880    20806272.4674
  23869718.077    -5978433.671 8  -4645283.89645  23869720.315    23869730.7264
  20960874.787   -22988916.667 9 -17887509.65247  20960876.605    20960884.4074
  22004456.232   -15246518.047 8 -11864863.85847  22004460.006    22004467.6914
  23128426.575    -9134327.749 8  -7094109.05246  23128427.002    23128439.3204
  23841991.341    -7517644.480 8  -5850949.44245  23842000.625    23842010.9564
  24144458.365    -5029164.294 8  -3900641.75945  24144459.107    24144468.2004
  24187335.780    -2467784.436 8  -1901567.50545  24187340.226    24187349.0604
 00  6 29  3  2 30.0000000  0  8 25 16 22 20 29 06 01 30
  20810515.395   -23957750.804 9 -18655409.16148  20810518.863    20810525.0154
  23855603.236    -6052604.094 8  -4703078.98145  23855607.317    23855616.1744
  20946116.901   -23066484.081 9 -17947951.74247  20946115.610    20946123.3254
  22000936.092   -15265026.336 8 -11879285.86047  22000938.253    22000945.8434
  23145035.839    -9047035.169 8  -7026089.06146  23145038.438    23145049.6194
  23839270.683    -7531964.620 8  -5862107.95245  23839275.572    23839285.1894
  24126427.153    -5123898.075 8  -3974460.16045  24126431.160    24126440.0144
  24207082.919    -2364057.856 7  -1820741.44145  24207077.007    24207087.1184
 00  6 29  3  3  0.0000000  0  8 25 16 22 20 29 06 01 30
  20814807.756   -23935191.273 9 -18637830.31048  20814811.565    20814818.3434
  23841571.074    -6126352.867 8  -4760545.54545  23841572.928    23841583.0034
  20931439.770   -23143592.181 9 -18008035.93347  20931442.431    20931450.4814
  21997528.573   -15282935.075 9 -11893240.69047  21997530.251    21997537.5574
  23161699.152    -8959505.487 8  -6957884.29446  23161696.029    23161705.8684
  23836639.067    -7545801.570 8  -5872889.95745  23836642.807    23836653.2344
  24108399.892    -5218609.373 7  -4048261.04445  24108406.024    24108416.4734
  24226842.310    -2260175.796 7  -1739794.21845  24226846.806    24226854.9614
 00  6 29  3  3 30.0000000  0  8 25 16 22 20 29 06 01 30
  20819141.197   -23912421.396 9 -18620087.57348  20819144.559    20819151.5164
  23827620.084    -6199677.486 8  -4817681.62145  23827620.344    23827630.0204
  20916854.057   -23220239.323 9 -18067760.93547  20916856.804    20916864.7474
  21994233.175   -15300243.905 8 -11906728.06547  21994236.324    21994243.9764
  23178390.961    -8871739.605 8  -6889495.47445  23178396.485    23178407.1954
  23834099.003    -7559153.948 8  -5883294.37145  23834101.794    23834112.5254
  24090390.651    -5313296.485 8  -4122043.08745  24090389.084    24090399.5934
  24246642.390    -2156140.786 7  -1658727.79345  24246643.002    24246652.5384
 00  6 29  3  4  0.0000000  0  8 25 16 22 20 29 06 01 30
  20823515.208   -23889441.375 9 -18602181.09148  20823517.684    20823524.4454
  23813740.740    -6272575.531 8  -4874485.25245  23813747.137    23813757.5814
  20902358.336   -23296423.183 9 -18127124.94247  20902359.623    20902367.6064
  21991053.651   -15316952.307 8 -11919747.56347  21991056.799    21991063.8774
  23195142.925    -8783738.677 8  -6820923.50745  23195142.799    23195152.7744
  23831651.365    -7572020.609 8  -5893320.29845  23831653.189    23831662.8454
  24072367.975    -5407958.025 8  -4195805.19145  24072375.808    24072385.5064
  24266466.724    -2051954.827 7  -1577543.78145  24266468.407    24266477.4364
 00  6 29  3  4 30.0000000  0  8 25 16 22 20 29 06 01 30
  20827927.569   -23866251.919 9 -18584111.42048  20827930.511    20827937.2094
  23799952.394    -6345044.974 8  -4930954.98045  23799958.086    23799967.1794
  20887948.096   -23372141.766 9 -18186126.39247  20887950.645    20887958.7684
  21987989.140   -15333059.898 8 -11932298.89847  21987991.464    21987999.4054
  23211930.017    -8695503.735 8  -6752169.20845  23211933.588    23211944.3024
  23829299.590    -7584400.606 8  -5902967.00345  23829297.489    23829307.4344
  24054370.542    -5502592.533 8  -4269546.26545  24054366.370    24054375.5174
  24286311.035    -1947620.880 7  -1496244.45845  24286322.727    24286331.8194
 00  6 29  3  5  0.0000000  0  8 25 16 22 20 29 06 01 30
  20832378.744   -23842853.049 9 -18565878.53848  20832382.866    20832389.8734
  23786247.055    -6417083.091 8  -4987088.57145  23786249.356    23786258.9424
  20873628.185   -23447393.380 9 -18244763.97047  20873630.897    20873638.7754
  21985039.874   -15348566.195 8 -11944381.70447  21985040.867    21985048.3434
  23228768.479    -8607035.761 8  -6683233.31945  23228768.456    23228779.5454
  23827029.801    -7596292.683 8  -5912233.52245  23827035.084    23827044.4254
  24036361.127    -5597198.541 8  -4343265.08445  24036364.565    24036372.8534
  24306196.174    -1843141.228 7  -1414831.54245  24306204.395    24306214.0994
 00  6 29  3  5 30.0000000  0  8 25 16 22 20 29 06 01 30
  20836871.458   -23819245.422 9 -18547482.99248  20836875.426    20836882.3744
  23772618.614    -6488687.587 8  -5042884.29645  23772622.781    23772632.8124
  20859396.058   -23522176.685 9 -18303036.63347  20859399.884    20859408.1524
  21982202.622   -15363470.866 9 -11955995.70647  21982204.874    21982212.3794
  23245649.330    -8518335.657 8  -6614116.58745  23245647.797    23245659.2834
  23824863.486    -7607696.092 8  -5921119.24146  23824864.645    23824875.3374
  24018361.533    -5691774.465 8  -4416960.51345  24018367.006    24018376.7124
  24326109.981    -1738518.302 7  -1333306.98245  24326113.341    24326121.5344
 00  6 29  3  6  0.0000000  0  8 25 16 22 20 29 06 01 30
  20841403.966   -23795429.517 9 -18528925.17048  20841407.186    20841414.4174
  23759074.790    -6559856.039 8  -5098340.14245  23759080.009    23759091.2164
  20845256.741   -23596489.861 9 -18360942.96247  20845258.939    20845267.0914
  21979477.792   -15377773.607 8 -11967140.67747  21979482.495    21979489.9304
  23262566.308    -8429404.650 8  -6544819.89745  23262571.075    23262582.9134
  23822782.019    -7618609.546 8  -5929623.22446  23822788.402    23822798.2614
  24000374.373    -5786318.520 8  -4490631.09645  24000375.742    24000384.1334
  24346038.578    -1633754.597 7  -1251672.78445  24346049.391    24346057.9054
 00  6 29  3  6 30.0000000  0  8 25 16 22 20 29 06 01 30
  20845974.684   -23771405.348 9 -18510205.07148  20845978.638    20845985.9374
  23745620.215    -6630586.707 8  -5153454.82945  23745619.966    23745631.7044
  20831203.052   -23670330.888 9 -18418481.39147  20831206.943    20831215.3034
  21976874.610   -15391473.988 9 -11977816.27347  21976876.043    21976883.7004
  23279536.984    -8340243.635 8  -6475344.00245  23279537.874    23279549.7274
  23820804.625    -7629032.027 8  -5937744.57245  23820803.685    23820814.3644
  23982385.492    -5880829.424 8  -4564275.82945  23982390.686    23982398.3044
  24366005.928    -1528852.380 7  -1169930.59245  24366011.962    24366019.8054
 00  6 29  3  7  0.0000000  0  8 25 16 22 20 29 06 01 30
  20850584.986   -23747173.392 9 -18491323.03348  20850589.925    20850597.1234
  23732239.988    -6700876.873 8  -5208226.36645  23732244.781    23732255.0044
  20817243.323   -23743697.767 9 -18475650.34247  20817245.852    20817253.9324
  21974381.228   -15404571.635 8 -11988022.21347  21974383.534    21974390.7924
  23296541.680    -8250853.769 8  -6405689.78145  23296547.597    23296559.6994
  23818910.480    -7638962.491 8  -5945482.53745  23818913.852    23818925.2764
  23964408.603    -5975305.752 8  -4637893.64345  23964412.780    23964421.1674
  24385995.450    -1423814.399 7  -1088082.64445  24385999.750    24386006.3514
 00  6 29  3  7 30.0000000  0  8 25 16 22 20 29 06 01 30
  20855237.168   -23722733.927 9 -18472279.33048  20855240.946    20855247.8214
  23718955.343    -6770724.240 8  -5262652.83445  23718953.403    23718962.7684
  20803371.148   -23816588.976 9 -18532448.64147  20803374.788    20803382.9934
  21972002.396   -15417066.366 9 -11997758.33747  21972005.772    21972013.7364
  23313598.736    -8161236.180 8  -6335858.10645  23313601.380    23313613.6134
  23817117.564    -7648399.821 8  -5952836.24545  23817117.856    23817127.7084
  23946438.477    -6069745.726 8  -4711483.07245  23946439.489    23946450.3584
  24406014.762    -1318643.009 7  -1006130.68045  24406013.237    24406021.0024
 00  6 29  3  8  0.0000000  0  8 25 16 22 20 29 06 01 30
  20859927.926   -23698087.998 9 -18453074.72548  20859931.080    20859937.9984
  23705747.116    -6840126.618 8  -5316732.51445  23705746.629    23705755.7214
  20789594.474   -23889003.166 9 -18588875.25347  20789595.202    20789603.2354
  21969740.200   -15428957.861 9 -12007024.43247  21969742.674    21969751.1404
  23330697.244    -8071391.866 8  -6265849.76745  23330699.745    23330710.8194
  23815411.634    -7657343.213 8  -5959805.07945  23815417.648    23815427.0424
  23928470.196    -6164147.780 8  -4785042.97545  23928476.901    23928485.3334
  24426052.519    -1213340.553 7   -924076.68845  24426051.290    24426058.3024
 00  6 29  3  8 30.0000000  0  8 25 16 22 20 29 06 01 30
  20864657.331   -23673235.545 9 -18433709.20148  20864660.545    20864667.2364
  23692625.127    -6909081.949 8  -5370463.89846  23692624.959    23692635.3584
  20775902.219   -23960938.676 9 -18644928.85247  20775905.928    20775914.3044
  21967593.994   -15440245.986 9 -12015820.35747  21967595.059    21967602.7514
  23347833.848    -7981322.014 8  -6195665.68745  23347838.758    23347851.1294
  23813805.029    -7665791.582 8  -5966388.17346  23813809.982    23813819.7744
  23910524.777    -6258510.403 8  -4858572.21545  23910519.694    23910527.8354
  24446109.339    -1107909.298 7   -841922.22445  24446114.743    24446121.7514
 00  6 29  3  9  0.0000000  0  8 25 16 22 20 29 06 01 30
  20869425.178   -23648176.939 9 -18414183.02348  20869428.786    20869435.6024
  23679581.047    -6977587.730 8  -5423844.96245  23679588.345    23679597.8244
  20762303.886   -24032393.372 9 -18700607.79947  20762308.920    20762316.4894
  21965558.388   -15450930.486 8 -12024145.92847  21965561.308    21965568.6784
  23365017.567    -7891027.457 8  -6125306.54845  23365020.483    23365032.4894
  23812292.312    -7673744.116 8  -5972584.88946  23812295.575    23812305.8904
  23892568.218    -6352831.974 8  -4932069.44745  23892571.296    23892581.0144
  24466196.750    -1002351.684 7   -759669.39645  24466200.530    24466208.4354
 00  6 29  3  9 30.0000000  0  8 25 16 22 20 29 06 01 30
  20874232.229   -23622912.426 9 -18394496.40748  20874236.669    20874243.2304
  23666638.044    -7045642.180 8  -5476874.34045  23666638.828    23666647.9384
  20748800.535   -24103365.440 9 -18755910.67347  20748803.272    20748811.1674
  21963640.804   -15461011.329 8 -12032001.11847  21963642.674    21963650.2694
  23382249.283    -7800509.552 8  -6054773.34945  23382246.874    23382257.7534
  23810872.361    -7681199.819 8  -5978394.46945  23810876.444    23810886.8754
  23874630.587    -6447111.116 8  -5005533.55445  23874630.127    23874640.2474
  24486308.416     -896670.349 7   -677320.07145  24486311.295    24486318.4814
 00  6 29  3 10  0.0000000  0  8 25 16 22 20 29 06 01 30
  20879080.025   -23597442.701 9 -18374649.87848  20879083.352    20879089.9874
  23653773.747    -7113242.572 8  -5529549.90246  23653775.519    23653783.9054
  20735388.336   -24173853.468 9 -18810836.37647  20735389.961    20735397.8054
  21961839.698   -15470488.115 9 -12039385.62747  21961840.129    21961846.6874
  23399511.768    -7709769.213 8  -5984066.82945  23399514.287    23399526.9694
  23809551.064    -7688157.784 8  -5983816.20045  23809552.999    23809563.0454
  23856694.093    -6541346.067 8  -5078963.28845  23856698.279    23856706.6564
  24506429.435     -790867.980 7   -594876.68045  24506444.749    24506451.7364
 00  6 29  3 10 30.0000000  0  8 25 16 22 20 29 06 01 30
  20883966.355   -23571767.696 9 -18354643.39648  20883969.107    20883975.8674
  23640993.309    -7180386.934 8  -5581870.10145  23640996.289    23641006.1244
  20722067.076   -24243856.217 9 -18865383.93147  20722068.437    20722076.6734
  21960147.713   -15479360.725 8 -12046299.33547  21960151.095    21960158.8854
  23416821.499    -7618807.701 8  -5913187.97945  23416823.662    23416835.5964
  23808318.870    -7694617.253 8  -5988849.46845  23808323.640    23808333.4324
  23838770.594    -6635535.299 8  -5152357.40145  23838774.098    23838783.1634
  24526588.937     -684946.270 7   -512340.17645  24526600.581    24526608.0424
 00  6 29  3 11  0.0000000  0  8 25 16 22 20 29 06 01 30
  20888890.613   -23545888.179 9 -18334477.55248  20888893.787    20888900.8124
  23628304.660    -7247072.870 8  -5633833.11445  23628306.823    23628316.3204
  20708840.084   -24313372.006 9 -18919552.03847  20708840.509    20708848.3574
  21958574.862   -15487629.097 9 -12052742.22847  21958578.185    21958585.7284
  23434170.603    -7527626.019 8  -5842137.54845  23434176.474    23434186.6704
  23807184.677    -7700577.349 8  -5993493.61645  23807188.642    23807198.5664
  23820860.680    -6729677.363 8  -5225714.78146  23820859.188    23820869.6474
  24546773.047     -578907.740 7   -429712.62745  24546778.814    24546785.9244
 00  6 29  3 11 30.0000000  0  8 25 16 22 20 29 06 01 30
  20893855.491   -23519804.162 9 -18314152.36848  20893857.284    20893864.4834
  23615699.468    -7313298.493 8  -5685437.44145  23615704.574    23615714.0364
  20695703.377   -24382398.856 9 -18973339.15947  20695705.031    20695712.7454
  21957116.282   -15495293.166 8 -12058714.23047  21957118.928    21957127.0874
  23451569.628    -7436225.357 8  -5770916.48745  23451569.018    23451581.4484
  23806147.824    -7706037.134 8  -5997747.90945  23806149.811    23806159.4344
  23802946.262    -6823770.130 8  -5299033.72445  23802953.063    23802964.1304
  24566979.011     -472755.007 7   -346996.08945  24566978.923    24566985.3394
 00  6 29  3 12  0.0000000  0  7 25 16 22 20 29 06 01
  20898855.751   -23493515.959 9 -18293668.07848  20898859.728    20898867.2384
  23603183.869    -7379061.378 8  -5736681.17945  23603189.297    23603200.3344
  20682661.218   -24450935.124 9 -19026744.00847  20682662.780    20682670.6084
  21955774.384   -15502352.966 8 -12064215.38347  21955775.896    21955784.1134
  23468998.334    -7344606.752 8  -5699525.65645  23469003.127    23469014.9044
  23805200.548    -7710995.777 8  -6001611.69845  23805206.727    23805216.3044
  23785055.112    -6917812.203 8  -5372313.13745  23785057.428    23785067.5334
 00  6 29  3 12 30.0000000  0  7 25 16 22 20 29 06 01
  20903898.342   -23467024.108 9 -18273025.10248  20903901.260    20903908.4184
  23590766.028    -7444359.696 8  -5787562.89046  23590764.052    23590774.9204
  20669713.594   -24518979.371 9 -19079765.46147  20669714.362    20669722.3764
  21954540.651   -15508808.500 8 -12069245.66847  21954547.576    21954555.5574
  23486468.400    -7252771.606 8  -5627966.08145  23486478.353    23486491.0374
  23804355.916    -7715452.539 8  -6005084.40745  23804358.585    23804368.6024
  23767167.598    -7011802.063 8  -5445551.94046  23767173.424    23767181.9844
 00  6 29  3 13  0.0000000  0  7 25 16 22 20 29 06 01
  20908978.567   -23440329.043 9 -18252223.78748  20908981.228    20908988.1274
  23578420.462    -7509190.993 8  -5838080.73445  23578427.302    23578436.0284
  20656855.790   -24586530.498 9 -19132402.66847  20656859.638    20656867.5864
  21953429.728   -15514659.745 8 -12073805.08047  21953434.117    21953441.9274
  23503993.219    -7160720.914 8  -5556238.53545  23503996.026    23504007.4974
  23803603.231    -7719406.693 8  -6008165.48145  23803607.154    23803614.9594
  23749294.106    -7105737.809 8  -5518748.54745  23749296.761    23749306.9174
 00  6 29  3 13 30.0000000  0  7 25 16 22 20 29 06 01
  20914095.462   -23413430.915 9 -18231264.23948  20914099.713    20914106.6654
  23566183.768    -7573553.418 8  -5888233.24746  23566180.115    23566190.0444
  20644098.894   -24653586.857 9 -19184654.33447  20644099.394    20644107.4034
  21952432.357   -15519906.535 8 -12077893.51447  21952435.419    21952442.8164
  23521552.402    -7068455.725 8  -5484343.80245  23521554.002    23521565.3914
  23802948.924    -7722857.360 8  -6010854.24545  23802948.595    23802959.5934
  23731425.635    -7199617.796 8  -5591901.69645  23731432.192    23731442.0864
 00  6 29  3 14  0.0000000  0  7 25 16 22 20 29 06 01
  20919254.272   -23386329.817 9 -18210146.53248  20919256.873    20919263.4584
  23554014.647    -7637444.470 8  -5938018.40946  23554020.932    23554031.7234
  20631432.212   -24720146.517 9 -19236518.97047  20631433.470    20631441.3894
  21951549.854   -15524549.225 8 -12081511.18547  21951552.048    21951559.6624
  23539147.705    -6975977.541 8  -5412283.15745  23539151.550    23539165.2664
  23802380.708    -7725803.993 8  -6013150.20945  23802388.765    23802397.0924
  23713577.079    -7293440.605 8  -5665010.34946  23713579.552    23713587.5074
 00  6 29  3 14 30.0000000  0  7 25 16 22 20 29 06 01
  20924447.213   -23359026.576 9 -18188871.28048  20924452.390    20924459.2734
  23541950.150    -7700862.550 8  -5987435.05646  23541953.779    23541963.2664
  20618861.031   -24786207.874 9 -19287995.31748  20618862.417    20618870.2614
  21950783.322   -15528587.729 9 -12084658.08547  21950784.260    21950791.1014
  23556792.691    -6883287.211 8  -5340057.20745  23556790.992    23556802.4594
  23801914.554    -7728245.919 8  -6015052.90545  23801923.103    23801933.4374
  23695729.655    -7387204.360 8  -5738072.93146  23695734.951    23695745.6094
 00  6 29  3 15  0.0000000  0  7 25 16 22 20 29 06 01
  20929683.870   -23331521.242 9 -18167438.56248  20929686.624    20929693.6184
  23529977.089    -7763805.257 8  -6036481.22946  23529975.421    23529984.7544
  20606386.049   -24851769.909 9 -19339082.58148  20606386.483    20606394.1624
  21950126.159   -15532022.114 9 -12087334.23347  21950130.651    21950137.9424
  23574464.516    -6790385.880 8  -5267666.80145  23574469.707    23574479.1764
  23801554.966    -7730182.499 8  -6016561.84345  23801555.808    23801565.2004
  23677899.232    -7480907.323 8  -5811088.13846  23677904.249    23677914.2404
 00  6 29  3 15 30.0000000  0  7 25 16 22 20 29 06 01
  20934956.619   -23303814.361 9 -18145848.80248  20934959.058    20934965.8574
  23518085.355    -7826270.700 8  -6085155.54246  23518090.309    23518098.8874
  20594003.138   -24916831.454 9 -19389779.86148  20594005.809    20594013.2484
  21949588.841   -15534852.695 9 -12089539.89647  21949592.237    21949599.1374
  23592184.823    -6697275.003 8  -5195113.14545  23592187.314    23592199.6224
  23801280.186    -7731612.916 8  -6017676.36645  23801282.865    23801292.3024
  23660082.384    -7574547.776 8  -5884054.58046  23660084.778    23660094.9664
 00  6 29  3 16  0.0000000  0  7 25 16 22 20 29 06 01
  20940266.096   -23275905.738 9 -18124101.84748  20940269.720    20940276.8584
  23506291.758    -7888256.734 8  -6133456.25345  23506292.846    23506302.8364
  20581717.859   -24981390.709 9 -19440085.73748  20581720.153    20581728.3104
  21949164.814   -15537079.698 8 -12091275.22847  21949167.518    21949175.1884
  23609942.096    -6603955.562 7  -5122396.95645  23609945.642    23609958.5504
  23801099.923    -7732536.723 8  -6018396.14445  23801107.311    23801115.8364
  23642272.136    -7668124.145 8  -5956971.18546  23642278.130    23642288.1034
 00  6 29  3 16 30.0000000  0  7 25 16 22 20 29 06 01
  20945616.010   -23247796.152 9 -18102198.29348  20945619.047    20945625.7404
  23494588.405    -7949761.245 8  -6181381.79146  23494589.442    23494599.7024
  20569528.131   -25045446.024 9 -19489998.92348  20569531.038    20569538.7684
  21948856.713   -15538702.992 8 -12092540.15147  21948858.783    21948866.9194
  23627736.469    -6510428.742 7  -5049519.20245  23627743.235    23627756.0594
  23801026.040    -7732953.094 8  -6018720.51345  23801026.963    23801035.9194
  23624477.008    -7761634.560 8  -6029836.39046  23624482.524    23624492.6054
 00  6 29  3 17  0.0000000  0  7 25 16 22 20 29 06 01
  20951003.596   -23219485.830 9 -18080138.32048  20951006.257    20951013.0564
  23482977.719    -8010782.479 8  -6228930.74846  23482977.942    23482987.7754
  20557437.127   -25108995.960 9 -19539518.32648  20557437.960    20557445.5004
  21948662.584   -15539723.046 8 -12093335.00847  21948664.601    21948672.1844
  23645576.842    -6416695.918 8  -4976480.88045  23645581.269    23645594.1714
  23801037.624    -7732861.474 8  -6018649.02445  23801044.644    23801052.4864
  23606701.804    -7855077.348 8  -6102648.84646  23606701.538    23606710.9844
 00  6 29  3 17 30.0000000  0  7 25 16 22 20 29 06 01
  20956428.695   -23190974.911 9 -18057922.04348  20956431.202    20956438.8034
  23471453.438    -8071318.245 8  -6276101.43946  23471457.090    23471466.6174
  20545438.567   -25172039.472 9 -19588643.10648  20545440.891    20545448.9514
  21948581.782   -15540139.986 8 -12093659.90947  21948585.409    21948592.7174
  23663451.929    -6322758.138 7  -4903282.92545  23663456.279    23663468.7074
  23801154.981    -7732261.226 8  -6018181.25445  23801159.363    23801167.8824
  23588933.605    -7948450.781 8  -6175407.34046  23588934.212    23588941.8234
 00  6 29  3 18  0.0000000  0  7 25 16 22 20 29 06 01
  20961890.157   -23162264.118 9 -18035550.03348  20961895.008    20961902.1224
  23460031.515    -8131366.502 8  -6322892.27446  23460031.165    23460040.0064
  20533540.295   -25234575.523 9 -19637372.45348  20533540.523    20533548.7794
  21948618.381   -15539954.362 8 -12093515.27247  21948621.074    21948628.6434
  23681370.533    -6228616.796 8  -4829926.28545  23681372.380    23681384.2384
  23801371.046    -7731151.924 8  -6017316.82545  23801370.127    23801379.5594
  23571174.651    -8041753.151 8  -6248110.38346  23571179.637    23571188.0004
 00  6 29  3 18 30.0000000  0  7 25 16 22 20 29 06 01
  20967393.560   -23133353.380 9 -18013022.18548  20967397.053    20967403.7394
  23448692.811    -8190925.421 8  -6369301.77146  23448696.554    23448706.8874
  20521733.828   -25296602.288 9 -19685704.97248  20521737.539    20521745.2024
  21948770.255   -15539166.105 9 -12092901.05747  21948770.688    21948778.9044
  23699304.354    -6134273.189 7  -4756412.04945  23699323.306    23699339.6294
  23801673.688    -7729532.981 8  -6016055.27145  23801678.748    23801687.5474
  23553434.254    -8134982.634 8  -6320756.60946  23553438.368    23553447.7944
 00  6 29  3 19  0.0000000  0  7 25 16 22 20 29 06 01
  20972933.175   -23104242.786 9 -17990338.63548  20972936.547    20972943.2334
  23437454.561    -8249992.906 8  -6415328.37246  23437457.250    23437466.2994
  20510031.370   -25358118.251 9 -19733639.45848  20510031.156    20510038.6774
  21949033.192   -15537775.577 8 -12091817.55447  21949035.038    21949043.5204
  23717308.119    -6039728.315 7  -4682741.03245  23717315.923    23717329.0194
  23802074.632    -7727403.821 8  -6014396.14445  23802083.211    23802093.4064
  23535712.025    -8228137.626 8  -6393344.88846  23535710.769    23535719.0144
 00  6 29  3 19 30.0000000  0  7 25 16 22 20 29 06 01
  20978512.317   -23074933.127 9 -17967499.95948  20978514.068    20978520.5074
  23426307.571    -8308567.277 8  -6460970.65646  23426310.119    23426319.4004
  20498420.436   -25419122.119 9 -19781174.90948  20498422.892    20498430.2524
  21949410.345   -15535783.370 8 -12090265.20847  21949414.697    21949421.9704
  23735352.283    -5944983.575 7  -4608914.20745  23735344.791    23735358.8024
  23802579.939    -7724764.043 8  -6012339.12545  23802585.874    23802595.2184
  23517997.654    -8321216.015 8  -6465873.43546  23517999.428    23518007.1974
 00  6 29  3 20  0.0000000  0  7 25 16 22 20 29 06 01
  20984126.704   -23045424.435 9 -17944506.18848  20984129.449    20984136.2714
  23415258.088    -8366646.344 8  -6506227.08646  23415257.788    23415267.8934
  20486910.076   -25479613.109 9 -19828310.71448  20486911.533    20486919.4044
  21949905.646   -15533189.691 8 -12088244.17947  21949908.092    21949915.6534
  23753410.495    -5850040.121 7  -4534932.62845  23753412.804    23753428.5134
  23803187.493    -7721613.137 8  -6009883.83446  23803186.147    23803194.7114
  23500298.954    -8414216.491 8  -6538341.27646  23500301.063    23500310.5704
 00  6 29  3 20 30.0000000  0  7 25 16 22 20 29 06 01
  20989777.539   -23015716.909 9 -17921357.48648  20989782.207    20989789.3984
  23404298.250    -8424228.267 8  -6551096.08746  23404301.058    23404309.8634
  20475495.851   -25539590.036 9 -19875045.95548  20475498.500    20475505.8814
  21950512.000   -15529994.996 8 -12085754.81347  21950515.229    21950523.5874
  23771516.101    -5754899.360 7  -4460797.32445  23771517.535    23771532.1914
  23803880.830    -7717950.822 8  -6007030.04845  23803883.017    23803891.2064
  23482617.217    -8507136.914 8  -6610746.74646  23482619.689    23482627.3864
 00  6 29  3 21  0.0000000  0  7 25 16 22 20 29 06 01
  20995470.644   -22985811.131 9 -17898054.28147  20995472.801    20995480.0344
  23393435.877    -8481311.164 8  -6595576.23946  23393439.318    23393449.2854
  20464183.758   -25599051.198 9 -19921379.29948  20464183.421    20464190.8274
  21951234.465   -15526199.669 8 -12082797.43647  21951238.153    21951246.2944
  23789657.764    -5659562.407 7  -4386509.05445  23789658.548    23789672.1804
  23804670.403    -7713776.333 8  -6003777.18845  23804676.116    23804685.5144
  23464940.606    -8599975.541 8  -6683088.48446  23464952.140    23464961.0844
 00  6 29  3 21 30.0000000  0  7 25 16 22 20 29 06 01
  21001197.226   -22955707.052 9 -17874596.57347  21001201.151    21001208.5964
  23382670.285    -8537893.312 8  -6639666.21246  23382671.167    23382681.1254
  20452961.809   -25657995.146 9 -19967309.62048  20452966.343    20452973.9694
  21952071.367   -15521804.251 8 -12079372.45547  21952074.436    21952082.2774
  23807837.902    -5564030.675 7  -4312069.06445  23807839.780    23807854.9034
  23805570.563    -7709089.526 8  -6000125.09146  23805569.094    23805578.4844
  23447304.510    -8692730.659 8  -6755365.14746  23447301.852    23447309.8714
 00  6 29  3 22  0.0000000  0  7 25 16 22 20 29 06 01
  21006963.645   -22925405.137 9 -17850984.70747  21006967.147    21006975.0134
  23371998.648    -8593972.618 8  -6683364.30546  23372000.682    23372009.2804
  20441845.907   -25716420.883 9 -20012836.13948  20441848.297    20441855.5724
  21953024.985   -15516809.284 8 -12075480.29347  21953025.190    21953033.4984
  23826043.279    -5468305.396 7  -4237478.27245  23826054.521    23826069.1834
  23806552.977    -7703889.968 8  -5996073.46945  23806556.890    23806567.1754
  23429661.053    -8785400.413 8  -6827575.25746  23429667.619    23429676.3014
 00  6 29  3 22 30.0000000  0  7 25 16 22 20 29 06 01
  21012769.904   -22894905.589 9 -17827218.84747  21012771.365    21012778.9584
  23361422.703    -8649547.350 8  -6726669.30646  23361424.467    23361432.9224
  20430826.325   -25774327.573 9 -20057958.20948  20430829.052    20430836.4564
  21954087.416   -15511215.198 8 -12071121.29447  21954089.719    21954097.7674
  23844296.748    -5372387.864 7  -4162737.64945  23844307.636    23844321.6584
  23807645.676    -7698177.400 8  -5991622.09045  23807645.631    23807654.0884
  23412049.244    -8877983.077 8  -6899717.51346  23412049.068    23412057.6944
 00  6 29  3 23  0.0000000  0  7 25 16 22 20 29 06 01
  21018607.335   -22864208.519 9 -17803299.07447  21018613.183    21018620.4734
  23350939.461    -8704615.748 8  -6769579.70446  23350945.338    23350954.7084
  20419908.389   -25831714.097 9 -20102674.95248  20419908.751    20419916.3834
  21955263.938   -15505022.446 8 -12066295.78547  21955267.694    21955276.4114
  23862596.421    -5276279.463 8  -4087848.32245  23862597.702    23862611.7624
  23808821.606    -7691951.425 8  -5986770.65446  23808829.225    23808839.1364
  23394444.827    -8970476.693 8  -6971790.38946  23394447.677    23394456.6694
 00  6 29  3 23 30.0000000  0  7 25 16 22 20 29 06 01
  21024490.564   -22833314.468 9 -17779225.79947  21024492.300    21024499.5624
  23340558.715    -8759175.873 8  -6812094.08646  23340561.591    23340571.4904
  20409085.236   -25888578.856 9 -20146985.12848  20409087.582    20409095.2694
  21956558.567   -15498231.678 9 -12061004.29247  21956560.598    21956568.1424
  23880921.794    -5179981.353 8  -4012811.25245  23880923.230    23880937.0434
  23810110.068    -7685211.766 8  -5981518.92946  23810111.876    23810121.2074
  23376861.013    -9062879.349 8  -7043792.38246  23376864.243    23376873.6714
 00  6 29  3 24  0.0000000  0  7 25 16 22 20 29 06 01
  21030405.954   -22802223.660 9 -17754999.20547  21030408.692    21030415.7954
  23330276.409    -8813225.791 8  -6854210.91446  23330276.823    23330286.3854
  20398362.996   -25944920.597 9 -20190887.76748  20398366.168    20398373.8824
  21957964.003   -15490843.636 8 -12055247.39347  21957966.057    21957974.4434
  23899284.717    -5083494.940 8  -3937627.39045  23899284.126    23899297.2164
  23811484.835    -7677958.105 8  -5975866.70345  23811492.353    23811501.5614
  23359297.352    -9155189.385 8  -7115722.16746  23359297.420    23359305.5294
 00  6 29  3 24 30.0000000  0  7 25 16 22 20 29 06 01
  21036357.466   -22770936.335 9 -17730619.49047  21036362.432    21036369.4444
  23320089.792    -8866764.178 8  -6895929.07546  23320088.747    23320098.7114
  20387742.720   -26000738.430 9 -20234382.15948  20387744.523    20387752.1564
  21959480.238   -15482858.817 8 -12049025.48547  21959485.439    21959494.1404
  23917668.753    -4986821.624 7  -3862297.85945  23917679.920    23917694.3744
  23812968.658    -7670190.297 8  -5969813.82945  23812970.758    23812980.3224
  23341744.729    -9247405.100 8  -7187578.52446  23341750.107    23341758.7214
 00  6 29  3 25  0.0000000  0  7 25 16 22 20 29 06 01
  21042350.538   -22739452.510 9 -17706086.65947  21042353.484    21042360.7554
  23309996.659    -8919789.064 8  -6937247.15846  23309999.751    23310007.1934
  20377221.925   -26056031.556 9 -20277467.69648  20377222.714    20377230.3964
  21961118.614   -15474277.909 9 -12042339.06947  21961119.099    21961126.3314
  23936109.705    -4889962.335 7  -3786823.53445  23936112.203    23936126.4294
  23814543.252    -7661907.911 8  -5963359.98846  23814546.983    23814556.4354
  23324218.430    -9339524.518 8  -7259359.78946  23324220.429    23324229.0664
 00  6 29  3 25 30.0000000  0  7 25 16 22 20 29 06 01
  21048379.500   -22707772.479 9 -17681400.94247  21048382.341    21048389.4974
  23300003.551    -8972298.629 8  -6978163.70346  23300007.084    23300015.1474
  20366798.734   -26110798.846 9 -20320143.49248  20366800.608    20366808.5104
  21962865.648   -15465101.438 9 -12035188.58847  21962865.508    21962872.6114
  23954571.789    -4792918.774 7  -3711205.53645  23954579.707    23954593.3334
  23816216.448    -7653110.791 8  -5956505.06746  23816220.685    23816230.2474
  23306704.545    -9431545.734 8  -7331064.57246  23306709.301    23306718.4764
 00  6 29  3 26  0.0000000  0  7 25 16 22 20 29 06 01
  21054444.936   -22675896.505 9 -17656562.55247  21054448.263    21054455.3044
  23290110.327    -9024291.068 8  -7018677.28846  23290112.404    23290120.8634
  20356477.180   -26165038.918 9 -20362408.46448  20356479.160    20356486.7474
  21964722.003   -15455330.239 8 -12027574.68247  21964724.260    21964732.1804
  23973072.089    -4695692.141 7  -3635444.85245  23973080.965    23973095.2214
  23817985.447    -7643798.647 8  -5949248.83245  23817993.141    23818002.8994
  23289209.986    -9523466.883 8  -7402691.39046  23289216.842    23289225.6604
 00  6 29  3 26 30.0000000  0  7 25 16 22 20 29 06 01
  21060549.052   -22643825.034 9 -17631571.81547  21060551.332    21060558.2714
  23280311.273    -9075765.058 8  -7058786.84446  23280317.467    23280326.9844
  20346258.983   -26218750.571 9 -20404261.69048  20346258.367    20346265.8344
  21966696.017   -15444965.020 8 -12019497.90147  21966696.920    21966704.3794
  23991610.212    -4598283.765 7  -3559542.59845  23991616.916    23991632.4414
  23819861.997    -7633971.268 8  -5941591.10945  23819863.245    23819871.6084
  23271743.525    -9615285.813 8  -7474238.54946  23271744.309    23271753.9704
 00  6 29  3 27  0.0000000  0  7 25 16 22 20 29 06 01
  21066687.882   -22611558.344 9 -17606428.95548  21066692.060    21066698.4484
  23270618.642    -9126718.773 8  -7098491.03146  23270621.241    23270630.7724
  20336135.953   -26271933.025 9 -20445702.55848  20336138.100    20336145.4254
  21968781.404   -15434006.513 9 -12010958.81547  21968782.365    21968789.8874
  24010180.770    -4500695.015 7  -3483499.77145  24010188.106    24010201.9624
  23821828.633    -7623628.634 8  -5933531.88945  23821831.167    23821839.1784
  23254284.692    -9707000.743 8  -7545704.63846  23254291.748    23254301.1234
 00  6 29  3 27 30.0000000  0  7 25 16 22 20 29 06 01
  21072866.425   -22579096.376 9 -17581133.92748  21072869.157    21072875.8394
  23261020.023    -9177150.411 8  -7137788.39646  23261023.865    23261032.8194
  20326115.964   -26324585.696 9 -20486730.59948  20326118.074    20326126.4934
  21970979.329   -15422455.536 9 -12001958.05947  21970980.605    21970987.7224
  24028797.286    -4402927.316 7  -3407317.55845  24028791.856    24028807.0744
  23823895.395    -7612770.559 8  -5925071.00845  23823897.033    23823905.4724
  23236858.873    -9798609.923 8  -7617088.37746  23236859.583    23236866.9634
 00  6 29  3 28  0.0000000  0  7 25 16 22 20 29 06 01
  21079080.834   -22546439.503 9 -17555687.02448  21079083.358    21079090.4484
  23251523.336    -9227058.333 8  -7176677.71146  23251527.274    23251536.0774
  20316196.993   -26376707.424 9 -20527344.91548  20316199.789    20316207.8494
  21973290.383   -15410312.805 8 -11992496.20747  21973290.829    21973298.8244
  24047434.690    -4304982.156 7  -3330997.04645  24047431.447    24047448.1824
  23826056.625    -7601396.978 8  -5916208.45145  23826062.813    23826070.3684
  23219447.130    -9890111.379 8  -7688388.14646  23219447.051    23219454.4024
 00  6 29  3 28 30.0000000  0  7 25 16 22 20 29 06 01
  21085332.017   -22513588.032 9 -17530088.50848  21085334.829    21085341.8064
  23242130.976    -9276440.969 8  -7215157.66946  23242130.644    23242140.6864
  20306380.654   -26428296.846 9 -20567544.45148  20306382.457    20306390.5644
  21975712.461   -15397579.283 9 -11982574.00347  21975714.045    21975722.1214
  24066097.014    -4206860.764 7  -3254539.26345  24066104.397    24066118.0444
  23828319.097    -7589507.791 8  -5906944.10045  23828324.436    23828332.4214
  23202053.367    -9981503.265 8  -7759602.56746  23202056.655    23202064.2744
 00  6 29  3 29  0.0000000  0  7 25 16 22 20 29 06 01
  21091620.188   -22480541.858 9 -17504338.25047  21091623.180    21091630.2054
  23232830.333    -9325296.628 8  -7253227.00846  23232833.233    23232843.6644
  20296664.270   -26479353.095 9 -20607328.53048  20296666.757    20296674.5624
  21978244.817   -15384255.786 8 -11972192.06647  21978249.045    21978257.7344
  24084797.292    -4108564.542 7  -3177945.16945  24084808.826    24084825.6284
  23830682.400    -7577102.936 8  -5897277.95545  23830685.179    23830693.7034
  23184684.270   -10072783.414 8  -7830729.89046  23184685.793    23184693.9884
 00  6 29  3 29 30.0000000  0  7 25 16 22 20 29 06 01
  21097944.810   -22447301.701 9 -17478436.84847  21097948.482    21097955.3434
  23223635.250    -9373623.960 8  -7290884.67846  23223636.974    23223647.1584
  20287050.756   -26529875.433 9 -20646696.57648  20287052.972    20287060.6264
  21980894.920   -15370343.108 9 -11961351.02847  21980896.999    21980905.0334
  24103550.079    -4010094.727 7  -3101215.89445  24103546.958    24103562.3204
  23833138.759    -7564182.191 8  -5887209.80845  23833143.805    23833150.8844
  23167336.495   -10163949.877 8  -7901768.67346  23167338.629    23167345.0344
 00  6 29  3 30  0.0000000  0  7 25 16 22 20 29 06 01
  21104307.583   -22413867.334 9 -17452384.11547  21104310.620    21104317.6694
  23214539.356    -9421421.270 8  -7328129.33746  23214540.915    23214551.1904
  20277539.387   -26579863.236 9 -20685648.09648  20277540.712    20277548.1424
  21983654.931   -15355842.041 8 -11950051.51147  21983656.245    21983664.4874
  24122320.816    -3911452.845 7  -3024352.45945  24122318.650    24122334.1774
  23835697.125    -7550745.675 8  -5876739.74345  23835700.435    23835708.7904
  23150008.262   -10255000.884 8  -7972717.47046  23150011.576    23150018.8154
 00  6 29  3 30 30.0000000  0  7 25 16 22 20 29 06 01
  21110705.594   -22380238.782 9 -17426180.06247  21110709.600    21110716.9214
  23205544.312    -9468687.116 8  -7364959.85946  23205547.414    23205557.2054
  20268125.864   -26629315.420 9 -20724182.25648  20268129.842    20268137.9364
  21986526.486   -15340753.855 9 -11938294.49247  21986527.619    21986535.2974
  24141106.416    -3812640.286 7  -2947356.09545  24141122.641    24141139.8764
  23838351.012    -7536793.344 8  -5865867.77745  23838355.461    23838363.0484
  23132704.990   -10345934.518 8  -8043574.82146  23132706.789    23132715.2474
 00  6 29  3 31  0.0000000  0  7 25 16 22 20 29 06 01
  21117142.291   -22346416.469 9 -17399825.02347  21117145.943    21117153.0914
  23196650.373    -9515419.715 8  -7401374.86746  23196653.935    23196662.8574
  20258818.267   -26678230.841 9 -20762298.15148  20258821.931    20258829.8124
  21989508.359   -15325079.330 9 -11926080.57747  21989510.541    21989518.2644
  24159956.075    -3713658.436 7  -2870227.81145  24159958.920    24159973.5664
  23841107.017    -7522325.073 8  -5854593.76845  23841108.109    23841116.4764
  23115421.642   -10436748.893 8  -8114339.20046  23115425.094    23115433.8114
 00  6 29  3 31 30.0000000  0  7 25 16 22 20 29 06 01
  21123615.408   -22312400.746 9 -17373319.28847  21123618.910    21123626.2064
  23187856.047    -9561617.772 8  -7437373.37746  23187862.280    23187872.3304
  20249613.651   -26726608.668 9 -20799995.14148  20249615.943    20249623.5324
  21992601.173   -15308819.537 9 -11913410.61947  21992604.973    21992613.4504
  24178823.150    -3614508.567 7  -2792968.54145  24178825.484    24178842.4324
  23843957.933    -7507341.054 8  -5842917.87845  23843959.624    23843968.0734
  23098166.061   -10527441.888 8  -8185009.06146  23098167.112    23098174.5104
 00  6 29  3 32  0.0000000  0  7 25 16 22 20 29 06 01
  21130124.353   -22278191.444 9 -17346662.70347  21130128.655    21130136.1284
  23179167.766    -9607279.487 8  -7472953.91846  23179173.151    23179183.1074
  20240508.021   -26774448.426 9 -20837272.85848  20240512.101    20240519.8134
  21995808.646   -15291975.475 9 -11900285.37647  21995810.783    21995817.4214
  24197718.715    -3515192.450 7  -2715579.81945  24197726.819    24197742.5884
  23846904.013    -7491841.462 8  -5830840.27545  23846908.914    23846917.2034
  23080930.055   -10618011.525 8  -8255582.76746  23080931.980    23080940.7654
 00  6 29  3 32 30.0000000  0  7 25 16 22 20 29 06 01
  21136672.097   -22243789.196 9 -17319855.76647  21136675.250    21136682.6034
  23170582.820    -9652403.819 8  -7508115.73646  23170587.198    23170595.4814
  20231509.266   -26821749.508 9 -20874130.83148  20231511.122    20231518.7034
  21999123.231   -15274548.077 9 -11886705.57847  21999126.299    21999134.0104
  24216648.442    -3415711.104 7  -2638062.30045  24216656.863    24216671.8374
  23849953.648    -7475826.189 8  -5818360.81045  23849957.169    23849964.9084
  23063714.816   -10708456.032 8  -8326058.93046  23063719.716    23063729.5504
 00  6 29  3 33  0.0000000  0  7 25 16 22 20 29 06 01
  21143255.354   -22209193.708 9 -17292898.25347  21143258.439    21143265.9034
  23162100.609    -9696989.227 8  -7542857.62946  23162102.341    23162112.1364
  20222610.416   -26868510.845 9 -20910568.21748  20222612.986    20222620.4854
  22002551.229   -15256538.454 9 -11872672.10947  22002553.715    22002561.5334
  24235622.507    -3316066.140 7  -2560417.25345  24235619.550    24235633.9884
  23853096.389    -7459295.388 8  -5805479.62545  23853102.045    23853111.8394
  23046529.711   -10798773.270 8  -8396435.97346  23046534.485    23046543.4874
 00  6 29  3 33 30.0000000  0  7 25 16 22 20 29 06 01
  21149875.110   -22174405.499 9 -17265790.57147  21149878.290    21149885.9654
  23153718.554    -9741033.906 8  -7577178.15446  23153721.308    23153730.5674
  20213813.721   -26914731.354 9 -20946584.18248  20213817.411    20213824.9434
  22006088.595   -15237947.792 9 -11858185.87747  22006091.258    22006098.4514
  24254608.326    -3216258.929 7  -2482645.77145  24254611.680    24254629.1334
  23856342.072    -7442249.241 8  -5792196.90045  23856346.323    23856355.1844
  23029370.543   -10888961.154 8  -8466712.21446  23029371.288    23029379.6544
 00  6 29  3 34  0.0000000  0  7 25 16 22 20 29 06 01
  21156528.239   -22139425.040 9 -17238533.09047  21156534.765    21156542.4934
  23145441.459    -9784537.001 8  -7611076.66946  23145442.364    23145451.4694
  20205123.960   -26960410.354 9 -20982178.19848  20205125.106    20205132.4464
  22009736.908   -15218777.186 8 -11843247.74947  22009738.967    22009746.7624
  24273635.651    -3116291.019 7  -2404749.07645  24273635.778    24273652.1564
  23859688.275    -7424687.908 8  -5778512.71245  23859688.157    23859696.7514
  23012228.349   -10979017.689 8  -8536886.08746  23012234.114    23012243.8654
 00  6 29  3 34 30.0000000  0  7 25 16 22 20 29 06 01
  21163224.150   -22104251.955 9 -17211125.50647  21163228.327    21163235.5614
  23137268.547    -9827496.795 8  -7644551.84846  23137267.293    23137276.4654
  20196532.383   -27005547.685 9 -21017350.13148  20196535.691    20196543.0364
  22013494.772   -15199027.674 8 -11827858.51047  22013497.446    22013504.9254
  24292691.674    -3016163.617 7  -2326728.06645  24292690.358    24292704.9114
  23863125.461    -7406611.584 8  -5764427.23645  23863128.353    23863136.9434
  22995122.479   -11068941.056 8  -8606956.21246  22995123.296    22995131.3154
 00  6 29  3 35  0.0000000  0  7 25 16 22 20 29 06 01
  21169953.773   -22068886.602 9 -17183568.10247  21169958.581    21169965.2564
  23129195.103    -9869911.891 8  -7677602.54346  23129196.909    23129206.3554
  20188047.197   -27050142.700 9 -21052099.49048  20188049.358    20188056.5354
  22017364.514   -15178700.375 9 -11812019.05247  22017365.286    22017373.0174
  24311776.201    -2915878.646 7  -2248584.30545  24311773.789    24311788.7634
  23866658.381    -7388020.353 8  -5749940.54845  23866664.973    23866673.8964
  22978028.691   -11158729.118 8  -8676920.91346  22978036.554    22978044.5624
 00  6 29  3 35 30.0000000  0  7 25 16 22 20 29 06 01
  21176722.179   -22033329.148 9 -17155861.01247  21176725.158    21176731.5804
  23121227.382    -9911781.167 8  -7710227.93446  23121229.283    23121238.6864
  20179664.769   -27094194.326 9 -21086425.41448  20179666.342    20179674.1524
  22021340.982   -15157796.666 8 -11795730.44547  22021343.686    22021351.3644
  24330874.709    -2815437.141 7  -2170318.64745  24330888.445    24330903.7314
  23870292.657    -7368914.537 8  -5735052.86645  23870300.096    23870309.5224
  22960972.476   -11248379.812 8  -8746778.57946  22960976.084    22960984.6754
 00  6 29  3 36  0.0000000  0  7 25 16 22 20 29 06 01
  21183525.403   -21997579.495 9 -17128004.15547  21183527.950    21183534.5104
  23113363.442    -9953103.269 8  -7742426.96946  23113365.817    23113375.2274
  20171384.827   -27137701.683 9 -21120327.24648  20171387.198    20171394.8564
  22025429.081   -15136317.789 8 -11778993.65947  22025430.723    22025438.4454
  24350032.630    -2714840.775 7  -2091932.25245  24350031.012    24350046.0294
  23874031.733    -7349294.379 8  -5719764.41045  23874034.131    23874042.9494
  22943942.148   -11337891.102 8  -8816527.57146  22943943.187    22943952.2414
 00  6 29  3 36 30.0000000  0  7 25 16 22 20 29 06 01
  21190363.121   -21961638.222 9 -17099997.97747  21190367.418    21190373.9054
  23105597.996    -9993876.804 8  -7774198.53646  23105605.974    23105615.5344
  20163210.107   -27180664.297 9 -21153804.59748  20163211.776    20163219.3164
  22029625.717   -15114264.931 8 -11761809.61147  22029627.240    22029635.1304
  24369182.737    -2614091.036 7  -2013426.29345  24369202.276    24369218.3304
  23877865.545    -7329159.890 8  -5704075.16845  23877866.246    23877873.9844
  22926932.530   -11427261.009 8  -8886166.42046  22926936.324    22926944.6414
 00  6 29  3 37  0.0000000  0  6 25 16 22 20 06 01
  21197240.374   -21925505.549 9 -17071842.65247  21197243.335    21197249.7764
  23097948.656   -10034100.531 8  -7805541.68546  23097951.643    23097961.3354
  20155137.846   -27223081.938 9 -21186857.29348  20155140.001    20155147.5664
  22033931.749   -15091639.116 9 -11744179.10247  22033933.024    22033940.4354
  23881793.706    -7308511.566 8  -5687985.54145  23881795.472    23881804.0544
  22909956.578   -11516487.341 8  -8955693.39046  22909957.338    22909965.1664
 00  6 29  3 37 30.0000000  0  6 25 16 22 20 06 01
  21204151.701   -21889181.429 9 -17043538.16347  21204155.344    21204162.5324
  23090398.004   -10073773.090 8  -7836455.33846  23090402.675    23090411.4094
  20147171.310   -27264954.108 9 -21219484.95348  20147172.250    20147179.7854
  22038344.671   -15068441.728 9 -11726103.21847  22038347.351    22038354.9694
  23885817.667    -7287349.739 8  -5671495.77445  23885822.641    23885831.3944
  22893000.673   -11605568.123 8  -9025106.95046  22893006.189    22893013.7744
 00  6 29  3 38  0.0000000  0  6 25 16 22 20 06 01
  21211100.798   -21852665.831 9 -17015084.47047  21211104.134    21211111.4724
  23082954.054   -10112893.237 8  -7866938.53246  23082959.029    23082968.3094
  20139306.802   -27306279.834 9 -21251686.80348  20139308.208    20139315.3544
  22042867.904   -15044674.107 9 -11707582.99947  22042869.918    22042877.5124
  23889941.988    -7265674.638 8  -5654606.06645  23889946.771    23889955.6514
  22876083.244   -11694501.320 8  -9094405.51446  22876082.352    22876090.4174
 00  6 29  3 38 30.0000000  0  7 03 25 16 22 20 06 01
  24688653.666    -1505019.84517  -1153377.05655  24688654.717    24688668.4724
  21218085.181   -21815959.340 9 -16986482.02447  21218089.170    21218096.3004
  23075613.082   -10151459.846 8  -7896990.41846  23075619.471    23075629.8424
  20131545.337   -27347058.326 9 -21283462.24448  20131548.256    20131555.5304
  22047498.281   -15020337.738 9 -11688619.59147  22047501.527    22047508.7224
  23894167.378    -7243486.488 8  -5637316.58945  23894168.808    23894178.4204
  22859186.366   -11783284.885 8  -9163587.48046  22859187.162    22859195.7094
 00  6 29  3 39  0.0000000  0  7 03 25 16 22 20 06 01
  24669077.791    -1607888.043 7  -1233534.01845  24669080.067    24669092.8074
  21225107.091   -21779061.824 9 -16957730.74447  21225110.855    21225117.5884
  23068385.194   -10189471.850 8  -7926610.13846  23068385.886    23068395.3214
  20123889.661   -27387289.327 9 -21314811.06548  20123892.216    20123899.8204
  22052238.979   -14995433.948 9 -11669214.03647  22052240.532    22052247.2914
  23898486.975    -7220785.660 8  -5619627.59745  23898489.004    23898497.6844
  22842316.863   -11871916.659 8  -9232651.16046  22842321.838    22842330.1024
 00  6 29  3 39 30.0000000  0  7 03 25 16 22 20 06 01
  24649484.052    -1710821.779 7  -1313742.06945  24649492.810    24649505.8344
  21232165.594   -21741973.404 9 -16928830.69647  21232168.273    21232175.3074
  23061252.453   -10226928.091 8  -7955796.78646  23061257.750    23061268.0704
  20116338.472   -27426972.696 9 -21345733.15748  20116340.839    20116348.4084
  22057082.686   -14969964.184 8 -11649367.45547  22057086.384    22057094.5684
  23902904.507    -7197572.566 8  -5601539.42245  23902906.372    23902915.2724
  22825484.793   -11960394.613 8  -9301595.00346  22825483.974    22825491.9004
 00  6 29  3 40  0.0000000  0  7 03 25 16 22 20 06 01
  24629890.334    -1813818.581 7  -1393999.25045  24629893.695    24629907.3384
  21239259.113   -21704694.140 9 -16899781.93047  21239262.211    21239269.5634
  23054233.551   -10263826.978 8  -7984549.14846  23054236.116    23054245.6294
  20108891.542   -27466107.876 9 -21376228.09248  20108893.631    20108901.1014
  22062035.866   -14943929.570 8 -11629080.73847  22062041.183    22062048.4864
  23907418.956    -7173847.552 8  -5583052.36545  23907420.880    23907430.0624
  22808670.122   -12048716.704 8  -9370417.38646  22808676.425    22808685.9124
 00  6 29  3 40 30.0000000  0  7 03 25 16 22 20 06 01
  24610281.901    -1916875.748 7  -1474303.47245  24610281.556    24610294.8094
  21246389.744   -21667224.569 9 -16870584.88047  21246392.385    21246399.8154
  23047320.046   -10300167.905 8  -8012866.71946  23047320.529    23047329.7144
  20101549.012   -27504694.019 9 -21406295.20548  20101551.134    20101558.7044
  22067098.508   -14917331.831 8 -11608355.21447  22067102.127    22067109.9814
  23912020.828    -7149611.053 8  -5564166.73445  23912032.432    23912041.8844
  22791895.835   -12136880.763 8  -9439116.61546  22791900.719    22791908.4514
 00  6 29  3 41  0.0000000  0  7 03 25 16 22 20 06 01
  24590660.087    -2019990.458 7  -1554652.51345  24590659.869    24590674.4694
  21253554.625   -21629564.428 9 -16841239.32747  21253558.818    21253566.5494
  23040509.361   -10335949.640 8  -8040748.56246  23040512.013    23040520.7864
  20094311.075   -27542730.645 9 -21435934.12348  20094312.919    20094320.4924
  22072267.421   -14890172.286 8 -11587191.91947  22072269.780    22072278.6504
  23916739.634    -7124863.673 8  -5544883.04345  23916741.015    23916750.3514
  22775148.720   -12224884.662 8  -9507691.03846  22775153.395    22775162.0634
 00  6 29  3 41 30.0000000  0  7 03 25 16 22 20 06 01
  24571010.099    -2123159.775 7  -1635044.16545  24571025.819    24571039.1464
  21260758.020   -21591713.744 9 -16811745.30247  21260761.686    21260769.2064
  23033806.731   -10371170.844 8  -8068193.62446  23033809.963    23033819.3864
  20087178.204   -27580217.470 9 -21465144.63048  20087179.473    20087186.9644
  22077542.294   -14862452.390 8 -11565592.00447  22077545.559    22077553.3874
  23921545.009    -7099605.704 8  -5525201.45945  23921548.996    23921556.7484
  22758435.585   -12312726.226 8  -9576138.98446  22758437.584    22758445.6354
 00  6 29  3 42  0.0000000  0  7 03 25 16 22 20 06 01
  24551376.579    -2226381.581 7  -1715476.64445  24551384.116    24551396.9714
  21267998.142   -21553673.001 9 -16782103.18947  21268001.079    21268008.0484
  23027209.862   -10405830.878 8  -8095201.41746  23027214.145    23027223.5494
  20080148.305   -27617154.598 9 -21493926.79748  20080150.440    20080158.0294
  22082922.958   -14834173.660 8 -11543556.61147  22082926.364    22082934.8744
  23926444.248    -7073837.747 8  -5505122.46545  23926451.157    23926461.4574
  22741749.548   -12400403.511 8  -9644458.92346  22741753.886    22741761.5534
 00  6 29  3 42 30.0000000  0  7 03 25 16 22 20 06 01
  24531734.551    -2329653.268 7  -1795948.07444  24531730.204    24531746.2234
  21275273.469   -21515442.486 9 -16752313.18547  21275275.939    21275283.1244
  23020722.163   -10439928.172 8  -8121770.71146  23020725.883    23020735.5224
  20073222.473   -27653541.420 9 -21522280.15748  20073226.117    20073233.8494
  22088411.287   -14805337.677 8 -11521087.00347  22088414.248    22088422.2904
  23931446.460    -7047560.319 8  -5484646.48745  23931451.633    23931461.4334
  22725096.391   -12487914.380 8  -9712649.17146  22725100.665    22725108.1754
 00  6 29  3 43  0.0000000  0  7 03 25 16 22 20 06 01
  24512074.883    -2432971.709 7  -1876455.85744  24512070.218    24512083.1554
  21282583.661   -21477021.818 9 -16722375.01947  21282586.784    21282594.2694
  23014344.375   -10473462.068 8  -8147900.98846  23014344.791    23014354.3664
  20066405.282   -27689377.177 9 -21550204.11748  20066406.961    20066414.4414
  22094004.939   -14775946.011 8 -11498184.40147  22094007.502    22094014.6904
  23936548.531    -7020774.041 8  -5463774.00845  23936550.458    23936558.5154
  22708474.209   -12575256.678 8  -9780708.07346  22708479.573    22708488.0614
 00  6 29  3 43 30.0000000  0  7 03 25 16 22 20 06 01
  24492382.195    -2536334.419 7  -1956998.14445  24492401.369    24492415.8314
  21289931.995   -21438411.440 9 -16692289.02747  21289934.094    21289941.6394
  23008064.043   -10506431.784 8  -8173591.65746  23008069.631    23008078.8744
  20059690.374   -27724661.444 9 -21577698.34848  20059692.666    20059700.0444
  22099705.166   -14746000.395 8 -11474850.14647  22099705.831    22099713.3424
  23941742.275    -6993479.390 8  -5442505.38645  23941743.621    23941751.9504
  22691888.230   -12662428.174 8  -9848633.91246  22691892.073    22691898.9854
 00  6 29  3 44  0.0000000  0  7 03 25 16 22 20 06 01
  24472726.705    -2639738.871 7  -2037573.00745  24472725.294    24472738.4374
  21297313.924   -21399611.253 9 -16662055.13447  21297317.587    21297324.3894
  23001902.737   -10538835.979 8  -8198841.65246  23001904.540    23001913.1594
  20053082.090   -27759394.321 9 -21604762.92748  20053083.233    20053090.4964
  22105508.797   -14715502.100 8 -11451085.23947  22105509.154    22105516.1634
  23947032.751    -6965676.730 8  -5420840.92945  23947034.432    23947043.0224
  22675332.134   -12749426.808 8  -9916425.01846  22675335.947    22675343.7724
 00  6 29  3 44 30.0000000  0  7 03 25 16 22 20 06 01
  24453037.335    -2743182.459 7  -2118178.33345  24453040.217    24453053.1144
  21304734.587   -21360621.448 9 -16631673.47747  21304737.094    21304744.1634
  22995845.375   -10570673.987 8  -8223650.49546  22995845.848    22995854.5024
  20046577.038   -27793575.725 9 -21631397.78648  20046578.815    20046586.1514
  22111415.289   -14684452.948 8 -11426891.09147  22111417.571    22111425.2724
  23952412.013    -6937366.884 8  -5398781.25945  23952420.494    23952429.7934
  22658808.115   -12836250.383 8  -9984079.71346  22658814.281    22658822.8104
 00  6 29  3 45  0.0000000  0  7 03 25 16 22 20 06 01
  24433352.405    -2846662.423 7  -2198811.97545  24433349.968    24433362.1044
  21312188.926   -21321441.871 9 -16601143.95847  21312192.529    21312200.0544
  22989894.250   -10601944.570 8  -8248017.19146  22989895.425    22989903.8084
  20040177.096   -27827205.290 9 -21657602.63948  20040178.991    20040186.4414
  22117428.093   -14652854.633 8 -11402269.03247  22117430.354    22117438.1664
  23957897.522    -6908550.555 8  -5376326.89645  23957905.109    23957914.7344
  22642322.377   -12922896.698 8 -10051596.28146  22642325.724    22642333.5874
 00  6 29  3 45 30.0000000  0  7 03 25 16 22 20 06 01
  24413649.083    -2950175.688 7  -2279471.58145  24413651.170    24413664.8364
  21319679.376   -21282073.101 9 -16570467.01347  21319684.288    21319691.5824
  22984047.773   -10632647.068 8  -8271941.19246  22984052.535    22984061.4244
  20033884.045   -27860282.304 9 -21683376.94148  20033884.815    20033891.9934
  22123545.877   -14620708.584 8 -11377220.16647  22123547.884    22123555.1334
  23963477.175    -6879228.349 8  -5353478.35945  23963485.444    23963493.8904
  22625870.325   -13009363.662 8 -10118973.11546  22625872.814    22625880.4754
 00  6 29  3 46  0.0000000  0  7 03 25 16 22 20 06 01
  24393938.594    -3053719.629 7  -2360155.04145  24393946.608    24393959.7414
  21327209.064   -21242514.912 9 -16539642.46447  21327212.009    21327219.5444
  22978315.980   -10662780.432 8  -8295421.74146  22978318.196    22978326.3354
  20027693.478   -27892806.523 9 -21708720.48848  20027695.488    20027702.9724
  22129766.267   -14588016.752 8 -11351746.01247  22129768.803    22129776.4284
  23969157.555    -6849400.851 8  -5330236.11345  23969160.143    23969169.2544
  22609449.021   -13095649.098 8 -10186208.47346  22609452.100    22609461.4114
 00  6 29  3 46 30.0000000  0  7 03 25 16 22 20 06 01
  24374240.455    -3157291.835 7  -2440860.61545  24374237.467    24374250.8854
  21334774.254   -21202767.331 9 -16508670.33447  21334775.816    21334782.7874
  22972690.289   -10692344.146 8  -8318458.39846  22972692.426    22972701.4684
  20021608.772   -27924778.148 9 -21733633.44948  20021611.670    20021618.9564
  22136091.232   -14554780.762 8 -11325847.84347  22136093.262    22136100.8624
  23974928.902    -6819068.673 8  -5306600.60445  23974932.048    23974941.5884
  22593062.564   -13181750.927 8 -10253300.76446  22593067.613    22593076.4324
 00  6 29  3 47  0.0000000  0  7 03 25 16 22 20 06 01
  24354515.168    -3260889.447 7  -2521585.90545  24354523.986    24354536.5224
  21342370.798   -21162830.542 9 -16477550.76947  21342375.385    21342382.6744
  22967172.202   -10721337.136 8  -8341050.31446  22967174.575    22967184.2254
  20015630.903   -27956197.143 9 -21758115.78548  20015632.742    20015640.5434
  22142518.385   -14521002.330 8 -11299526.98647  22142521.376    22142528.8774
  23980800.106    -6788232.518 8  -5282572.37845  23980799.286    23980809.3454
  22576720.086   -13267666.774 8 -10320248.14546  22576719.231    22576726.4914
 00  6 29  3 47 30.0000000  0  7 03 25 16 22 20 06 01
  24334800.290    -3364509.574 7  -2602328.77645  24334805.042    24334818.0654
  21350008.289   -21122704.707 9 -16446283.89647  21350011.190    21350018.0734
  22961762.542   -10749758.564 8  -8363196.86046  22961766.104    22961776.0634
  20009755.960   -27987063.125 9 -21782167.19848  20009759.043    20009766.8264
  22149049.180   -14486683.179 8 -11272784.79647  22149051.834    22149060.0084
  23986756.546    -6756893.212 8  -5258152.12245  23986763.867    23986773.1534
  22560399.761   -13353394.674 8 -10387049.06946  22560404.038    22560413.7764
 00  6 29  3 48  0.0000000  0  7 03 25 16 22 20 06 01
  24315082.855    -3468149.669 7  -2683087.20345  24315083.401    24315096.1444
  21357679.819   -21082389.909 9 -16414869.78347  21357682.839    21357689.9194
  22956464.580   -10777607.663 8  -8384897.44846  22956468.047    22956476.3994
  20003988.454   -28017375.688 9 -21805787.38248  20003990.849    20003998.4344
  22155684.052   -14451825.249 8 -11245622.78447  22155684.545    22155693.4294
  23992819.666    -6725051.463 8  -5233340.31245  23992823.768    23992831.7704
  22544125.003   -13438932.282 8 -10453701.69946  22544128.050    22544135.4244
 00  6 29  3 48 30.0000000  0  7 03 25 16 22 20 06 01
  24295352.727    -3571806.956 8  -2763858.96745  24295358.017    24295370.7554
  21365386.705   -21041886.393 9 -16383308.61147  21365390.139    21365397.4204
  22951275.279   -10804883.793 8  -8406151.57046  22951276.909    22951285.8434
  19998326.631   -28047134.698 9 -21828976.21748  19998327.927    19998335.5124
  22162416.985   -14416430.057 8 -11218042.13147  22162420.691    22162428.6744
  23998975.716    -6692707.912 8  -5208137.48345  23998977.958    23998986.8814
  22527883.281   -13524277.550 8 -10520204.47346  22527887.782    22527895.5124
 00  6 29  3 49  0.0000000  0  7 03 25 16 22 20 06 01
  24275624.992    -3675478.618 7  -2844641.87945  24275628.608    24275642.9624
  21373131.797   -21001194.124 9 -16351600.36747  21373133.995    21373140.8584
  22946192.995   -10831586.136 8  -8426958.59446  22946195.704    22946204.9224
  19992769.846   -28076340.430 9 -21851733.92748  19992770.141    19992777.9974
  22169254.027   -14380499.433 8 -11190044.24947  22169257.469    22169265.4854
  24005216.406    -6659863.403 8  -5182544.33245  24005228.140    24005238.1274
  22511682.331   -13609428.310 8 -10586555.66946  22511683.130    22511691.3354
 00  6 29  3 49 30.0000000  0  7 03 25 16 22 20 06 01
  24255896.677    -3779162.069 7  -2925433.97045  24255898.620    24255911.1544
  21380907.708   -20960312.837 9 -16319744.83447  21380913.134    21380920.3814
  22941221.651   -10857714.047 8  -8447318.01046  22941224.115    22941232.3234
  19987313.858   -28104993.031 9 -21874060.62648  19987317.768    19987325.8074
  22176196.797   -14344035.590 8 -11161630.87947  22176197.199    22176204.5194
  24011571.014    -6626518.804 8  -5156561.44845  24011573.337    24011582.8194
  22495515.696   -13694382.129 8 -10652753.39246  22495517.241    22495525.3784
 00  6 29  3 50  0.0000000  0  7 03 25 16 22 20 06 01
  24236161.224    -3882854.228 7  -3006232.78645  24236166.445    24236180.2304
  21388725.711   -20919242.775 9 -16287742.20147  21388728.314    21388735.7434
  22936359.288   -10883266.783 8  -8467229.21846  22936361.153    22936369.7434
  19981969.035   -28133091.997 9 -21895955.91548  19981970.744    19981978.3664
  22183232.474   -14307040.250 8 -11132803.35347  22183236.727    22183245.0214
  24018002.975    -6592674.873 7  -5130189.51445  24018012.655    24018022.9654
  22479388.722   -13779136.764 8 -10718795.90646  22479389.111    22479395.8984
